     2              OBSERVATION DATA    GPS                 RINEX VERSION / TYPE
teqc 1997Jul24 19970814                                     PGM / RUN BY / DATE
                                                            COMMENT
Original Marker Name: 0916                                  COMMENT
Campaign Name: HPGN 1991                                    COMMENT
4-Character Station Name: 0916                              COMMENT
6-Character Antenna Code: TRMSST                            COMMENT
Vertical Measurement Point: BPA                             COMMENT
Vertical Offset to Rinex Ref. Point: 0.0000                 COMMENT
Radial Measurement Point: RRP                               COMMENT
Radial Offset to Rinex Ref. Point: 0.0000                   COMMENT
Antenna Height from Field Measurement: 2.2200 m             COMMENT
Original XYZ: -2421440.7016 -4578434.6787 3711037.8066      COMMENT
New XYZ position is based on association with SCEC monument COMMENT
E1F4E3C0+0011. Position of that monument is believed to be  COMMENT
valid to within 1 m horizontally; vertical accuracy         COMMENT
should be no worse than 3-times this value.                 COMMENT
                                                            COMMENT
Revised Rinex header created by UCSD GPS archive for        COMMENT
GSAC on 18-Apr-1999 (1999:108) 23:12:32 GMT                 COMMENT
For assistance contact dagnew@ucsd.edu or hjohnson@ucsd.edu COMMENT
                                                            COMMENT
HPGN-CALIF STA 09-16 1991                                   MARKER NAME
unknown NATIONAL GEODETIC SURVEY                            OBSERVER / AGENCY
483 TRIMBLE 4000 SST NP 4.30 / SP 4.20                      REC # / TYPE / VERS
19 TR 4000SST L1/L2 GEO                                     ANT # / TYPE
 -2421440.0000 -4578429.0000  3711029.0000                  APPROX POSITION XYZ
        2.2200        0.0000        0.0000                  ANTENNA: DELTA H/E/N
     1     1     0                                          WAVELENGTH FACT L1/2
     3    C1    L1    L2                                    # / TYPES OF OBSERV
     0                                                      INTERVAL
  1991     5     3    19    18   15.000000                  TIME OF FIRST OBS
  1991     5     4     1    18    0.000000                  TIME OF LAST OBS
     0                                                      # OF SATELLITES
                                                            END OF HEADER
 91  5  3 19 18 15.0000000  0  4G18G 2G11G19
  20879780.344          -0.60418
  23901646.4844         -0.66055
  23790351.9924         -0.61356
  20953653.8984         -0.68257
 91  5  3 19 18 30.0000000  0  4G18G 2G11G19
  20883913.3134      21710.70448        -0.47873
  23892858.125      -46190.783 5
  23784574.516      -30361.504 6
  20953305.0784      -1852.52747        -0.49972
 91  5  3 19 18 45.0000000  0  4G18G 2G11G19
  20888052.7664      43471.33948     16955.82363
  23884064.273      -92396.975 5        -0.35931
  23778803.094      -60684.352 6        -0.37431
  20952947.1644      -3719.53047     -1455.30462
 91  5  3 19 19  0.0000000  0  4G18G 2G11G19
  20892205.9924      65295.81148     33961.86363
  23875268.445     -138604.583 5    -36006.21521
  23773044.039      -90954.336 6    -23587.28321
  20952596.5004      -5587.34447     -2910.74562
 91  5  3 19 19 15.0000000  0  4G18G 2G11G19
  20896372.7424      87195.28747     51026.35263
  23866478.836     -184802.289 5    -72004.34621
  23767296.2814    -121159.85746    -47123.95561
  20952238.2424      -7444.96947     -4358.24962
 91  5  3 19 19 30.0000000  0  4G18G 2G11G19
  20900557.453      109181.723 8     68158.59623
  23857693.7974    -230977.63245   -107985.05161
  23761561.7734    -151288.47946    -70600.70161
  20951891.0394      -9280.18247     -5788.28762
 91  5  3 19 19 45.0000000  0  4G18G 2G11G19
  20904757.3444     131256.62647     85359.77663
  23848911.617     -277128.808 5   -143946.92521
  23755844.4614    -181338.14746    -94015.93361
  20951544.8364     -11091.37747     -7199.61062
 91  5  3 19 20  0.0000000  0  4G18G 2G11G19
  20908977.438      153428.829 7    102636.77323
  23840133.7034    -323246.87345   -179883.00061
  23750142.2894    -211299.55646   -117362.38561
  20951209.6564     -12869.68747     -8585.30862
 91  5  3 19 20 15.0000000  0  4G18G 2G11G19
  20913216.023      175704.907 7    119994.71023
  23831364.602     -369325.485 5   -215788.31621
  23744458.4304    -241166.06646   -140634.89461
  20950874.9224     -14608.90547     -9940.54462
 91  5  3 19 20 30.0000000  0  4G18G 2G11G19
  20917473.203      198073.176 7    137424.48023
  23822603.563     -415375.309 5   -251671.21221
  23738792.0554    -270948.38946   -163841.80661
  20950550.1334     -16319.92047    -11273.80662
 91  5  3 19 20 45.0000000  0  4G18G 2G11G19
  20921748.750      220544.562 7    154934.60823
  23813848.078     -461385.357 5   -287523.12421
  23733142.438     -300635.243 6   -186974.31621
  20950231.6024     -17991.80047    -12576.56762
 91  5  3 19 21  0.0000000  0  4G18G 2G11G19
  20926042.750      243113.118 7    172520.45123
  23805100.4144    -507361.82346   -323348.85661
  23727509.8594    -330232.67346   -210037.15861
  20949920.7664     -19630.92147    -13853.81062
 91  5  3 19 21 15.0000000  0  4G18G 2G11G19
  20930356.484      265776.365 7    190180.07923
  23796355.836     -553306.515 6   -359149.83121
  23721893.9064    -359742.20946   -233031.50461
  20949613.3594     -21239.26647    -15107.06062
 91  5  3 19 21 30.0000000  0  4G18G 2G11G19
  20934686.148      288534.355 7    207913.53323
  23787616.9694    -599219.58946   -394926.15561
  23716294.258     -389163.734 6   -255957.28221
  20949316.2034     -22817.04347    -16336.49962
 91  5  3 19 21 45.0000000  0  4G18G 2G11G19
  20939037.016      311390.708 7    225723.63123
  23778886.0394    -645097.09546   -430674.78061
  23710713.641     -418493.101 6   -278811.23621
  20949020.6484     -24360.55647    -17539.23462
 91  5  3 19 22  0.0000000  0  4G18G 2G11G19
  20943404.453      334343.271 7    243608.69623
  23770164.9614    -690940.97546   -466397.20061
  23705151.5554    -447732.13746   -301594.81361
  20948732.8054     -25871.88447    -18716.89162
 91  5  3 19 22 15.0000000  0  4G18G 2G11G19
  20947792.391      357397.550 7    261573.02223
  23761449.5784    -736745.17746   -502088.69461
  23699603.4384    -476874.64446   -324303.15261
  20948451.1724     -27345.18847    -19864.91762
 91  5  3 19 22 30.0000000  0  4G18G 2G11G19
  20952197.445      380552.425 7    279615.73823
  23752739.7344    -782510.86946   -537750.17661
  23694076.6414    -505921.56746   -346937.01761
  20948178.9614     -28781.85447    -20984.39662
 91  5  3 19 22 45.0000000  0  4G18G 2G11G19
  20956623.609      403805.602 7    297735.05223
  23744033.2034    -828239.74646   -573382.99361
  23688567.7194    -534874.61146   -369497.74361
  20947910.8054     -30183.78147    -22076.80762
 91  5  3 19 23  0.0000000  0  4G18G 2G11G19
  20961066.078      427155.238 8    315929.52623
  23735340.539     -873933.543 6   -608988.44921
  23683074.8674    -563735.44946   -391986.60761
  20947650.9064     -31553.12547    -23143.82762
 91  5  3 19 23 15.0000000  0  4G18G 2G11G19
  20965528.875      450600.752 8    334198.71123
  23726651.688     -919592.747 6   -644566.95921
  23677600.945     -592504.151 6   -414403.69821
  20947396.9224     -32890.23347    -24185.73062
 91  5  3 19 23 30.0000000  0  4G18G 2G11G19
  20970006.891      474142.584 8    352542.95023
  23717971.3204    -965216.73546   -680118.02361
  23672143.6334    -621179.84246   -436748.29661
  20947150.2504     -34194.64047    -25202.15362
 91  5  3 19 23 45.0000000  0  4G18G 2G11G19
  20974506.961      497782.748 8    370963.80523
  23709294.680    -1010803.155 6   -715639.81121
  23666705.2034    -649759.92046   -459018.38961
  20946907.6174     -35464.25147    -26191.45662
 91  5  3 19 24  0.0000000  0  4G18G 2G11G19
  20979023.523      521522.219 8    389462.05123
  23700627.0234   -1056350.88646   -751131.45961
  23661283.555     -678243.074 6   -481212.96621
  20946672.8364     -36697.93847    -27152.77062
 91  5  3 19 24 15.0000000  0  4G18G 2G11G19
  20983559.8134     545357.14848    408034.68163
  23691967.8204   -1101863.40346   -786595.66461
  23655881.8524    -706632.71746   -503334.67261
  20946442.6564     -37899.41047    -28088.97962
 91  5  3 19 24 30.0000000  0  5G18G 2G11G16G19
  20988113.227      569290.973 8    426684.37123
  23683316.5784   -1147337.42346   -822029.86461
  23650498.3984    -734925.35146   -525380.79061
  24448291.7974         -0.96555
  20946221.7974     -39065.50947    -28997.62762
 91  5  3 19 24 45.0000000  0  5G18G 2G11G16G19
  20992686.063      593320.425 8    445408.57323
  23674669.8594   -1192775.86846   -857436.34661
  23645132.984     -763123.622 6   -547353.39321
  24443042.6804     -27568.40645
  20946005.8524     -40199.38547    -29881.16662
 91  5  3 19 25  0.0000000  0  5G18G 2G11G16G19
  20997278.172      617447.725 8    464209.01923
  23666027.250    -1238175.967 6   -892812.93721
  23639783.359     -791224.729 6   -569250.27321
  24437817.1884     -55030.81844
  20945796.7664     -41298.61547    -30737.70762
 91  5  3 19 25 15.0000000  0  5G18G 2G11G16G19
  21001887.609      641670.041 8    483083.50623
  23657394.289    -1283540.478 6   -928161.81121
  23634456.0864    -819231.24446   -591073.43861
  24432607.070      -82391.116 5
  20945593.3054     -42366.07747    -31569.49662
 91  5  3 19 25 30.0000000  0  5G18G 2G11G16G19
  21006515.352      665988.933 8    502033.25123
  23648769.258    -1328867.416 6   -963481.39321
  23629144.852     -847140.970 6   -612821.20121
  24427425.0554    -109647.33645
  20945398.6254     -43399.68747    -32374.90362
 91  5  3 19 25 45.0000000  0  5G18G 2G11G16G19
  21011162.125      690406.344 8    521059.76023
  23640151.5944   -1374154.81346   -998770.18861
  23623852.273     -874951.665 6   -634491.79321
  24422260.0634    -136797.14045        -0.17671
  20945206.8364     -44397.62047    -33152.51562
 91  5  3 19 26  0.0000000  0  5G18G 2G11G16G19
  21015826.258      714919.551 8    540160.92023
  23631541.430    -1419405.240 6  -1034030.16121
  23618578.289     -902665.823 6   -656087.16421
  24417111.7504    -163843.02345    -21074.93561
  20945023.7664     -45362.71947    -33904.54362
 91  5  3 19 26 15.0000000  0  5G18G 2G11G16G19
  21020510.500      739533.840 8    559340.84223
  23622937.0704   -1464613.16846  -1069257.01761
  23613322.938     -930277.667 6   -677602.80521
  24411987.1334    -190779.54645    -42064.39261
  20944847.9224     -46289.69747    -34626.86262
 91  5  3 19 26 30.0000000  0  5G18G 2G11G16G19
  21025212.617      764243.440 8    578595.03523
  23614343.8204   -1509783.94946  -1104454.92361
  23608088.602     -957792.365 6   -699042.74621
  24406877.5084    -217612.02544    -62972.82161
  20944676.6804     -47183.83647    -35323.59762
 91  5  3 19 26 45.0000000  0  5G18G 2G11G16G19
  21029932.9384     789047.18648    597922.58963
  23605754.0864   -1554918.67446  -1139624.73761
  23602870.3054    -985210.92546   -720407.78661
  24401793.2504    -244341.59844    -83801.05761
  20944513.1334     -48046.51347    -35995.81462
 91  5  3 19 27  0.0000000  0  5G18G 2G11G16G19
  21034671.3914     813950.71648    617327.89263
  23597169.445    -1600011.399 6  -1174761.83321
  23597672.273    -1012527.184 6   -741693.09921
  24396727.7424    -270962.49145   -104544.60461
  20944355.7974     -48871.89747    -36638.97462
 91  5  3 19 27 15.0000000  0  5G18G 2G11G16G19
  21039429.6334     838951.13948    636808.70063
  23588598.8364   -1645064.74046  -1209868.23161
  23592492.539    -1039743.514 6   -762900.55721
  24391682.7034    -297476.76645   -125205.10661
  20944205.0164     -49662.72447    -37255.20462
 91  5  3 19 27 30.0000000  0  5G18G 2G11G16G19
  21044205.719      864048.388 8    656364.95423
  23580034.602    -1690078.464 6  -1244943.75921
  23587331.438    -1066859.469 6   -784029.79321
  24386657.2894    -323884.48145   -145782.53861
  20944061.531      -50418.954 7    -37844.48422
 91  5  3 19 27 45.0000000  0  5G18G 2G11G16G19
  21048998.930      889240.073 8    675994.79523
  23571472.438    -1735054.809 5  -1279990.16021
  23582192.117    -1093877.254 6   -805082.54321
  24381650.0234    -350187.72145   -166278.57961
  20943923.5864     -51142.84147    -38408.55862
 91  5  3 19 28  0.0000000  0  5G18G 2G11G16G19
  21053811.1884     914528.49448    695700.02063
  23562922.922    -1779991.323 6  -1315005.53021
  23577070.492    -1120794.094 6   -826056.62721
  24376664.539     -376383.981 5   -186691.26321
  20943794.7734     -51832.11947    -38945.66662
 91  5  3 19 28 15.0000000  0  5G18G 2G11G16G19
  21058641.8204     939914.65748    715481.40463
  23554377.8444   -1824886.46245  -1349988.65961
  23571965.7344   -1147608.33246   -846950.77461
  24371700.5944    -402471.53145   -207019.22461
  20943667.2974     -52485.57747    -39454.86162
 91  5  3 19 28 30.0000000  0  5G18G 2G11G16G19
  21063492.8914     965403.88148    735343.09663
  23545845.922    -1869735.088 6  -1384935.53521
  23566886.8524   -1174314.60046   -867760.78661
  24366759.9844    -428445.41645   -227258.61061
  20943552.0234     -53098.15147    -39932.19962
 91  5  3 19 28 45.0000000  0  5G18G 2G11G16G19
  21068362.469      990994.258 8    755283.60723
  23537319.961    -1914538.606 6  -1419847.27021
  23561824.1564   -1200914.22546   -888487.69761
  24361838.156     -454306.868 5   -247410.36821
  20943442.8524     -53671.41447    -40378.90662
 91  5  3 19 29  0.0000000  0  5G18G 2G11G16G19
  21073250.906     1016686.339 8    775303.36923
  23528801.6954   -1959296.19546  -1454723.21361
  23556781.086    -1227406.143 6   -909130.67821
  24356940.570     -480055.055 5   -267473.90621
  20943342.2584     -54204.53047    -40794.32762
 91  5  3 19 29 15.0000000  0  5G18G 2G11G16G19
  21078158.1024    1042476.19347    795399.31463
  23520292.1644   -2004011.87546  -1489566.51361
  23551760.898    -1253794.302 6   -929692.80221
  24352061.2734    -505694.15245   -287452.41861
  20943245.578      -54701.923 7    -41181.91622
 91  5  3 19 29 30.0000000  0  5G18G 2G11G16G19
  21083086.1724    1068366.34448    815573.41763
  23511793.8524   -2048682.55346  -1524374.73461
  23546760.0634   -1280075.35446   -950171.48261
  24347202.7194    -531220.99945   -307343.46061
  20943158.2894     -55160.56447    -41539.30662
 91  5  3 19 29 45.0000000  0  5G18G 2G11G16G19
  21088031.742     1094355.029 8    835824.29823
  23503301.0554   -2093309.80646  -1559149.12361
  23541777.484    -1306250.521 6   -970567.64921
  24342364.352     -556636.774 5   -327147.96421
  20943079.2114     -55582.03147    -41867.73062
 91  5  3 19 30  0.0000000  0  5G18G 2G11G16G19
  21092995.2814    1120442.15848    856151.89163
  23494817.328    -2137893.464 6  -1593889.53921
  23536814.7974   -1332319.85346   -990881.34761
  24337547.3984    -581941.77245   -346866.15561
  20943010.0164     -55966.53647    -42167.35062
 91  5  3 19 30 15.0000000  0  5G18G 2G11G16G19
  21097978.852     1146627.963 8    876556.36723
  23486338.422    -2182433.205 6  -1628595.73421
  23531877.3284   -1358282.67946  -1011112.06161
  24332753.313     -607135.457 5   -366497.56821
  20942940.3524     -56313.75047    -42437.91462
 91  5  3 19 30 30.0000000  0  5G18G 2G11G16G19
  21102980.250     1172912.502 7    897037.78523
  23477874.6334   -2226928.69446  -1663267.45661
  23526956.3834   -1384138.44046  -1031259.33961
  24327982.5554    -632217.31245   -386041.84861
  20942881.6884     -56623.41047    -42679.21562
 91  5  3 19 30 45.0000000  0  5G18G 2G11G16G19
  21108002.070     1199300.924 7    917600.14523
  23469415.359    -2271374.539 6  -1697900.48821
  23522058.4694   -1409881.45046  -1051318.76261
  24323232.3754    -657182.15545   -405494.98561
  20942830.2424     -56890.36447    -42887.23762
 91  5  3 19 31  0.0000000  0  5G18G 2G11G16G19
  21113042.172     1225787.931 7    938239.32923
  23460964.6024   -2315775.60446  -1732498.63061
  23517178.172    -1435516.456 6  -1071294.01321
  24318503.648     -682034.542 5   -424860.46521
  20942790.0474     -57119.52047    -43065.80862
 91  5  3 19 31 15.0000000  0  5G18G 2G11G16G19
  21118100.688     1252373.927 7    958955.64423
  23452525.1484   -2360131.35046  -1767061.46561
  23512322.1174   -1461042.91146  -1091184.69661
  24313796.633     -706774.194 5   -444138.13021
  20942749.4694     -57310.58947    -43214.70062
 91  5  3 19 31 30.0000000  0  5G18G 2G11G16G19
  21123179.578     1279057.731 7    979748.17423
  23444091.3754   -2404442.57746  -1801589.60361
  23507484.9534   -1486461.45946  -1110991.28361
  24309106.1644    -731401.57145   -463328.25461
  20942724.3134     -57464.53547
 91  5  3 19 31 45.0000000  0  5G18G 2G11G16G19
  21128274.766     1305841.288 7   1000618.43723
  23435670.344    -2448707.236 6  -1836081.46921
  23502669.7114   -1511769.72346  -1130711.95061
  24304443.4924    -755915.01545   -482429.63261
  20942698.5634     -57579.41947
 91  5  3 19 32  0.0000000  0  5G18G 2G11G16G19
  21133392.102     1332724.167 7   1021566.08723
  23427253.148    -2492925.509 6  -1870537.18121
  23497873.813    -1536967.903 6  -1150346.82321
  24299801.7814    -780314.51645   -501442.21461
  20942688.2034     -57655.51947
 91  5  3 19 32 15.0000000  0  5G18G 2G11G16G19
  21138526.016     1359706.911 7   1042591.55823
  23418851.008    -2537096.569 6  -1904956.11321
  23493099.414    -1562054.960 6  -1169895.10621
  24295177.7504    -804599.03945   -520365.22961
  20942676.4614     -57692.13547
 91  5  3 19 32 30.0000000  0  5G18G 2G11G16G19
  21143679.3594    1386791.41247   1063696.32363
  23410455.359    -2581218.126 6  -1939336.46421
  23488347.4224   -1587028.45146  -1189354.90761
  24290580.9534    -828766.59445   -539197.07161
  20942682.1254     -57687.15846
 91  5  3 19 32 45.0000000  0  5G18G 2G11G16G19
  21148853.641     1413979.231 7   1084881.58923
  23402067.641    -2625288.602 6  -1973677.01121
  23483615.695    -1611886.577 6  -1208724.80321
  24286006.1954    -852815.43845   -557936.42961
  20942688.3754     -57639.28047
 91  5  3 19 33  0.0000000  0  5G18G 2G11G16G19
  21154046.4304    1441266.06547   1106144.01663
  23393690.148    -2669312.042 6  -2007980.90521
  23478908.500    -1636633.251 6  -1228007.85221
  24281449.9064    -876749.76545   -576586.56561
  20942704.4694     -57552.51847
 91  5  3 19 33 15.0000000  0  5G18G 2G11G16G19
  21159259.172     1468654.182 7   1127485.35823
  23385320.117    -2713285.737 6  -2042246.05521
  23474219.0634   -1661265.66446  -1247201.88261
  24276918.648     -900566.616 5   -595145.17221
  20942729.6174     -57424.40447
 91  5  3 19 33 30.0000000  0  5G18G 2G11G16G19
  21164488.070     1496139.943 7   1148902.78323
  23376961.0084   -2757213.33946  -2076475.28161
  23469553.336    -1685787.139 6  -1266309.45221
  24272407.7034    -924269.56345   -613614.97661
  20942761.195      -57258.497 7
 91  5  3 19 33 45.0000000  0  5G18G 2G11G16G19
  21169738.125     1523723.872 7   1170396.70723
  23368613.203    -2801093.977 6  -2110667.91421
  23464906.4454   -1710196.72246  -1285329.83261
  24267919.6644    -947857.81345   -631995.44661
  20942799.7424     -57054.07947
 91  5  3 19 34  0.0000000  0  5G18G 2G11G16G19
  21175006.172     1551412.163 7   1191971.95323
  23360271.461    -2844921.117 6  -2144818.85621
  23460286.6094   -1734487.73746  -1304257.83261
  24263452.117     -971325.046 5   -650281.60221
  20942850.7584     -56804.91246    -42820.73962
 91  5  3 19 34 15.0000000  0  5G18G 2G11G16G19
  21180295.078     1579199.447 7   1213624.33423
  23351943.5784   -2888699.89646  -2178932.12761
  23455684.570    -1758665.223 6  -1323097.35821
  24259010.766     -994676.038 5   -668477.20921
  20942901.1804     -56516.17747    -42595.75562
 91  5  3 19 34 30.0000000  0  5G18G 2G11G16G19
  21185599.961     1607086.667 7   1235354.58523
  23343620.555    -2932429.261 6  -2213006.87621
  23451105.672    -1782727.831 6  -1341847.37221
  24254587.9774   -1017909.59545   -686581.27561
  20942964.5474     -56186.93547    -42339.20562
 91  5  3 19 34 45.0000000  0  5G18G 2G11G16G19
  21190926.805     1635071.529 7   1257160.92223
  23335308.391    -2976111.289 6  -2247044.75421
  23446549.8834   -1806677.47646  -1360509.37061
  24250190.8054   -1041027.84545   -704595.48861
  20943034.2664     -55819.40047    -42052.81762
 91  5  3 19 35  0.0000000  0  5G18G 2G11G16G19
  21196271.727     1663156.421 7   1279045.21023
  23327004.2584   -3019743.35046  -2281043.69961
  23442013.4614   -1830511.45946  -1379081.23661
  24245813.6954   -1064028.49445   -722518.09561
  20943112.0944     -55411.09847    -41734.66262
 91  5  3 19 35 15.0000000  0  5G18G 2G11G16G19
  21201634.461     1691342.270 7   1301008.16123
  23318711.0944   -3063323.95246  -2315002.53761
  23437500.8834   -1854228.07346  -1397561.65261
  24241457.969    -1086909.955 5   -740347.80321
  20943198.1884     -54960.62747    -41383.65062
 91  5  3 19 35 30.0000000  0  5G18G 2G11G16G19
  21207018.320     1719630.554 7   1323050.93223
  23310428.7424   -3106851.56846  -2348920.10061
  23433011.0864   -1877825.52646  -1415949.20861
  24237125.555    -1109670.351 5   -758083.15721
  20943291.7664     -54466.63847    -40998.72962
 91  5  3 19 35 45.0000000  0  5G18G 2G11G16G19
  21212420.031     1748016.797 7   1345170.03423
  23302153.7974   -3150330.15146  -2382799.45461
  23428541.5634   -1901307.70946  -1434246.93961
  24232819.1724   -1132314.04145   -775727.59461
  20943392.3284     -53933.24247    -40583.09562
 91  5  3 19 36  0.0000000  0  5G18G 2G11G16G19
  21217840.438     1776503.551 7   1367367.45223
  23293892.0784   -3193757.11746  -2416638.57861
  23424095.3914   -1924671.97046  -1452452.79161
  24228529.6644   -1154838.17545   -793278.84961
  20943503.7584     -53357.99647    -40134.85362
 91  5  3 19 36 15.0000000  0  5G18G 2G11G16G19
  21223280.555     1805090.718 7   1389643.11823
  23285638.3204   -3237132.15646  -2450437.24861
  23419670.6644   -1947917.87246  -1470566.41161
  24224270.6094   -1177242.48445   -810736.75161
  20943619.2814     -52740.70347    -39653.85162
 91  5  3 19 36 30.0000000  0  5G18G 2G11G16G19
  21228739.531     1833780.635 7   1411998.84523
  23277393.016    -3280453.002 6  -2484193.68421
  23415270.016    -1971043.015 6  -1488585.94121
  24220029.328    -1199524.915 5   -828099.67821
  20943746.1724     -52079.26747    -39138.45262
 91  5  3 19 36 45.0000000  0  5G18G 2G11G16G19
  21234219.609     1862572.866 7   1434434.29923
  23269161.2504   -3323719.59546  -2517907.84661
  23410894.719    -1994047.121 6  -1506511.14921
  24215810.602    -1221685.308 5   -845367.49721
  20943880.4304     -51373.68647    -38588.65262
 91  5  3 19 37  0.0000000  0  5G18G 2G11G16G19
  21239716.805     1891463.524 8   1456946.44823
  23260936.3364   -3366935.68146  -2551582.65561
  23406538.1644   -2016933.69746  -1524344.77761
  24211616.9534   -1243727.25045   -862543.03861
  20944021.4454     -50627.75847    -38007.41762
 91  5  3 19 37 15.0000000  0  5G18G 2G11G16G19
  21245233.367     1920454.586 7   1479536.83223
  23252723.6484   -3410098.84546  -2585216.23061
  23402206.6804   -2039700.29746  -1542084.91561
  24207444.6804   -1265648.40545   -879624.45061
  20944171.7664     -49839.26447    -37393.00962
 91  5  3 19 37 30.0000000  0  5G18G 2G11G16G19
  21250769.398     1949543.887 8   1502203.76923
  23244517.1414   -3453210.84146  -2618809.92761
  23397895.0634   -2062348.52546  -1559732.82261
  24203296.891    -1287450.505 5   -896613.08721
  20944329.4224     -49010.19547    -36746.98462
 91  5  3 19 37 45.0000000  0  5G18G 2G11G16G19
  21256324.031     1978735.980 7   1524950.80123
  23236324.3134   -3496267.18746  -2652360.26561
  23393610.5784   -2084873.72946  -1577284.86061
  24199169.086    -1309128.752 5   -913505.19921
  20944496.2424     -48135.93947    -36065.75262
 91  5  3 19 38  0.0000000  0  5G18G 2G11G16G19
  21261899.281     2008031.368 7   1547778.32323
  23228141.2194   -3539266.97946  -2685866.52461
  23389347.0394   -2107274.89146  -1594740.25561
  24195068.922    -1330682.670 5   -930300.45921
  20944673.7424     -47215.83747    -35348.79262
 91  5  3 19 38 15.0000000  0  5G18G 2G11G16G19
  21267492.734     2037428.420 7   1570685.06323
  23219967.8914   -3582211.61246  -2719329.81361
  23385107.1644   -2129553.19246  -1612099.89961
  24190993.9454   -1352113.52445   -946999.83661
  20944855.5864     -46251.34247    -34597.24062
 91  5  3 19 38 30.0000000  0  5G18G 2G11G16G19
  21273106.172     2066923.862 7   1593668.46923
  23211806.9774   -3625104.27346  -2752752.59561
  23380891.5234   -2151711.52946  -1629366.07661
  24186937.156    -1373424.429 5   -963605.72821
  20945045.8674     -45245.73647    -33813.65762
 91  5  3 19 38 45.0000000  0  5G18G 2G11G16G19
  21278737.766     2096519.664 7   1616730.08423
  23203654.7274   -3667942.77146  -2786133.17361
  23376697.250    -2173747.649 6  -1646537.00721
  24182904.367    -1394613.091 5   -980116.36721
  20945244.5394     -44197.03847    -32996.49362
 91  5  3 19 39  0.0000000  0  5G18G 2G11G16G19
  21284388.852     2126215.462 7   1639869.61323
  23195514.2734   -3710727.10746  -2819471.55361
  23372527.102    -2195661.452 6  -1663612.63021
  24178895.391    -1415679.836 5   -996532.01421
  20945452.7664     -43105.38447    -32145.85862
 91  5  3 19 39 15.0000000  0  5G18G 2G11G16G19
  21290059.469     2156011.620 7   1663087.34623
  23187383.313    -3753456.269 6  -2852766.93021
  23368380.7664   -2217451.78746  -1680592.05461
  24174909.8364   -1436623.63445  -1012851.86261
  20945669.8524     -41969.92547    -31261.08762
 91  5  3 19 39 30.0000000  0  5G18G 2G11G16G19
  21295747.984     2185907.172 7   1686382.52923
  23179262.6884   -3796131.56446  -2886020.34361
  23364257.0394   -2239119.63846  -1697476.02761
  24170946.0474   -1457445.45745  -1029076.62061
  20945894.0084     -40791.84447    -30343.10962
 91  5  3 19 39 45.0000000  0  5G18G 2G11G16G19
  21301455.922     2215902.058 7   1709755.11623
  23171152.2894   -3838752.49346  -2919231.38961
  23360158.8364   -2260664.46146  -1714264.14161
  24167006.3524   -1478144.81445  -1045205.97961
  20946124.1804     -39570.88447    -29391.70962
 91  5  3 19 40  0.0000000  0  5G18G 2G11G16G19
  21307184.0864    2245998.86747   1733207.11963
  23163050.3754   -3881316.23846  -2952397.87261
  23356081.6644   -2282083.38746  -1730954.14561
  24163094.938    -1498719.059 5  -1061237.85021
  20946366.3754     -38304.32147    -28404.78062
 91  5  3 19 40 15.0000000  0  5G18G 2G11G16G19
  21312930.281     2276196.490 7   1756737.68123
  23154964.9774   -3923823.75746  -2985520.54661
  23352029.1804   -2303377.24046  -1747546.69361
  24159204.945    -1519169.233 5  -1077173.05321
  20946616.3284     -36993.28647    -27383.19662
 91  5  3 19 40 30.0000000  0  5G18G 2G11G16G19
  21318695.586     2306489.550 7   1780342.60823
  23146882.5944   -3966279.87446  -3018603.16961
  23347998.578    -2324550.790 6  -1764045.50121
  24155329.773    -1539500.247 5  -1093015.37621
  20946876.4064     -35642.74347    -26330.83162
 91  5  3 19 40 45.0000000  0  5G18G 2G11G16G19
  21324478.719     2336884.237 7   1804026.72423
  23138816.7974   -4008678.53046  -3051641.01261
  23343995.250    -2345597.670 6  -1780445.60021
  24151488.984    -1559705.771 5  -1108759.91521
  20947139.0554     -34246.85347    -25243.12562
 91  5  3 19 41  0.0000000  0  5G18G 2G11G16G19
  21330281.258     2367379.457 7   1827789.17623
  23130757.8524   -4051020.22646  -3084634.48261
  23340014.0394   -2366518.33046  -1796747.35761
  24147668.4614   -1579786.43645  -1124407.20361
  20947412.6724     -32806.09047    -24120.45862
 91  5  3 19 41 15.0000000  0  5G18G 2G11G16G19
  21336102.930     2397971.521 7   1851627.09523
  23122710.0474   -4093308.81646  -3117586.56161
  23336054.7814   -2387316.39246  -1812953.56961
  24143869.609    -1599745.952 5  -1139960.03721
  20947694.2814     -31324.06647    -22965.64162
 91  5  3 19 41 30.0000000  0  5G18G 2G11G16G19
  21341944.227     2428662.495 7   1875542.08423
  23114672.000    -4135541.485 6  -3150495.07021
  23332122.477    -2407989.156 6  -1829062.16221
  24140091.953    -1619581.720 5  -1155416.46621
  20947988.6564     -29798.53147    -21776.91462
 91  5  3 19 41 45.0000000  0  5G18G 2G11G16G19
  21347801.4614    2459454.11747   1899535.50163
  23106648.8914   -4177716.27746  -3183358.49061
  23328210.6024   -2428534.22946  -1845071.25461
  24136342.4774   -1639291.60145  -1170774.79761
  20948283.8914     -28227.45947    -20552.71062
 91  5  3 19 42  0.0000000  0  5G18G 2G11G16G19
  21353679.7114    2490343.16547   1923604.83263
  23098631.8284   -4219836.10846  -3216179.06661
  23324326.0004   -2448954.46146  -1860983.05261
  24132616.836    -1658878.722 5  -1186037.45521
  20948590.6644     -26613.96747    -19295.44862
 91  5  3 19 42 15.0000000  0  5G18G 2G11G16G19
  21359577.6254    2521330.80447   1947750.98563
  23090627.8914   -4261899.42046  -3248955.61261
  23320465.8054   -2469248.42746  -1876796.47561
  24128912.2344   -1678341.41345  -1201203.18161
  20948906.5164     -24956.79647    -18004.15262
 91  5  3 19 42 30.0000000  0  5G18G 2G11G16G19
  21365494.4924    2552420.46247   1971976.63863
  23082635.9064   -4303902.95346  -3281685.57361
  23316628.5394   -2489412.48846  -1892508.66561
  24125233.844    -1697676.562 5  -1216269.50421
  20949236.2734     -23252.46247    -16676.10562
 91  5  3 19 42 45.0000000  0  5G18G 2G11G16G19
  21371428.164     2583610.336 7   1996280.38223
  23074653.9534   -4345848.20246  -3314370.11861
  23312813.2584   -2509447.97346  -1908120.67861
  24121576.633    -1716885.533 5  -1231237.51821
  20949564.3204     -21502.52447    -15312.51862
 91  5  3 19 43  0.0000000  0  6G18G 2G11G16G19G 6
  21377382.852     2614897.678 7   2020660.07223
  23066682.3834   -4387737.59746  -3347011.14661
  23309026.4774   -2529357.15846  -1923634.25561
  24117945.8984   -1735970.46645  -1246108.85161
  20949905.9694     -19709.54147    -13915.39662
  24590516.1174         -0.86652
 91  5  3 19 43 15.0000000  0  6G18G 2G11G16G19G 6
  21383355.219     2646281.901 7   2045115.25623
  23058723.1804   -4429571.24146  -3379608.72561
  23305260.1724   -2549140.14246  -1939049.50761
  24114336.1724   -1754931.77245  -1260883.88661
  20950256.5634     -17873.81247    -12484.96362
  24583827.188      -35162.561 3
 91  5  3 19 43 30.0000000  0  6G18G 2G11G16G19G 6
  21389346.352     2677765.162 7   2069647.61123
  23050771.8674   -4471346.79546  -3412161.04161
  23301520.7114   -2568794.53646  -1954364.56361
  24110752.242    -1773767.245 5  -1275560.88121
  20950615.6174     -15993.12447    -11019.49762
  24577141.234      -70314.851 3        -0.07231
 91  5  3 19 43 45.0000000  0  6G18G 2G11G16G19G 6
  21395355.4454    2709346.63147   2094256.49163
  23042832.5864   -4513064.92646  -3444668.61461
  23297806.4144   -2588320.78146  -1969579.75861
  24107193.984    -1792477.594 5  -1290140.33121
  20950978.9924     -14068.32347     -9519.65462
  24570452.5634    -105458.60242    -27384.73961
 91  5  3 19 44  0.0000000  0  6G18G 2G11G16G19G 6
  21401384.461     2741025.565 7   2118941.31723
  23034907.070    -4554726.204 6  -3477131.89321
  23294113.2814   -2607719.30746  -1984695.42961
  24103655.6254   -1811063.31645  -1304622.71361
  20951357.5314     -12099.94547     -7985.86162
  24563761.734     -140594.461 2    -54763.25421
 91  5  3 19 44 15.0000000  0  6G18G 2G11G16G19G 6
  21407431.969     2772802.925 7   2143702.84023
  23026989.6804   -4596329.38846  -3509549.89061
  23290447.1484   -2626988.76146  -1999710.52161
  24100143.7734   -1829522.93545  -1319006.79961
  20951736.1174     -10086.77047     -6417.15862
  24557080.617     -175721.425 3    -82134.83121
 91  5  3 19 44 30.0000000  0  6G18G 2G11G16G19G 6
  21413497.406     2804680.384 7   2168542.36623
  23019083.3364   -4637872.37846  -3541920.99061
  23286805.1644   -2646126.95546  -2014623.34961
  24096655.391    -1847854.590 5  -1333291.19521
  20952130.8984      -8026.99147     -4812.14062
  24550400.1954    -210837.53043   -109497.95961
 91  5  3 19 44 45.0000000  0  6G18G 2G11G16G19G 6
  21419582.6174    2836654.76447   2193457.40963
  23011187.2974   -4679357.65346  -3574247.11861
  23283186.7504   -2665136.25946  -2029435.73461
  24093190.8524   -1866061.19245  -1347478.12261
  20952529.4224      -5923.11847     -3172.76362
  24543709.977     -245945.620 3   -136854.85921
 91  5  3 19 45  0.0000000  0  6G18G 2G11G16G19G 6
  21425686.0164    2868726.44547   2218448.27163
  23003304.7814   -4720784.80346  -3606527.95661
  23279596.164    -2684016.209 6  -2044147.32321
  24089749.688    -1884142.080 5  -1361567.11621
  20952939.8054      -3774.81147     -1498.76162
  24537034.258     -281045.364 3   -164205.20821
 91  5  3 19 45 15.0000000  0  6G18G 2G11G16G19G 6
  21431807.0634    2900895.03847   2243514.64663
  22995433.0554   -4762154.30446  -3638763.86461
  23276028.2274   -2702767.04446  -2058758.30861
  24086334.4614   -1902097.62745  -1375558.43861
  20953355.5234      -1582.89347       209.21662
  24530358.6954    -316137.28743   -191549.48961
 91  5  3 19 45 30.0000000  0  6G18G 2G11G16G19G 6
  21437947.4774    2933163.84747   2268659.10863
  22987573.000    -4803462.508 6  -3670952.01921
  23272483.6094   -2721384.95946  -2073265.72061
  24082939.828    -1919924.171 5  -1389449.24021
  20953780.9144        656.33147      1954.05962
  24523679.828     -351217.959 3   -218884.97421
 91  5  3 19 45 45.0000000  0  6G18G 2G11G16G19G 6
  21444107.0864    2965530.13147   2293879.52763
  22979723.8674   -4844712.00146  -3703094.42161
  23268966.367    -2739872.280 6  -2087671.36421
  24079571.492    -1937624.203 5  -1403241.43121
  20954216.5634       2940.37347      3733.82762
  24517008.797     -386289.882 4   -246213.68821
 91  5  3 19 46  0.0000000  0  6G18G 2G11G16G19G 6
  21450284.8364    2997995.19347   2319176.91863
  22971884.172    -4885900.960 6  -3735189.65621
  23265472.5314   -2758227.19446  -2101973.83661
  24076228.148    -1955196.111 5  -1416933.83321
  20954659.2344       5270.89647      5549.81562
  24510334.086     -421351.617 4
 91  5  3 19 46 15.0000000  0  6G18G 2G11G16G19G 6
  21456481.0314    3030555.18347   2344548.27763
  22964058.6334   -4927032.95746  -3767240.50461
  23262004.4924   -2776453.26246  -2116175.91061
  24072907.4534   -1972643.15745  -1430528.92061
  20955109.9534       7644.26347      7399.18462
  24503667.852     -456406.901 4
 91  5  3 19 46 30.0000000  0  6G18G 2G11G16G19G 6
  21462696.4534    3063213.46347   2369996.22463
  22956242.336    -4968104.413 6  -3799244.18121
  23258560.5164   -2794546.64646  -2130274.59561
  24069610.8594   -1989962.08145  -1444024.17161
  20955575.0944      10064.02047      9284.70262
  24496996.555     -491452.324 4
 91  5  3 19 46 45.0000000  0  6G18G 2G11G16G19G 6
  21468928.9454    3095968.16047   2395519.30463
  22948436.891    -5009116.982 6  -3831201.97121
  23255142.563    -2812508.843 6  -2144271.05821
  24066341.4694   -2007154.55445  -1457420.88561
  20956041.4224      12528.34147     11204.94462
  24490329.117     -526489.617 5
 91  5  3 19 47  0.0000000  0  6G18G 2G11G16G19G 6
  21475180.1254    3128821.11247   2421118.94363
  22940645.273    -5050068.703 6  -3863112.34721
  23251749.5944   -2830337.70546  -2158163.61561
  24063095.7504   -2024218.38045  -1470717.35561
  20956519.0634      15039.13347     13161.39662
  24483663.1174    -561516.89544        -0.33971
 91  5  3 19 47 15.0000000  0  6G18G 2G11G16G19G 6
  21481450.2504    3161772.30247   2446795.13063
  22932864.211    -5090959.120 6  -3894974.94921
  23248384.5314   -2848032.77846  -2171951.91961
  24059870.0784   -2041153.28945  -1483913.37761
  20957004.5784      17596.68347     15154.28662
  24476998.2114    -596534.09545    -27286.36161
 91  5  3 19 47 30.0000000  0  6G18G 2G11G16G19G 6
  21487739.1094    3194820.65147   2472547.03162
  22925092.8594   -5131788.93646  -3926790.33761
  23245042.8204   -2865594.72246  -2185636.49161
  24056671.539    -2057960.555 5  -1497009.92821
  20957501.3674      20200.14547     17182.94862
  24470337.164     -631541.923 5    -54565.21021
 91  5  3 19 47 45.0000000  0  6G18G 2G11G16G19G 6
  21494047.4924    3227968.42247   2498376.40163
  22917336.3834   -5172555.73946  -3958556.61661
  23241725.1414   -2883020.82546  -2199215.21861
  24053499.820    -2074637.201 5  -1510004.70521
  20958002.5864      22851.99047     19249.31262
  24463678.7664    -666538.25345    -81834.97761
 91  5  3 19 48  0.0000000  0  6G18G 2G11G16G19G 6
  21500373.1724    3261213.60847   2524281.67763
  22909591.2894   -5213261.10346  -3990275.02261
  23238434.7814   -2900312.59846  -2212689.27061
  24050350.1174   -2091184.70545  -1522898.82861
  20958519.0784      25550.59247     21352.10762
  24457021.406     -701524.608 5   -109097.04621
 91  5  3 19 48 15.0000000  0  6G18G 2G11G16G19G 6
  21506718.5084    3294555.05947   2550261.96463
  22901853.6804   -5253906.11546  -4021946.39661
  23235168.7974   -2917471.20146  -2226059.54561
  24047226.938    -2107604.500 5  -1535693.45221
  20959041.5394      28294.53147     23490.23362
  24450365.5944    -736502.38145   -136352.36761
 91  5  3 19 48 30.0000000  0  6G18G 2G11G16G19G 6
  21513081.1564    3327993.29347   2576317.66663
  22894131.8204   -5294490.06346  -4053570.19461
  23231928.4144   -2934495.86646  -2239325.46461
  24044126.2894   -2123896.07245  -1548388.18461
  20959573.6724      31084.49947     25664.22062
  24443706.281     -771471.048 5   -163600.59621
 91  5  3 19 48 45.0000000  0  6G18G 2G11G16G19G 6
  21519464.5314    3361532.05747   2602451.70663
  22886421.406    -5335008.843 6  -4085143.21621
  23228716.0554   -2951382.24746  -2252483.62161
  24041051.320    -2140055.082 5  -1560979.60421
  20960113.3284      33924.67847     27877.33862
  24437061.609     -806426.698 5   -190838.74221
 91  5  3 19 49  0.0000000  0  6G18G 2G11G16G19G 6
  21525864.6884    3395166.64547   2628660.40963
  22878722.9614   -5375466.78646  -4116668.82261
  23225528.0944   -2968134.55746  -2265537.30861
  24037998.391    -2156085.826 5  -1573471.07421
  20960661.7894      36810.44547     30125.97662
  24430407.656     -841373.724 5   -218070.08121
 91  5  3 19 49 15.0000000  0  6G18G 2G11G16G19G 6
  21532283.9614    3428899.13747   2654945.40563
  22871034.7034   -5415861.33946  -4148145.03461
  23222365.8914   -2984750.18946  -2278484.49261
  24034974.3984   -2171986.05845  -1585860.84161
  20961220.2504      39744.33747     32412.11662
  24423761.7664    -876309.78445   -245292.94061
 91  5  3 19 49 30.0000000  0  6G18G 2G11G16G19G 6
  21538718.6884    3462728.97747   2681306.25363
  22863361.7894   -5456193.15946  -4179572.36361
  23219228.930    -3001229.519 6  -2291325.47021
  24031976.336    -2187756.095 5  -1598149.14821
  20961787.1484      42725.69247     34735.24362
  24417111.8594    -911235.51745   -272507.73461
 91  5  3 19 49 45.0000000  0  6G18G 2G11G16G19G 6
  21545176.3054    3496655.66447   2707742.56863
  22855697.3054   -5496462.31346  -4210950.86161
  23216121.2344   -3017572.61346  -2304060.28661
  24028995.742    -2203396.380 5  -1610336.37421
  20962361.9144      45754.35747     37095.22762
  24410470.227     -946151.310 5   -299714.78021
 91  5  3 19 50  0.0000000  0  6G18G 2G11G16G19G 6
  21551651.7504    3530681.79247   2734256.36763
  22848046.7114   -5536665.82246  -4242278.21361
  23213036.281    -3033776.390 6  -2316686.54721
  24026045.898    -2218903.869 5  -1622420.12221
  20962949.8134      48833.25547     39494.35962
  24403825.641     -981054.308 5   -326911.87221
 91  5  3 19 50 15.0000000  0  6G18G 2G11G16G19G 6
  21558147.1644    3564804.79047   2760845.64663
  22840408.9384   -5576806.23046  -4273556.38961
  23209980.8364   -3049843.36546  -2329206.20361
  24023120.172    -2234281.261 5  -1634402.46621
  20963542.609       51959.652 7     41930.50022
  24397188.094    -1015947.242 5   -354101.09821
 91  5  3 19 50 30.0000000  0  6G18G 2G11G16G19G 6
  21564656.1254    3599024.33647   2787510.15963
  22832781.9844   -5616883.39146  -4304785.28961
  23206946.8984   -3065773.13346  -2341618.95861
  24020218.4534   -2249528.32645  -1646283.29261
  20964149.5004      55133.74647     44403.80862
  24390553.375    -1050830.040 5   -381282.47321
 91  5  3 19 50 45.0000000  0  6G18G 2G11G16G19G 6
  21571188.2734    3633341.76047   2814250.93863
  22825168.5634   -5656895.69046  -4335963.63661
  23203942.2734   -3081564.12646  -2353923.56461
  24017343.3754   -2264643.44145  -1658061.27361
  20964761.3674      58356.91347     46915.35262
  24383914.727    -1085701.242 5   -408454.75821
 91  5  3 19 51  0.0000000  0  6G18G 2G11G16G19G 6
  21577737.0394    3667755.17347   2841066.51763
  22817565.6804   -5696844.91046  -4367092.84261
  23200964.4614   -3097217.99946  -2366121.32161
  24014492.6804   -2279628.04345  -1669737.60561
  20965383.133       61627.456 7     49463.81422
  24377276.6884   -1120562.77645   -435619.54261
 91  5  3 19 51 15.0000000  0  6G18G 2G11G16G19G 6
  21584304.1564    3702269.16147   2867960.47063
  22809977.4614   -5736726.06646  -4398169.00261
  23198013.2114   -3112729.75446  -2378208.34561
  24011665.1334   -2294477.43545  -1681308.56061
  20966016.523       64950.180 7     52052.93822
  24370646.945    -1155409.899 4   -462773.05621
 91  5  3 19 51 30.0000000  0  6G18G 2G11G16G19G 6
  21590890.9844    3736878.08147   2894928.39063
  22802398.2504   -5776544.41846  -4429196.22661
  23195087.5554   -3128104.42546  -2390188.55061
  24008863.336    -2309196.975 5  -1692778.26821
  20966656.039       68319.807 7     54678.60622
  24364016.797    -1190247.972 4   -489919.55221
 91  5  3 19 51 45.0000000  0  6G18G 2G11G16G19G 6
  21597494.5554    3771584.54747   2921972.31763
  22794834.891    -5816297.099 6  -4460172.27521
  23192186.8984   -3143339.04346  -2402059.62061
  24006088.6564   -2323784.35845  -1704145.05861
  20967308.1174      71739.11547     57342.98862
  24357389.617    -1225074.250 4   -517056.85021
 91  5  3 19 52  0.0000000  0  6G18G 2G11G16G19G 6
  21604117.1484    3806390.48947   2949093.76463
  22787283.2274   -5855982.26946  -4491095.72361
  23189315.9064   -3158431.66846  -2413820.05361
  24003337.9454   -2338237.41245  -1715407.15861
  20967967.461       75209.831 7     60047.42622
  24350765.422    -1259886.941 4   -544183.56521
 91  5  3 19 52 15.0000000  0  6G18G 2G11G16G19G 6
  21610763.8834    3841315.39247   2976307.90363
  22779746.5394   -5895579.66846  -4521950.77661
  23186473.3284   -3173361.93546  -2425453.95861
  24000617.953    -2352535.797 5  -1726548.76021
  20968643.109       78752.093 7     62807.61622
  24344149.0314   -1294666.02444   -571284.05361
 91  5  3 19 52 30.0000000  0  6G18G 2G11G16G19G 6
  21617428.5784    3876335.05947   3003595.88663
  22772224.9534   -5935113.39446  -4552756.21261
  23183661.7344   -3188153.72446  -2436979.97161
  23997923.2504   -2366703.39245  -1737588.42561
  20969326.8054      82341.93647     65604.88462
  24337531.2274   -1329435.68744   -598377.24861
 91  5  3 19 52 45.0000000  0  6G18G 2G11G16G19G 6
  21624110.1484    3911448.40847   3030956.86963
  22764713.2504   -5974584.50946  -4583512.86361
  23180869.336    -3202808.052 6  -2448398.86921
  23995247.9454   -2380741.57045  -1748527.22861
  20970017.336       85978.234 7     68438.34822
  24330915.4614   -1364197.10244   -625463.99661
 91  5  3 19 53  0.0000000  0  6G18G 2G11G16G19G 6
  21630810.7814    3946657.84647   3058392.72763
  22757214.3204   -6013990.10646  -4614218.47061
  23178107.9844   -3217321.96746  -2459708.34961
  23992605.531    -2394647.661 5  -1759363.13621
  20970721.109       89663.654 7     71310.08622
  24324303.203    -1398947.581 4   -652542.20121
 91  5  3 19 53 15.0000000  0  6G18G 2G11G16G19G 6
  21637528.8204    3981963.34447   3085903.43763
  22749727.5394   -6053329.81346  -4644872.71461
  23175372.867    -3231695.148 6  -2470908.17221
  23989981.3674   -2408421.38945  -1770095.91661
  20971428.859       93398.333 7     74220.21522
  24317693.500    -1433687.057 4   -679611.88621
 91  5  3 19 53 30.0000000  0  6G18G 2G11G16G19G 6
  21644265.5554    4017364.16947   3113488.42763
  22742254.9694   -6092604.35546  -4675476.19061
  23172664.445    -3245928.119 6  -2481998.73921
  23987388.875    -2422063.391 5  -1780726.02121
  20972149.602       97181.712 7     77168.28922
  24311087.313    -1468416.253 5   -706673.51921
 91  5  3 19 53 45.0000000  0  6G18G 2G11G16G19G 6
  21651020.664     4052861.216 7   3141148.38923
  22734793.3834   -6131812.75546  -4706028.12861
  23169984.102    -3260019.742 6  -2492979.17221
  23984816.219    -2435572.589 5  -1791252.63821
  20972879.7504     101014.70047     80155.02362
  24304484.000    -1503134.197 5   -733726.39021
 91  5  3 19 54  0.0000000  0  6G18G 2G11G16G19G 6
  21657794.375     4088458.246 7   3168886.25922
  22727345.9844   -6170950.54246  -4736525.04361
  23167329.719    -3273965.539 6  -2503845.98021
  23982270.5864   -2448944.79545  -1801672.54461
  20973620.406      104901.652 7     83183.80022
  24297875.1884   -1537836.66745   -760767.21161
 91  5  3 19 54 15.0000000  0  6G18G 2G11G16G19G 6
  21664585.4774    4124148.67247   3196696.91063
  22719910.6254   -6210023.80246  -4766971.67361
  23164703.2424   -3287771.43246  -2514603.74961
  23979750.9694   -2462185.79245  -1811990.16461
  20974368.078      108836.442 7     86249.85522
  24291274.664    -1572529.869 5   -787800.79121
 91  5  3 19 54 30.0000000  0  6G18G 2G11G16G19G 6
  21671394.0944    4159928.76347   3224577.43363
  22712486.523    -6249036.026 6  -4797370.74121
  23162101.781    -3301440.917 6  -2525255.25121
  23977255.195    -2475299.219 5  -1822208.41521
  20975123.656      112815.336 7     89350.27922
  24284670.852    -1607217.575 5   -814830.09121
 91  5  3 19 54 45.0000000  0  6G18G 2G11G16G19G 6
  21678221.211     4195803.356 7   3252531.58723
  22705073.9534   -6287982.31046  -4827718.43161
  23159526.242    -3314969.180 6  -2535796.70521
  23974785.7424   -2488280.58945  -1832323.72861
  20975891.945      116843.204 7     92488.86422
  24278067.641    -1641895.046 5   -841851.43321
 91  5  3 19 55  0.0000000  0  6G18G 2G11G16G19G 6
  21685067.211     4231772.706 7   3280559.57823
  22697675.883    -6326862.312 6  -4858014.46621
  23156978.094    -3328355.610 6  -2546227.63721
  23972341.3134   -2501129.54345  -1842335.88561
  20976670.2664     120920.55147     95666.00662
  24271474.0784   -1676561.96045   -868864.52961
 91  5  3 19 55 15.0000000  0  6G18G 2G11G16G19G 6
  21691928.914     4267837.437 7   3308661.88922
  22690291.3914   -6365674.90346  -4888257.98361
  23154460.266    -3341598.940 6  -2556547.06121
  23969920.336    -2513844.673 5  -1852243.77221
  20977451.539      125048.338 7     98882.44922
  24264878.8834   -1711217.33345   -895868.63561
 91  5  3 19 55 30.0000000  0  6G18G 2G11G16G19G 6
  21698809.250     4303994.814 7   3336836.39622
  22682917.9454   -6404422.76646  -4918451.05861
  23151967.430    -3354701.835 6  -2566757.06221
  23967525.844    -2526428.939 5  -1862049.64521
  20978247.625      129223.785 7    102136.03022
  24258284.7194   -1745863.91045   -922865.89861
 91  5  3 19 55 45.0000000  0  6G18G 2G11G16G19G 6
  21705709.039     4340245.824 7   3365083.85823
  22675554.3444   -6443104.33746  -4948592.47661
  23149498.594    -3367662.709 6  -2576856.38821
  23965159.328    -2538880.963 5  -1871752.52621
  20979052.242      133448.263 7    105427.81622
  24251699.578    -1780500.439 5   -949855.33921
 91  5  3 19 56  0.0000000  0  6G18G 2G11G16G19G 6
  21712623.102     4376588.247 7   3393402.55323
  22668207.7424   -6481721.69446  -4978683.85961
  23147060.984    -3380483.461 6  -2586846.53821
  23962813.6024   -2551202.87545  -1881353.99361
  20979866.430      137719.693 7    108756.18922
  24245107.6954   -1815129.08444   -976838.60161
 91  5  3 19 56 15.0000000  0  6G18G 2G11G16G19G 6
  21719558.406     4413025.908 7   3421795.45923
  22660870.6724   -6520270.75546  -5008722.01861
  23144646.836    -3393159.956 6  -2596724.27321
  23960491.516    -2563390.377 5  -1890850.71521
  20980687.6094     142042.19147    112124.35862
  24238518.5704   -1849745.69344  -1003812.52461
 91  5  3 19 56 30.0000000  0  6G18G 2G11G16G19G 6
  21726510.813     4449555.064 7   3450259.65822
  22653547.9924   -6558754.91046  -5038709.60461
  23142261.195    -3405695.496 6  -2606492.18421
  23958198.0944   -2575447.23045  -1900245.66761
  20981521.4384     146412.45147    115529.74662
  24231933.7584   -1884354.04244  -1030779.99161
 91  5  3 19 56 45.0000000  0  6G18G 2G11G16G19G 6
  21733478.773     4486178.908 7   3478797.64122
  22646239.4304   -6597170.82846  -5068644.02361
  23139903.7664   -3418086.57746  -2616147.53061
  23955927.602    -2587369.828 5  -1909535.98621
  20982359.1414     150833.78047    118974.92462
  24225348.0864   -1918950.62744  -1057738.31061
 91  5  3 19 57  0.0000000  0  6G18G 2G11G16G19G 6
  21740466.922     4522897.902 7   3507409.77022
  22638943.0314   -6635517.57146  -5098524.54161
  23137573.852    -3430332.237 6  -2625689.56021
  23953682.8204   -2599157.32945  -1918721.04261
  20983213.1414     155306.80646    122460.39162
  24218769.5704   -1953534.85545  -1084686.96461
 91  5  3 19 57 15.0000000  0  6G18G 2G11G16G19G 6
  21747470.727     4559710.770 7   3536095.04122
  22631657.0864   -6673796.24246  -5128352.00461
  23135271.6254   -3442433.62446  -2635119.17261
  23951469.6644   -2610811.13845  -1927801.91761
  20984071.4844     159830.35747    125985.22762
  24212194.977    -1988107.897 5  -1111626.93321
 91  5  3 19 57 30.0000000  0  6G18G 2G11G16G19G 6
  21754493.266     4596612.958 7   3564849.91522
  22624386.1094   -6712011.19846  -5158129.83161
  23132994.5634   -3454394.88146  -2644439.58761
  23949276.1024   -2622335.34045  -1936781.80261
  20984944.8444     164400.19647    129546.13362
  24205610.297    -2022674.283 4  -1138561.68821
 91  5  3 19 57 45.0000000  0  6G18G 2G11G16G19G 6
  21761533.336     4633605.836 7   3593675.45322
  22617124.5474   -6750160.86546  -5187856.77761
  23130746.703    -3466214.419 6  -2653649.58021
  23947109.445    -2633728.480 5  -1945659.55521
  20985819.6724     169017.72247    133144.19762
  24199037.656    -2057232.473 4  -1165490.07021
 91  5  3 19 58  0.0000000  0  6G18G 2G11G16G19G 6
  21768589.117     4670686.129 7   3622569.11322
  22609878.4694   -6788247.84746  -5217534.88461
  23128523.4144   -3477894.83446  -2662751.16761
  23944966.977    -2644993.417 5  -1954437.42321
  20986707.7734     173680.35947    136777.41362
  24192464.953    -2091785.379 5  -1192414.30421
 91  5  3 19 58 15.0000000  0  6G18G 2G11G16G19G 6
  21775663.516     4707858.973 7   3651534.88422
  22602643.4924   -6826266.80246  -5247159.98061
  23126327.3204   -3489430.60946  -2671740.04561
  23942846.242    -2656125.009 5  -1963111.37121
  20987604.2894     178393.36847    140449.87962
  24185885.992    -2126327.641 5  -1219330.28321
 91  5  3 19 58 30.0000000  0  6G18G 2G11G16G19G 6
  21782755.250     4745125.752 7   3680573.85522
  22595420.0704   -6864216.05146  -5276730.75761
  23124161.4454   -3500820.08846  -2680614.93461
  23940751.4614   -2667121.42645  -1971680.01361
  20988511.4224     183158.31747    144162.82162
  24179316.461    -2160857.793 5  -1246236.80721
 91  5  3 19 58 45.0000000  0  6G18G 2G11G16G19G 6
  21789864.047     4782481.064 7   3709681.81522
  22588211.9384   -6902100.83846  -5306251.30661
  23122018.984    -3512068.523 6  -2689379.90521
  23938686.086    -2677988.138 5  -1980147.54621
  20989425.7974     187969.77947    147912.00362
  24172747.375    -2195381.265 5  -1273138.13321
 91  5  3 19 59  0.0000000  0  6G18G 2G11G16G19G 6
  21796989.844     4819925.728 7   3738859.39922
  22581015.2034   -6939920.07446  -5335720.77561
  23119908.0004   -3523174.66346  -2698034.01261
  23936643.2664   -2688724.09445  -1988513.23061
  20990356.3754     192828.91046    151698.33162
  24166174.9924   -2229897.00244  -1300033.44161
 91  5  3 19 59 15.0000000  0  6G18G 2G11G16G19G 6
  21804131.352     4857460.620 7   3768107.28822
  22573830.6724   -6977672.72946  -5365138.36061
  23117819.5234   -3534137.35846  -2706576.33761
  23934626.5864   -2699328.04345  -1996776.04061
  20991284.9064     197736.78247    155522.63862
  24159613.875    -2264404.143 5  -1326922.00621
 91  5  3 19 59 30.0000000  0  6G18G 2G11G16G19G 6
  21811291.703     4895083.866 7   3797424.02322
  22566659.4224   -7015360.13646  -5394505.10761
  23115759.6884   -3544958.01046  -2715007.98061
  23932631.4384   -2709801.38045  -2004937.05361
  20992228.8524     202691.83147    159383.71062
  24153050.273    -2298904.188 5  -1353805.08121
 91  5  3 19 59 45.0000000  0  6G18G 2G11G16G19G 6
  21818467.953     4932800.384 7   3826813.43822
  22559499.9614   -7052977.11846  -5423816.97961
  23113730.2584   -3555631.12646  -2723324.65961
  23930661.6804   -2720139.16045  -2012992.45261
  20993181.1644     207699.24547    163285.58662
  24146483.6484   -2333391.96545  -1380678.57661
 91  5  3 20  0  0.0000000  0  6G18G 2G11G16G19G 6
  21825663.148     4970606.308 7   3856272.51922
  22552355.1414   -7090527.36546  -5453076.84761
  23111726.9304   -3566160.49346  -2731529.33161
  23928723.1564   -2730345.30945  -2020945.28261
  20994144.3444     212755.26547    167225.33362
  24139926.2344   -2367871.37445  -1407545.56861
 91  5  3 20  0 15.0000000  0  6G18G 2G11G16G19G 6
  21832874.117     5008502.165 7   3885801.67922
  22545222.6484   -7128009.81946  -5482283.88561
  23109749.1334   -3576544.97446  -2739621.10361
  23926804.648    -2740418.642 5  -2028794.60521
  20995115.4454     217861.07347    171203.88162
  24133361.852    -2402341.408 5  -1434405.24621
 91  5  3 20  0 30.0000000  0  6G18G 2G11G16G19G 6
  21840101.992     5046483.514 7   3915397.45822
  22538102.8364   -7165429.03546  -5511441.65061
  23107800.672    -3586788.987 6  -2747603.42921
  23924912.2424   -2750363.82345  -2036544.07861
  20996095.0784     223012.02747    175217.60462
  24126803.9614   -2436806.67345  -1461261.17761
 91  5  3 20  0 45.0000000  0  6G18G 2G11G16G19G 6
  21847346.648     5084555.054 7   3945063.51122
  22530994.4384   -7202779.88046  -5540546.14761
  23105879.727    -3596887.443 6  -2755472.32721
  23923047.844    -2760176.065 5  -2044189.98021
  20997086.2344     228213.19147    179270.44962
  24120251.7194   -2471262.27645  -1488109.64061
 91  5  3 20  1  0.0000000  0  6G18G 2G11G16G19G 6
  21854609.055     5122719.306 7   3974801.80722
  22523898.5704   -7240059.60646  -5569595.21461
  23103987.117    -3606837.493 6  -2763225.59221
  23921205.172    -2769852.560 5  -2051730.07721
  20998086.0234     233467.31847    183364.56562
  24113692.2034   -2505705.54045  -1514948.43261
 91  5  3 20  1 15.0000000  0  6G18G 2G11G16G19G 6
  21861888.672     5160972.202 7   4004609.18222
  22516818.9614   -7277271.88646  -5598591.73161
  23102120.805    -3616642.887 6  -2770866.13121
  23919387.9614   -2779396.82845  -2059167.14361
  20999093.0864     238770.59647    187496.98562
  24107141.352    -2540140.320 5  -1541780.65021
 91  5  3 20  1 30.0000000  0  6G18G 2G11G16G19G 6
  21869183.391     5199315.169 7   4034486.73822
  22509750.4224   -7314415.07846  -5627534.41261
  23100281.617    -3626301.891 6  -2778392.61021
  23917595.4924   -2788807.56245  -2066500.19161
  21000114.9224     244124.56747    191668.89962
  24100590.625    -2574565.120 5  -1568605.07421
 91  5  3 20  1 45.0000000  0  6G18G 2G11G16G19G 6
  21876497.781     5237748.278 7   4064434.53422
  22502694.3594   -7351488.54746  -5656422.76961
  23098470.500    -3635813.785 6  -2785804.45321
  23915832.555    -2798084.136 5  -2073728.67121
  21001141.3914     249529.83347    195880.78762
  24094039.2664   -2608979.38245  -1595421.30461
 91  5  3 20  2  0.0000000  0  6G18G 2G11G16G19G 6
  21883829.891     5276271.384 7   4094452.45622
  22495655.0944   -7388492.35846  -5685256.84361
  23096690.539    -3645178.697 6  -2793101.76921
  23914096.3754   -2807226.33345  -2080852.45261
  21002179.8204     254986.29747    200132.56762
  24087495.2114   -2643383.40345  -1622229.53261
 91  5  3 20  2 15.0000000  0  6G18G 2G11G16G19G 6
  21891177.078     5314883.363 7   4124539.63322
  22488626.3674   -7425427.39846  -5714037.33161
  23094936.555    -3654397.158 6  -2800284.96921
  23912379.0784   -2816235.53445  -2087872.59461
  21003227.9614     260493.15147    204423.61562
  24080947.148    -2677777.979 5  -1649030.43321
 91  5  3 20  2 30.0000000  0  6G18G 2G11G16G19G 6
  21898541.109     5353579.090 7   4154692.06622
  22481610.2034   -7462298.41846  -5742767.93161
  23093208.016    -3663474.044 6  -2807357.86121
  23910685.3594   -2825116.66745  -2094792.96161
  21004285.961      266045.496 7    208750.10622
  24074404.211    -2712168.109 5  -1675827.82021
 91  5  3 20  2 45.0000000  0  6G18G 2G11G16G19G 6
  21905920.828     5392367.023 7   4184916.34822
  22474607.3284   -7499096.62046  -5771441.79461
  23091509.125    -3672400.537 6  -2814313.55021
  23909023.6174   -2833861.09645  -2101606.77961
  21005350.8834     271651.89647    213118.71862
  24067862.844    -2746545.099 5  -1702615.02721
 91  5  3 20  3  0.0000000  0  6G18G 2G11G16G19G 6
  21913319.336     5431239.351 7   4215206.39022
  22467615.8444   -7535829.78246  -5800064.97461
  23089838.414    -3681184.158 6  -2821157.91821
  23907384.9384   -2842476.49245  -2108320.04461
  21006427.9924     277304.90346    217523.65362
  24061321.750    -2780916.744 5  -1729398.03821
 91  5  3 20  3 15.0000000  0  6G18G 2G11G16G19G 6
  21920733.836     5470198.665 7   4245564.21622
  22460640.1414   -7572494.98546  -5828635.20361
  23088193.7504   -3689822.01446  -2827888.70461
  23905769.2734   -2850959.63045  -2114930.27961
  21007511.570      283007.429 7    221967.16822
  24054780.055    -2815280.127 5  -1756174.63621
 91  5  3 20  3 30.0000000  0  6G18G 2G11G16G19G 6
  21928164.391     5509247.512 7   4275991.80622
  22453676.5634   -7609089.21646  -5857150.12561
  23086578.000    -3698311.169 6  -2834503.62221
  23904182.969    -2859307.848 5  -2121435.37321
  21008605.8054     288762.17946    226451.38062
  24048246.3284   -2849632.59545  -1782942.69761
 91  5  3 20  3 45.0000000  0  6G18G 2G11G16G19G 6
  21935611.695     5548384.448 7   4306488.03422
  22446724.8984   -7645613.54846  -5885610.58161
  23084991.070    -3706652.589 6  -2841003.41521
  23902618.664    -2867522.409 5  -2127836.32321
  21009712.0234     294568.16447    230975.51562
  24041713.6884   -2883975.27345  -1809703.16261
 91  5  3 20  4  0.0000000  0  6G18G 2G11G16G19G 6
  21943075.547     5587605.969 7   4337050.17722
  22439788.5634   -7682071.38246  -5914019.22361
  23083431.4224   -3714849.53846  -2847390.63761
  23901079.336    -2875606.345 5  -2134135.46621
  21010825.938      300421.910 7    235536.86022
  24035173.430    -2918311.621 5  -1836458.66221
 91  5  3 20  4 15.0000000  0  6G18G 2G11G16G19G 6
  21950555.195     5626913.677 7   4367679.47822
  22432862.2894   -7718460.75246  -5942374.51561
  23081898.664    -3722900.276 6
  23899564.078    -2883558.463 5
  21011950.3284     306325.19947    240136.82062
  24028643.102    -2952639.889 5  -1863207.87121
 91  5  3 20  4 30.0000000  0  6G18G 2G11G16G19G 6
  21958052.891     5666309.683 7   4398377.58222
  22425951.2424   -7754779.26946  -5970674.60261
  23080394.773    -3730802.285 6
  23898080.633    -2891376.431 5
  21013083.6174     312280.56947    244777.35262
  24022112.3834   -2986957.71545  -1889948.98061
 91  5  3 20  4 45.0000000  0  6G18G 2G11G16G19G 6
  21965565.547     5705792.576 7   4429143.38822
  22419053.0784   -7791028.29046  -5998920.53261
  23078918.648    -3738556.708 6
  23896617.492    -2899061.173 5
  21014226.469      318286.616 7    249457.37522
  24015582.3754   -3021266.51445  -1916683.00961
 91  5  3 20  5  0.0000000  0  6G18G 2G11G16G19G 6
  21973094.4224    5745361.50547   4459976.23262
  22412169.141    -7827208.119 6  -6027112.54721
  23077471.711    -3746163.702 6
  23895178.031    -2906613.284 5
  21015377.8984     324343.07547    254176.68262
  24009054.5474   -3055566.56245  -1943410.24761
 91  5  3 20  5 15.0000000  0  6G18G 2G11G16G19G 6
  21980640.578     5785018.709 7   4490877.86322
  22405296.5634   -7863316.18346  -6055248.64061
  23076052.984    -3753620.931 6
  23893772.273    -2914030.435 5
  21016541.609      330452.440 7    258937.21022
  24002533.1094   -3089855.68745  -1970128.95061
 91  5  3 20  5 30.0000000  0  6G18G 2G11G16G19G 6
  21988205.2274    5824762.15947   4521846.69462
  22398439.992    -7899354.452 6  -6083330.35321
  23074662.133    -3760930.194 6
  23892381.195    -2921314.753 5
  21017714.781      336612.512 6    263737.25722
  23996010.4614   -3124135.88545  -1996840.70561
 91  5  3 20  5 45.0000000  0  6G18G 2G11G16G19G 6
  21995785.398     5864594.384 7   4552884.71022
  22391595.9144   -7935319.79747  -6111355.23661
  23073301.0784   -3768088.48546
  23891019.359    -2928463.004 5
  21018895.4924     342826.33546    268579.18062
  23989492.1564   -3158404.19145  -2023543.20661
 91  5  3 20  6  0.0000000  0  6G18G 2G11G16G19G 6
  22003379.9304    5904509.26447   4583987.12462
  22384765.0394   -7971218.21147  -6139327.97161
  23071965.9304   -3775101.61446
  23889685.797    -2935481.561 5
  21020085.578      349088.039 7    273458.42122
  23982965.9224   -3192666.61945  -2050241.11961
 91  5  3 20  6 15.0000000  0  6G18G 2G11G16G19G 6
  22010991.4064    5944507.57347   4615154.55662
  22377944.789    -8007048.596 7  -6167247.69221
  23070658.672    -3781968.468 6
  23888374.398    -2942368.941 5
  21021287.9224     355398.70847    278375.81162
  23976453.328    -3226922.194 5  -2076933.66721
 91  5  3 20  6 30.0000000  0  6G18G 2G11G16G19G 6
  22018619.8594    5984591.74047   4646388.88362
  22371141.1414   -8042808.37546  -6195112.39861
  23069381.734    -3788686.319 6
  23887089.828    -2949122.903 5
  21022499.9224     361760.95647    283333.39762
  23969934.398    -3261168.340 5  -2103618.90321
 91  5  3 20  6 45.0000000  0  6G18G 2G11G16G19G 6
  22026263.1724    6024762.11647   4677690.38562
  22364349.7034   -8078496.77047  -6222921.47861
  23068131.000    -3795254.510 6
  23885832.344    -2955742.828 5
  21023718.4694     368175.49047    288331.72562
  23963418.406    -3295404.462 5  -2130296.30221
 91  5  3 20  7  0.0000000  0  6G18G 2G11G16G19G 6
  22033923.3834    6065015.98747   4709056.94462
  22357571.2814   -8114116.06847  -6250676.71661
  23066909.039    -3801675.374 6
  23884598.047    -2962231.219 5
  21024949.539      374639.752 7    293368.80122
  23956901.523    -3329633.127 5  -2156967.89621
 91  5  3 20  7 15.0000000  0  6G18G 2G11G16G19G 6
  22041599.2664    6105352.55347   4740487.94962
  22350806.430    -8149667.000 7  -6278378.68321
  23065716.852    -3807949.453 6
  23883383.266    -2968588.759 5
  21026188.5084     381153.23647    298444.23462
  23950390.1024   -3363854.89945  -2183634.11261
 91  5  3 20  7 30.0000000  0  6G18G 2G11G16G19G 6
  22049292.4144    6145774.56447   4771985.53262
  22344055.9144   -8185146.69347  -6306025.13861
  23064549.078    -3814073.971 6  -2924708.14821
  23882199.2344   -2974812.69345  -2167032.42161
  21027440.4304     387718.83746    303560.27662
  23943882.0864   -3398067.13545  -2210292.91361
 91  5  3 20  7 45.0000000  0  6G18G 2G11G16G19G 6
  22056999.4064    6186278.14747   4803546.67362
  22337316.5784   -8220558.22047  -6333618.47762
  23063411.953    -3820051.952 6  -2929366.29821
  23881043.2894   -2980906.14145  -2171780.55161
  21028697.0164     394333.29347    308714.38762
  23937374.242    -3432272.958 5  -2236946.70421
 91  5  3 20  8  0.0000000  0  6G18G 2G11G16G19G 6
  22064722.414     6226864.909 7   4835172.63522
  22330590.3364   -8255899.90246  -6361157.39462
  23062303.547    -3825881.479 6  -2933908.76821
  23879906.5314   -2986867.37345  -2176425.63961
  21029965.7274     400998.50047    313908.04062
  23930863.3204   -3466470.72345  -2263594.22361
 91  5  3 20  8 15.0000000  0  6G18G 2G11G16G19G 6
  22072461.4774    6267536.36647   4866864.59562
  22323879.0554   -8291170.22046  -6388640.70162
  23061220.2814   -3831561.20546  -2938334.50661
  23878795.727    -2992695.190 5  -2180966.79321
  21031244.281      407715.776 7    319142.27022
  23924361.5394   -3500659.09745  -2290234.42161
 91  5  3 20  8 30.0000000  0  6G18G 2G11G16G19G 6
  22080217.7504    6308290.44347   4898620.93262
  22317178.3524   -8326370.68947  -6416069.57961
  23060171.188    -3837092.751 6  -2942644.78221
  23877719.2424   -2998391.29945  -2185405.30061
  21032534.0704     414483.47446    324415.79662
  23917851.8834   -3534839.81145  -2316868.65061
 91  5  3 20  8 45.0000000  0  6G18G 2G11G16G19G 6
  22087987.5314    6349125.83347   4930440.62662
  22310495.8524   -8361502.39147  -6443444.87661
  23059146.906    -3842476.966 6  -2946840.24921
  23876651.1254   -3003956.77845  -2189742.04161
  21033828.4844     421300.71447    329727.91962
  23911351.4384   -3569013.85245  -2343497.67361
 91  5  3 20  9  0.0000000  0  6G18G 2G11G16G19G 6
  22095774.6644    6390043.88547   4962324.72662
  22303821.6174   -8396563.72446  -6470765.32962
  23058148.453    -3847712.330 6  -2950919.72921
  23875619.719    -3009390.298 5  -2193975.93921
  21035138.2664     428169.00846    335079.82962
  23904847.336    -3603179.754 5  -2370120.35421
 91  5  3 20  9 15.0000000  0  6G18G 2G11G16G19G 6
  22103578.9144    6431044.53347   4994273.19162
  22297163.2274   -8431554.36047  -6498030.69962
  23057180.281    -3852798.508 6  -2954882.96321
  23874609.523    -3014691.249 5  -2198106.52321
  21036453.1094     435088.60047    340471.70762
  23898350.844    -3637337.283 5  -2396736.52921
 91  5  3 20  9 30.0000000  0  6G18G 2G11G16G19G 6
  22111395.3444    6472126.73847   5026285.20462
  22290518.5394   -8466475.28147  -6525241.74962
  23056240.4694   -3857736.39246  -2958730.63961
  23873631.2114   -3019860.84045  -2202134.77561
  21037780.2584     442058.50646    345902.79262
  23891849.7974   -3671487.51445  -2423346.99461
 91  5  3 20  9 45.0000000  0  6G18G 2G11G16G19G 6
  22119228.7814    6513291.98947   5058361.92862
  22283888.3364   -8501324.32047  -6552396.78862
  23055330.563    -3862523.834 6  -2962461.09721
  23872668.6564   -3024897.32145  -2206059.29161
  21039115.2504     449080.92047    351374.79762
  23885349.008    -3705628.459 5  -2449950.23621
 91  5  3 20 10  0.0000000  0  6G18G 2G11G16G19G 6
  22127079.7114    6554542.88446   5090505.39362
  22277270.1094   -8536098.94447  -6579493.83762
  23054447.3364   -3867158.14046  -2966072.22261
  23871740.8984   -3029797.86845  -2209877.89961
  21040464.9614     456158.44346    356889.74062
  23878860.625    -3739757.540 5  -2476544.24521
 91  5  3 20 10 15.0000000  0  6G18G 2G11G16G19G 6
  22134942.6564    6595872.47446   5122710.17062
  22270666.4774   -8570805.51647  -6606537.86061
  23053594.875    -3871645.850 6  -2969569.11921
  23870831.8754   -3034569.12145  -2213595.73861
  21041818.1804     463284.43947    362442.45562
  23872362.125    -3773881.410 5  -2503134.17021
 91  5  3 20 10 30.0000000  0  6G18G 2G11G16G19G 6
  22142823.2504    6637283.90646   5154978.72662
  22264075.8054   -8605440.65947  -6633526.22462
  23052768.633    -3875983.614 6  -2972949.17021
  23869945.7274   -3039207.90745  -2217210.37661
  21043184.7504     470462.26547    368035.55962
  23865873.039    -3807996.684 5  -2529717.40721
 91  5  3 20 10 45.0000000  0  6G18G 2G11G16G19G 6
  22150718.7344    6678774.98347   5187309.33262
  22257498.1024   -8640006.40747  -6660460.51162
  23051971.6094   -3880173.24246  -2976213.78661
  23869089.5554   -3043716.48445  -2220723.54661
  21044559.4614     477689.88847    373667.46462
  23859386.359    -3842105.437 5  -2556295.56921
 91  5  3 20 11  0.0000000  0  6G18G 2G11G16G19G 6
  22158627.8754    6720343.02347   5219699.91262
  22250933.0704   -8674505.02647  -6687342.49662
  23051201.406    -3884216.998 6  -2979364.74821
  23868256.914    -3048096.999 5  -2224136.92621
  21045944.1644     484965.23847    379336.56362
  23852893.6564   -3876209.92045  -2582870.39861
 91  5  3 20 11 15.0000000  0  6G18G 2G11G16G19G 6
  22166555.3444    6761993.98247   5252155.11162
  22244383.1644   -8708930.31547  -6714167.33662
  23050461.703    -3888108.849 6  -2982397.34121
  23867444.695    -3052343.416 5  -2227445.82721
  21047339.0314     492294.42847    385047.61262
  23846407.414    -3910304.187 5  -2609437.27921
 91  5  3 20 11 30.0000000  0  6G18G 2G11G16G19G 6
  22174496.5704    6803722.37747   5284670.63761
  22237844.2504   -8743287.48947  -6740939.10562
  23049749.094    -3891853.991 6  -2985315.60921
  23866662.3284   -3056461.12045  -2230654.39561
  21048747.0164     499672.22346    390796.53562
  23839916.8834   -3944393.58445  -2636000.35561
 91  5  3 20 11 45.0000000  0  6G18G 2G11G16G19G 6
  22182453.703     6845530.891 7   5317248.60422
  22231319.2974   -8777573.38647  -6767655.32562
  23049062.844    -3895449.224 6  -2988117.06321
  23865906.0944   -3060447.04945  -2233760.33261
  21050156.8914     507101.77847    396585.78962
  23833432.6644   -3978474.89845  -2662557.13261
 91  5  3 20 12  0.0000000  0  6G18G 2G11G16G19G 6
  22190423.508     6887421.838 7   5349890.79921
  22224808.3054   -8811785.83147  -6794314.31262
  23048409.3594   -3898892.35946  -2990800.00161
  23865170.7274   -3064299.13345  -2236761.95461
  21051579.7664     514585.38347    402417.15762
  23826948.1724   -4012546.08245  -2689106.02061
 91  5  3 20 12 15.0000000  0  6G18G 2G11G16G19G 6
  22198411.063     6929390.130 7   5382593.26222
  22218310.6254   -8845929.55647
  23047782.898    -3902188.093 6  -2993368.08421
  23864463.1954   -3068022.03745  -2239662.93161
  21053013.805      522118.150 7    408286.83722
  23820462.4224   -4046611.89945
 91  5  3 20 12 30.0000000  0  6G18G 2G11G16G19G 6
  22206411.609     6971437.422 7   5415357.27821
  22211827.2504   -8880002.38447
  23047182.844    -3905334.148 6  -2995819.53121
  23863778.820    -3071613.871 5  -2242461.74421
  21054457.6024     529702.09247    414196.39362
  23813985.8524   -4080670.29545
 91  5  3 20 12 45.0000000  0  6G18G 2G11G16G19G 6
  22214427.852     7013561.611 7   5448181.21321
  22205355.8204   -8914006.45347
  23046613.367    -3908332.674 6  -2998156.03221
  23863121.6564   -3075076.77545  -2245160.11361
  21055910.6174     537335.23347    420144.28262
  23807505.3284   -4114723.48245
 91  5  3 20 13  0.0000000  0  6G18G 2G11G16G19G 6
  22222458.102     7055760.327 7   5481063.22321
  22198898.2424   -8947943.28247  -6900410.78962
  23046069.906    -3911185.385 6  -3000378.90321
  23862482.3054   -3078412.77045  -2247759.59361
  21057370.9844     545015.85747    426129.17462
  23801022.6414   -4148773.12445  -2795256.65061
 91  5  3 20 13 15.0000000  0  6G18G 2G11G16G19G 6
  22230503.734     7098034.124 7   5514003.73621
  22192453.2114   -8981812.43347  -6926802.27262
  23045554.023    -3913891.817 6  -3002487.79521
  23861876.5554   -3081621.61945  -2250259.98661
  21058842.9844     552744.39147    432151.40062
  23794546.664    -4182818.988 5  -2821785.83521
 91  5  3 20 13 30.0000000  0  6G18G 2G11G16G19G 6
  22238562.875     7140383.971 7   5547003.51121
  22186021.7894   -9015612.39647  -6953139.84562
  23045068.047    -3916450.361 6  -3004481.44421
  23861287.0164   -3084701.67245  -2252660.03261
  21060323.047      560522.559 7    438212.29522
  23788067.477    -4216859.547 5  -2848310.85521
 91  5  3 20 13 45.0000000  0  6G18G 2G11G16G19G 6
  22246635.930     7182810.448 7   5580062.99621
  22179602.4694   -9049342.44247  -6979422.93562
  23044609.164    -3918860.097 6  -3006359.14221
  23860731.6804   -3087652.05845  -2254959.05161
  21061811.352      568351.233 7    444312.54822
  23781594.4924   -4250893.93245  -2874831.09261
 91  5  3 20 14  0.0000000  0  6G18G 2G11G16G19G 6
  22254723.1724    7225317.61147   5613185.34461
  22173198.9924   -9082998.29047  -7005648.20462
  23044180.109    -3921117.028 6  -3008117.77221
  23860196.570    -3090468.758 5  -2257153.86221
  21063311.602      576234.407 7    450455.26622
  23775122.2034   -4284918.19745  -2901343.42061
 91  5  3 20 14 15.0000000  0  6G18G 2G11G16G19G 6
  22262828.117     7267904.118 7   5646369.53122
  22166808.5084   -9116581.01147  -7031816.49462
  23043777.445    -3923222.012 6  -3009757.99521
  23859685.0634   -3093152.86045  -2259245.39061
  21064821.711      584171.140 7    456639.72022
  23768643.3444   -4318933.20545  -2927848.54361
 91  5  3 20 14 30.0000000  0  6G18G 2G11G16G19G 6
  22270946.289     7310569.180 6   5679614.92121
  22160431.1024   -9150090.96847  -7057928.08462
  23043407.945    -3925175.623 6  -3011280.26821
  23859197.3444   -3095705.12845  -2261234.14461
  21066342.500      592160.896 7    462865.48522
  23762171.164    -4352939.648 5  -2954347.01821
 91  5  3 20 14 45.0000000  0  6G18G 2G11G16G19G 6
  22279080.578     7353311.413 7   5712920.44621
  22154067.852    -9183529.301 7  -7083983.86122
  23043064.328    -3926978.850 6  -3012685.35621
  23858733.6334   -3098126.62745  -2263121.03861
  21067872.2894     600202.45347    469131.62262
  23755702.3284   -4386938.60345  -2980839.63261
 91  5  3 20 15  0.0000000  0  6G18G 2G11G16G19G 6
  22287229.023     7396123.730 6   5746280.58022
  22147717.3524   -9216902.80347  -7109989.12062
  23042747.789    -3928638.630 6  -3013978.67721
  23858295.6484   -3100424.42145  -2264911.53561
  21069412.492      608289.112 6    475432.90022
  23749233.789    -4420937.089 5  -3007331.90721
 91  5  3 20 15 15.0000000  0  6G18G 2G11G16G19G 6
  22295389.2504    7439014.84846   5779702.11961
  22141380.0314   -9250202.48647  -7135936.86062
  23042461.914    -3930145.952 6  -3015153.19321
  23857892.8444   -3102589.44045  -2266598.56961
  21070962.211      616430.054 6    481776.47122
  23742764.742    -4454926.047 5  -3033816.74421
 91  5  3 20 15 30.0000000  0  6G18G 2G11G16G19G 6
  22303565.3204    7481980.82846   5813181.99261
  22135056.7034   -9283432.10747  -7161830.00462
  23042204.508    -3931504.414 6  -3016211.70721
  23857498.9614   -3104625.72445  -2268185.27761
  21072519.898      624621.519 6    488159.41722
  23736299.688    -4488909.143 5  -3060297.02421
 91  5  3 20 15 45.0000000  0  6G18G 2G11G16G19G 6
  22311755.148     7525016.221 6   5846715.94921
  22128746.0944   -9316596.78247  -7187672.54362
  23041972.430    -3932719.387 6  -3017158.41921
  23857133.3984   -3106538.70345  -2269675.90261
  21074087.789      632858.187 6    494577.58422
  23729829.8914   -4522891.99445  -3086777.09861
 91  5  3 20 16  0.0000000  0  6G18G 2G11G16G19G 6
  22319958.484     7568125.350 6   5880307.35921
  22122449.0784   -9349691.78947  -7213460.79562
  23041769.047    -3933786.167 6  -3017989.65821
  23856796.7114   -3108323.22445  -2271066.44161
  21075663.094      641145.009 6    501034.83322
  23723364.250    -4556869.640 5  -3113253.13721
 91  5  3 20 16 15.0000000  0  6G18G 2G11G16G19G 6
  22328176.742     7611309.849 6   5913957.50321
  22116162.6564   -9382715.16047  -7239193.22662
  23041594.125    -3934702.746 6  -3018703.85421
  23856477.2194   -3109977.92745  -2272355.81761
  21077251.969      649483.822 6    507532.59222
  23716900.313    -4590840.265 5  -3139723.68621
 91  5  3 20 16 30.0000000  0  6G18G 2G11G16G19G 6
  22336409.000     7654568.080 6   5947665.10521
  22109892.1644   -9415668.30447  -7264870.93462
  23041447.313    -3935470.413 6  -3019302.01621
  23856195.4144   -3111504.42645  -2273545.30361
  21078845.852      657873.141 6    514069.70522
  23710437.250    -4624805.439 5  -3166190.01221
 91  5  3 20 16 45.0000000  0  6G18G 2G11G16G19G 6
  22344654.047     7697897.916 6   5981428.49921
  22103634.8134   -9448552.94147  -7290495.26762
  23041329.922    -3936091.039 6  -3019785.58921
  23855920.211    -3112904.629 5  -2274636.36521
  21080452.828      666311.153 6    520644.76322
  23703974.3284   -4658766.96645  -3192653.47661
 91  5  3 20 17  0.0000000  0  6G18G 2G11G16G19G 6
  22352912.4844    7741298.74146   6015247.20561
  22097390.6414   -9481369.51847  -7316066.56162
  23041238.930    -3936565.066 6  -3020154.94321
  23855679.7114   -3114178.86945  -2275629.29361
  21082068.656      674797.558 6    527257.52922
  23697513.4774   -4692725.22745  -3219114.40961
 91  5  3 20 17 15.0000000  0  6G18G 2G11G16G19G 6
  22361187.0944    7784775.50146   6049125.08761
  22091160.0164   -9514112.99647  -7341580.90362
  23041181.1644   -3936887.55246  -3020406.20661
  23855468.484    -3115322.280 5  -2276520.27321
  21083692.063      683337.281 6    533911.83922
  23691050.6414   -4726675.29245  -3245568.94061
 91  5  3 20 17 30.0000000  0  6G18G 2G11G16G19G 6
  22369475.039     7828322.843 6   6083057.95721
  22084940.977    -9546788.339 7  -7367042.15022
  23041144.938    -3937063.308 6
  23855269.8834   -3116339.92645  -2277313.24361
  21085327.461      691925.540 6    540603.97322
  23684594.266    -4760622.005 5  -3272020.88521
 91  5  3 20 17 45.0000000  0  6G18G 2G11G16G19G 6
  22377773.9064    7871940.36646   6117045.52361
  22078735.5554   -9579395.40947  -7392450.20462
  23041142.313    -3937092.306 6
  23855100.9304   -3117231.84645  -2278008.24761
  21086971.000      700562.380 6    547333.96022
  23678134.4614   -4794565.53645  -3298470.33761
 91  5  3 20 18  0.0000000  0  6G18G 2G11G16G19G 6
  22386087.3054    7915631.59546   6151090.51461
  22072545.6484   -9611930.57047  -7417802.22362
  23041161.836    -3936971.060 6
  23854959.6804   -3117994.79345  -2278602.76061
  21088627.875      709251.254 6    554104.49322
  23671676.8134   -4828502.36145  -3324914.56761
 91  5  3 20 18 15.0000000  0  6G18G 2G11G16G19G 6
  22394415.3204    7959394.43246   6185191.30661
  22066368.2584   -9644395.62147  -7443099.60662
  23041217.4694   -3936701.22546
  23854836.859    -3118630.441 5  -2279098.07121
  21090286.211      717990.550 6    560914.31922
  23665220.789    -4862434.214 5  -3351354.93021
 91  5  3 20 18 30.0000000  0  6G18G 2G11G16G19G 6
  22402757.5554    8003229.43446   6219348.33261
  22060203.531    -9676789.528 7  -7468341.55322
  23041293.805    -3936281.692 6  -3019934.02021
  23854738.148    -3119137.950 5  -2279493.54421
  21091960.195      726781.318 6    567764.25422
  23658760.4304   -4896360.16945  -3377790.68561
 91  5  3 20 18 45.0000000  0  6G18G 2G11G16G19G 6
  22411111.7814    8047137.99546   6253562.67461
  22054052.234    -9709110.874 7  -7493526.96822
  23041403.523    -3935711.145 6  -3019489.41821
  23854666.453    -3119515.925 5  -2279788.08621
  21093643.422      735625.036 6    574655.44422
  23652307.7194   -4930278.67245  -3404220.62761
 91  5  3 20 19  0.0000000  0  6G18G 2G11G16G19G 6
  22419481.0944    8091113.24146   6287828.98061
  22047913.523    -9741366.255 7  -7518660.97022
  23041538.469    -3934996.198 6  -3018932.30021
  23854613.7894   -3119771.25545  -2279987.06061
  21095336.305      744515.148 6    581582.78922
  23645855.789    -4964196.492 5  -3430650.04321
 91  5  3 20 19 15.0000000  0  6G18G 2G11G16G19G 6
  22427863.7344    8135160.77646   6322151.61561
  22041790.1644   -9773549.72947  -7543738.95062
  23041703.398    -3934131.064 6  -3018258.15221
  23854596.4844   -3119898.17245
  21097037.695      753457.477 6    588550.82322
  23639398.383    -4998107.972 5  -3457074.52921
 91  5  3 20 19 30.0000000  0  6G18G 2G11G16G19G 6
  22436259.0634    8179281.45346   6356531.24461
  22035679.188    -9805660.013 7  -7568759.89722
  23041894.445    -3933114.519 6  -3017466.02421
  23854596.9614   -3119895.44245
  21098747.469      762453.350 7    595560.57822
  23632951.000    -5032011.736 5  -3483492.98121
 91  5  3 20 19 45.0000000  0  6G18G 2G11G16G19G 6
  22444669.2814    8223473.26646   6390966.30361
  22029581.344    -9837698.861 7  -7593725.18322
  23042117.820    -3931948.264 6  -3016557.24021
  23854618.4064   -3119764.87045
  21100471.797      771500.851 6    602610.56522
  23626500.516    -5065909.589 5  -3509906.84121
 91  5  3 20 20  0.0000000  0  6G18G 2G11G16G19G 6
  22453091.7504    8267737.05146   6425457.43961
  22023499.578    -9869665.163 7  -7618633.93122
  23042369.758    -3930631.119 6  -3015530.87521
  23854664.5554   -3119505.60345
  21102204.445      780601.224 6    609701.74622
  23620048.0634   -5099800.43845  -3536315.25261
 91  5  3 20 20 15.0000000  0  6G18G 2G11G16G19G 6
  22461528.4064    8312069.32546   6460001.95061
  22017430.734    -9901562.355 7  -7643488.83822
  23042646.758    -3929166.475 6  -3014389.58121
  23854743.9064   -3119120.99145  -2279480.45261
  21103943.898      789751.365 6    616831.71222
  23613597.914    -5133687.565 5  -3562720.75721
 91  5  3 20 20 30.0000000  0  6G18G 2G11G16G19G 6
  22469978.3054    8356473.72146   6494602.65461
  22011374.563    -9933386.150 7  -7668286.54922
  23042955.367    -3927550.381 6  -3013130.26721
  23854839.2424   -3118607.43045  -2279080.30261
  21105694.938      798955.219 6    624003.52922
  23607154.8284   -5167567.05045  -3589120.33261
 91  5  3 20 20 45.0000000  0  6G18G 2G11G16G19G 6
  22478442.1484    8400948.78346   6529258.42761
  22005331.055    -9965137.909 7  -7693028.12822
  23043290.320    -3925784.087 6  -3011753.92521
  23854959.9844   -3117966.15545  -2278580.62961
  21107457.156      808211.596 6    631216.27322
  23600710.055    -5201440.217 5  -3615514.93921
 91  5  3 20 21  0.0000000  0  6G18G 2G11G16G19G 6
  22486918.4534    8445492.03946   6563967.33561
  21999303.656    -9996819.849 7  -7717715.30022
  23043656.453    -3923869.874 6  -3010262.31321
  23855103.4924   -3117199.39245  -2277983.15961
  21109229.625      817518.178 6    638468.13722
  23594260.4694   -5235309.39445  -3641906.45961
 91  5  3 20 21 15.0000000  0  6G18G 2G11G16G19G 6
  22495408.0084    8490106.16946   6598731.47461
  21993288.023   -10028428.753 7  -7742345.56422
  23044048.664    -3921804.663 6  -3008653.04521
  23855270.6564   -3116304.47645  -2277285.85761
  21111007.094      826877.945 6    645761.44122
  23587818.813    -5269171.525 5  -3668292.47321
 91  5  3 20 21 30.0000000  0  6G18G 2G11G16G19G 6
  22503910.3284    8534789.40846   6633549.46061
  21987285.594   -10059966.132 7  -7766920.08822
  23044469.055    -3919589.877 6  -3006927.22621
  23855468.9454   -3115282.69945  -2276489.67161
  21112801.922      836289.657 6    653095.22422
  23581376.5864   -5303027.92145  -3694674.05961
 91  5  3 20 21 45.0000000  0  6G18G 2G11G16G19G 6
  22512427.7114    8579545.32846   6668424.07961
  21981298.766   -10091428.318 7  -7791436.02922
  23044920.094    -3917221.878 6  -3005082.02321
  23855687.7194   -3114130.54045  -2275591.91461
  21114601.063      845757.070 6    660472.40922
  23574935.727    -5336875.001 5  -3721048.33421
 91  5  3 20 22  0.0000000  0  6G18G 2G11G16G19G 6
  22520957.0084    8624366.89546   6703349.85061
  21975325.031   -10122822.007 7  -7815898.60122
  23045399.547    -3914707.448 6  -3003122.71321
  23855935.2584   -3112854.82445  -2274597.88261
  21116413.031      855273.475 6    667887.77322
  23568498.484    -5370719.676 5  -3747420.75821
 91  5  3 20 22 15.0000000  0  6G18G 2G11G16G19G 6
  22529501.2504    8669259.28546   6738330.80761
  21969365.883   -10154141.924 7  -7840303.68222
  23045904.117    -3912041.289 6  -3001045.17321
  23856196.4224   -3111450.47545  -2273503.59361
  21118234.516      864844.227 6    675345.48122
  23562056.523    -5404556.313 5  -3773786.92121
 91  5  3 20 22 30.0000000  0  6G18G 2G11G16G19G 6
  22538056.7584    8714230.57446   6773373.25061
  21963420.531   -10185379.497 7  -7864644.59822
  23046444.102    -3909214.884 6  -2998842.77121
  23856503.828    -3109909.338 5  -2272302.74521
  21120068.734      874477.783 6    682852.13122
  23555619.867    -5438376.708 5  -3800140.41721
 91  5  3 20 22 45.0000000  0  6G18G 2G11G16G19G 6
  22546628.6884    8759272.78446   6808470.95061
  21957491.352   -10216542.527 7  -7888927.42422
  23047011.508    -3906236.042 6  -2996521.58321
  23856815.1094   -3108239.12845  -2271001.31361
  21121910.039      884166.479 6    690401.74922
  23549187.0394   -5472188.54345  -3826487.23961
 91  5  3 20 23  0.0000000  0  6G18G 2G11G16G19G 6
  22555212.1094    8804372.91846   6843613.78361
  21951572.633   -10247643.437 7  -7913161.84822
  23047603.430    -3903117.358 6  -2994091.43021
  23857154.8284   -3106452.48145  -2269609.14261
  21123763.375      893897.750 6    697984.54022
  23542750.1954   -5506004.60345  -3852837.35761
 91  5  3 20 23 15.0000000  0  6G18G 2G11G16G19G 6
  22563808.0784    8849540.52746   6878809.20061
  21945666.344   -10278672.714 7  -7937340.45222
  23048225.586    -3899849.207 6  -2991544.80621
  23857518.102    -3104539.932 5  -2268118.87021
  21125624.594      903681.353 6    705608.10622
  23536317.102    -5539815.099 5  -3879183.14821
 91  5  3 20 23 30.0000000  0  6G18G 2G11G16G19G 6
  22572414.6414    8894774.15046   6914056.05561
  21939775.375   -10309631.415 7  -7961464.06422
  23048877.578    -3896432.741 6  -2988882.60621
  23857898.406    -3102502.725 5  -2266531.44221
  21127495.336      913516.024 6    713271.46722
  23529885.828    -5573621.200 5  -3905525.50721
 91  5  3 20 23 45.0000000  0  6G18G 2G11G16G19G 6
  22581034.9534    8940076.13546   6949356.17861
  21933898.922   -10340516.769 7  -7985530.51922
  23049555.734    -3892865.233 6  -2986102.72221
  23858316.406    -3100338.393 5  -2264844.98721
  21129376.750      923404.571 6    720976.80722
  23523454.891    -5607420.387 5  -3931862.48021
 91  5  3 20 24  0.0000000  0  6G18G 2G11G16G19G 6
  22589669.469     8985446.399 6   6984709.50521
  21928034.766   -10371328.682 7  -8009539.74822
  23050265.352    -3889146.719 6  -2983205.15921
  23858753.523    -3098047.045 5  -2263059.53321
  21131270.898      933347.173 6    728724.27322
  23517021.1414   -5641212.30045  -3958193.76861
 91  5  3 20 24 15.0000000  0  6G18G 2G11G16G19G 6
  22598316.2034    9030882.83046   7020114.39361
  21922185.234   -10402068.859 7  -8033493.08722
  23051000.9774   -3885279.08246  -2980191.40861
  23859207.039    -3095630.499 5  -2261176.54021
  21133170.703      943342.026 7    736512.44822
  23510593.656    -5674999.063 5  -3984521.07421
 91  5  3 20 24 30.0000000  0  6G18G 2G11G16G19G 6
  22606974.4694    9076385.24146   7055570.69561
  21916350.352   -10432737.369 7  -8057390.57622
  23051765.2974   -3881262.31546  -2977061.45661
  23859695.820    -3093088.797 5  -2259196.00621
  21135082.555      953389.100 7    744341.31722
  23504163.2344   -5708780.61645  -4010844.29461
 91  5  3 20 24 45.0000000  0  6G18G 2G11G16G19G 6
  22615646.5474    9121955.89246   7091080.16561
  21910526.414   -10463331.689 7  -8081230.26122
  23052557.1254   -3877094.01846  -2973813.42361
  23860205.1414   -3090419.83545  -2257116.33361
  21137005.188      963491.014 7    752212.91722
  23497737.6644   -5742554.28545  -4037161.37561
 91  5  3 20 25  0.0000000  0  6G18G 2G11G16G19G 6
  22624332.156     9167592.860 6   7126641.30721
  21904718.633   -10493853.224 7  -8105013.23022
  23053377.1254   -3872775.54346  -2970448.36761
  23860731.0004   -3087625.05945  -2254938.59161
  21138938.961      973646.378 7    760126.16922
  23491310.4774   -5776321.59545  -4063473.50661
 91  5  3 20 25 15.0000000  0  6G18G 2G11G16G19G 6
  22633027.8594    9213295.98346   7162254.00461
  21898924.867   -10524302.221 7  -8128739.67422
  23054229.1954   -3868307.22946  -2966966.56061
  23861286.297    -3084704.786 5  -2252663.08321
  21140879.383      983854.979 7    768080.90822
  23484884.4534   -5810082.85245  -4089780.90861
 91  5  3 20 25 30.0000000  0  6G18G 2G11G16G19G 6
  22641737.6884    9259065.14746   7197918.15861
  21893145.016   -10554678.120 7  -8152409.15922
  23055106.2814   -3863688.63746  -2963367.64861
  23861865.2504   -3081658.82045  -2250289.62261
  21142832.047      994117.185 7    776077.41022
  23478462.234    -5843837.725 6  -4116083.32721
 91  5  3 20 25 45.0000000  0  6G18G 2G11G16G19G 6
  22650460.000     9304899.672 6   7233633.25021
  21887378.695   -10584981.637 7  -8176022.24122
  23056013.8054   -3858920.50046  -2959652.20861
  23862476.6174   -3078488.19445  -2247819.02561
  21144797.039     1004432.644 7    784115.41322
  23472039.7814   -5877586.84646  -4142381.28961
 91  5  3 20 26  0.0000000  0  6G18G 2G11G16G19G 6
  22659194.4064    9350800.10946   7269399.69461
  21881625.484   -10615211.502 7  -8199577.92822
  23056952.2974   -3854001.83346  -2955819.47861
  23863095.5474   -3075191.71245  -2245250.35761
  21146769.977     1014802.451 7    792195.76122
  23465620.469    -5911329.003 5  -4168673.80921
 91  5  3 20 26 15.0000000  0  6G18G 2G11G16G19G 6
  22667941.9844    9396762.97646   7305214.78661
  21875886.031   -10645371.134 7  -8223078.89522
  23057911.8284   -3848935.77246  -2951871.89361
  23863753.7664   -3071772.62545  -2242586.17161
  21148753.156     1025223.447 7    800316.00622
  23459197.6804   -5945067.46945  -4194963.47661
 91  5  3 20 26 30.0000000  0  6G18G 2G11G16G19G 6
  22676701.1804    9442792.20646   7341081.59261
  21870160.320   -10675456.270 7  -8246521.81122
  23058908.8524   -3843718.31646  -2947806.33861
  23864417.625    -3068227.074 5  -2239823.42321
  21150747.008     1035699.498 7    808479.13922
  23452781.508    -5978798.286 5  -4221247.14921
 91  5  3 20 26 45.0000000  0  6G18G 2G11G16G19G 6
  22685472.047     9488887.711 6   7377000.03521
  21864450.492   -10705467.058 7  -8269906.79722
  23059927.7894   -3838349.41346  -2943622.77861
  23865125.5784   -3064555.46445  -2236962.45461
  21152750.906     1046230.791 7    816685.32222
  23446363.523    -6012521.331 5  -4247524.76721
 91  5  3 20 27  0.0000000  0  6G18G 2G11G16G19G 6
  22694256.3984    9535046.26246   7412967.61361
  21858753.8134  -10735405.96547  -8293235.77262
  23060978.6174   -3832831.77546  -2939323.31461
  23865852.2274   -3060760.36145  -2234005.26961
  21154765.336     1056814.882 7    824932.64422
  23439947.0004   -6046239.17245  -4273798.35761
 91  5  3 20 27 15.0000000  0  6G18G 2G11G16G19G 6
  22703052.9064    9581270.80146   7448986.60361
  21853070.117   -10765269.998 7  -8316506.40622
  23062059.5704   -3827162.42946  -2934905.63861
  23866585.305    -3056838.937 5  -2230949.62021
  21156789.555     1067454.706 7    833223.39722
  23433530.766    -6079948.937 5  -4300065.64421
 91  5  3 20 27 30.0000000  0  6G18G 2G11G16G19G 6
  22711861.125     9627557.924 6   7485054.36221
  21847403.000   -10795062.317 7  -8339721.15322
  23063165.0004   -3821344.59346  -2930372.26061
  23867360.2114   -3052794.59045  -2227798.20061
  21158823.633     1078147.005 7    841555.03822
  23427117.3914   -6113653.88645  -4326329.16561
 91  5  3 20 27 45.0000000  0  6G18G 2G11G16G19G 6
  22720680.297     9673911.238 6   7521173.69521
  21841746.2974  -10824778.89847  -8362876.88762
  23064302.2664   -3815374.40846  -2925720.16661
  23868159.3674   -3048623.25045  -2224547.83861
  21160868.727     1088895.947 7    849930.82122
  23420704.922    -6147349.978 5  -4352585.79621
 91  5  3 20 28  0.0000000  0  6G18G 2G11G16G19G 6
  22729514.547     9720330.218 6   7557344.20121
  21836104.750   -10854419.978 7  -8385973.79022
  23065467.7194   -3809252.12746  -2920949.56461
  23868971.305    -3044325.420 5  -2221198.91921
  21162925.883     1099701.364 7    858350.60722
  23414295.664    -6181037.361 5  -4378835.63221
 91  5  3 20 28 15.0000000  0  6G18G 2G11G16G19G 6
  22738359.656     9766813.676 6   7593564.94121
  21830479.945   -10883986.382 7  -8409012.50422
  23066660.3984   -3802978.75346  -2916061.22161
  23869812.0864   -3039902.15645  -2217752.24761
  21164991.945     1110562.221 7    866813.59322
  23407883.5944   -6214717.14945  -4405079.55861
 91  5  3 20 28 30.0000000  0  6G18G 2G11G16G19G 6
  22747217.5394    9813360.34446   7629834.94561
  21824865.6804  -10913479.34147  -8431993.98862
  23067883.9844   -3796555.49446  -2911056.08161
  23870676.9844   -3035354.89145  -2214208.94461
  21167068.195     1121477.514 7    875319.00222
  23401480.0634   -6248390.23745  -4431318.26361
 91  5  3 20 28 45.0000000  0  6G18G 2G11G16G19G 6
  22756087.898     9859970.412 6   7666154.34321
  21819268.4454  -10942898.37747  -8454917.87462
  23069133.3914   -3789981.85046  -2905933.76661
  23871570.938    -3030683.281 5  -2210568.77521
  21169157.703     1132447.843 7    883867.29222
  23395071.422    -6282056.209 5  -4457551.42021
 91  5  3 20 29  0.0000000  0  6G18G 2G11G16G19G 6
  22764969.203     9906646.300 6   7702525.03121
  21813684.0314  -10972240.82447  -8477782.08162
  23070412.5864   -3783255.24746  -2900692.25761
  23872484.0394   -3025884.82745  -2206829.74061
  21171255.438     1143476.034 7    892460.66622
  23388670.1414   -6315712.60245  -4483777.12161
 91  5  3 20 29 15.0000000  0  6G18G 2G11G16G19G 6
  22773864.016     9953383.482 6   7738943.48021
  21808114.9614  -11001510.67847  -8500589.72262
  23071721.4534   -3776379.96946  -2895334.89761
  23873419.445    -3020963.708 5  -2202995.11621
  21173366.477     1154557.861 7    901095.83522
  23382262.141    -6349363.396 5  -4509998.45421
 91  5  3 20 29 30.0000000  0  6G18G 2G11G16G19G 6
  22782769.070    10000185.633 6   7775412.54721
  21802561.7344  -11030704.09847  -8523337.80162
  23073061.3364   -3769352.02746  -2889858.58561
  23874382.297    -3015915.907 5  -2199061.78621
  21175484.289     1165697.467 7    909776.02922
  23375861.6644   -6383004.60445  -4536212.31861
 91  5  3 20 29 45.0000000  0  6G18G 2G11G16G19G 6
  22791687.656    10047047.105 6   7811927.84221
  21797018.6804  -11059826.51747  -8546030.56162
  23074423.5554   -3762176.97246  -2884267.63961
  23875361.688    -3010747.315 5  -2195034.35521
  21177615.383     1176889.249 7    918496.87922
  23369460.5704   -6416641.89745  -4562423.12161
 91  5  3 20 30  0.0000000  0  6G18G 2G11G16G19G 6
  22800617.789    10093969.683 6   7848490.75721
  21791488.8914  -11088875.69947  -8568666.24662
  23075818.8984   -3754852.80546  -2878560.49661
  23876372.0234   -3005456.10545  -2190911.34961
  21179753.453     1188135.248 7    927259.97622
  23363060.211    -6450273.101 5  -4588629.20721
 91  5  3 20 30 15.0000000  0  6G18G 2G11G16G19G 6
  22809557.703    10140954.033 6   7885101.79921
  21785976.2894  -11117850.61047  -8591244.06362
  23077238.3134   -3747378.44946  -2872736.33061
  23877397.0634   -3000041.26845  -2186692.02561
  21181906.273     1199436.697 7    936066.28322
  23356662.5314   -6483897.00045  -4614829.57561
 91  5  3 20 30 30.0000000  0  6G18G 2G11G16G19G 6
  22818510.008    10187998.690 6   7921759.82921
  21780477.3834  -11146752.51747  -8613764.99262
  23078690.9064   -3739755.29146  -2866796.20761
  23878459.805    -2994504.355 5  -2182377.58721
  21184065.883     1210792.534 7    944914.96422
  23350265.383    -6517515.034 5  -4641025.38621
 91  5  3 20 30 45.0000000  0  6G18G 2G11G16G19G 6
  22827474.203    10235106.742 6   7958467.26721
  21774991.6024  -11175578.08647  -8636226.43762
  23080170.3204   -3731980.21546  -2860737.71661
  23879529.7344   -2988842.23945  -2177965.56661
  21186238.125     1222205.910 7    953808.48722
  23343867.891    -6551123.813 5  -4667213.98521
 91  5  3 20 31  0.0000000  0  6G18G 2G11G16G19G 6
  22836449.914    10282277.031 6   7995223.19321
  21769520.6254  -11204328.08447  -8658628.99662
  23081680.0784   -3724053.96346  -2854561.42361
  23880639.305    -2983055.957 5  -2173456.78521
  21188420.297     1233676.031 7    962746.22022
  23337476.203    -6584724.280 6  -4693396.10921
 91  5  3 20 31 15.0000000  0  6G18G 2G11G16G19G 6
  22845438.2424   10329508.93646   8032027.13761
  21764062.9064  -11233003.22147  -8680973.22262
  23083216.8284   -3715977.17046  -2848267.82561
  23881760.8444   -2977146.21245  -2168851.83961
  21190612.633     1245202.461 7    971727.83622
  23331084.6884   -6618316.99946  -4719572.19361
 91  5  3 20 31 30.0000000  0  6G18G 2G11G16G19G 6
  22854437.5084   10376801.77246   8068878.54861
  21758622.0004  -11261603.82947  -8703259.38062
  23084781.9614   -3707750.27846  -2841857.27261
  23882905.945    -2971113.360 5  -2164150.92921
  21192819.141     1256785.089 7    980753.24122
  23324690.7894   -6651902.06646  -4745742.31961
 91  5  3 20 31 45.0000000  0  6G18G 2G11G16G19G 6
  22863447.352    10424154.102 6   8105776.32721
  21753191.5864  -11290130.70347  -8725488.07662
  23086375.5004   -3699374.34546  -2835330.58161
  23884079.2664   -2964958.61145  -2159355.04361
  21195032.000     1268422.739 7    989821.51822
  23318303.2274   -6685480.56946  -4771907.32361
 91  5  3 20 32  0.0000000  0  6G18G 2G11G16G19G 6
  22872472.4614   10471566.96646   8142721.26961
  21747777.1174  -11318582.48347  -8747658.26462
  23087998.4774   -3690848.04246  -2828686.71261
  23885271.5084   -2958680.83545  -2154463.30861
  21197258.180     1280116.767 7    998933.73622
  23311915.4064   -6719051.27946  -4798066.27161
 91  5  3 20 32 15.0000000  0  6G18G 2G11G16G19G 6
  22881506.7814   10519043.82346   8179716.07461
  21742378.5474  -11346955.65747  -8769767.20562
  23089649.070    -3682167.958 6  -2821923.01621
  23886495.797    -2952276.581 5  -2149472.99921
  21199495.023     1291870.923 6   1008092.79422
  23305528.6254   -6752610.56246  -4824216.29561
 91  5  3 20 32 30.0000000  0  6G18G 2G11G16G19G 6
  22890550.672    10566580.960 6   8216757.85121
  21736994.5004  -11375253.75747  -8791817.63962
  23091331.0944   -3673337.65246  -2815042.26661
  23887729.969    -2945749.438 5  -2144386.96521
  21201745.867     1303681.677 6   1017295.96122
  23299142.852    -6786161.840 6  -4850360.10221
 91  5  3 20 32 45.0000000  0  6G18G 2G11G16G19G 6
  22899607.9224   10614176.74346   8253845.33061
  21731622.563   -11403478.026 7  -8813810.54722
  23093038.8984   -3664358.60146  -2808045.61361
  23889002.117    -2939101.204 5  -2139206.52821
  21203999.547     1315547.784 7   1026542.25722
  23292760.781    -6819706.609 6  -4876498.81721
 91  5  3 20 33  0.0000000  0  6G18G 2G11G16G19G 6
  22908680.6094   10661834.11546   8290980.79361
  21726267.1174  -11431625.18047  -8835743.36462
  23094777.4224   -3655227.56946  -2800930.52961
  23890282.008    -2932328.551 5  -2133929.17921
  21206268.445     1327472.567 7   1035834.27722
  23286376.859    -6853241.500 6  -4902629.85921
 91  5  3 20 33 15.0000000  0  6G18G 2G11G16G19G 6
  22917758.3204   10709549.55546   8328161.51061
  21720925.2584  -11459698.28847  -8857618.47862
  23096542.5234   -3645947.60846  -2793699.39261
  23891600.8364   -2925434.86345  -2128557.51461
  21208550.633     1339453.044 7   1045169.69622
  23279999.5084   -6886769.52846  -4928755.54261
 91  5  3 20 33 30.0000000  0  6G18G 2G11G16G19G 6
  22926850.4844   10757324.61546   8365388.68361
  21715595.8594  -11487695.68647  -8879434.60662
  23098335.6334   -3636517.36746  -2786351.16261
  23892934.7504   -2918418.76445  -2123090.45661
  21210844.266     1351490.963 6   1054549.87622
  23273620.711    -6920289.061 6  -4954874.61321
 91  5  3 20 33 45.0000000  0  6G18G 2G11G16G19G 6
  22935951.234    10805156.973 6   8402660.50221
  21710282.7034  -11515619.64047  -8901193.49662
  23100160.8914   -3626939.00146  -2778887.50961
  23894285.2194   -2911282.35445  -2117529.65861
  21213141.352     1363584.114 7   1063973.08822
  23267241.813    -6953802.256 6  -4980988.73021
 91  5  3 20 34  0.0000000  0  6G18G 2G11G16G19G 6
  22945066.2344   10853048.74746   8439978.61461
  21704983.1254  -11543467.54547  -8922893.13362
  23102010.7894   -3617209.93246  -2771306.42561
  23895676.0554   -2904023.34045  -2111873.32061
  21215456.688     1375735.190 6   1073441.43822
  23260867.719    -6987306.714 6  -5007096.04721
 91  5  3 20 34 15.0000000  0  6G18G 2G11G16G19G 6
  22954190.9774   10900998.86846   8477342.19161
  21699698.6094  -11571240.20747  -8944534.13662
  23103891.7584   -3607331.13646  -2763608.67061
  23897074.5864   -2896642.78745  -2106122.26261
  21217775.211     1387943.406 6   1082954.31222
  23254493.5394   -7020802.96045  -5033196.95961
 91  5  3 20 34 30.0000000  0  6G18G 2G11G16G19G 6
  22963328.1564   10949009.84246   8514753.19461
  21694428.9924  -11598935.03847  -8966114.49162
  23105799.1254   -3597300.33046  -2755792.46761
  23898508.4534   -2889138.15445  -2100274.53161
  21220112.891     1400211.124 6   1092513.55122
  23248117.563    -7054288.551 6  -5059289.58321
 91  5  3 20 34 45.0000000  0  6G18G 2G11G16G19G 6
  22972475.0864   10997079.70346   8552210.07261
  21689172.4534  -11626553.26347  -8987635.16162
  23107740.266    -3587118.803 6  -2747858.82321
  23899958.047    -2881511.034 5  -2094331.32921
  21222456.031     1412537.190 6   1102118.25522
  23241750.102    -7087764.967 6  -5085375.04621
 91  5  3 20 35  0.0000000  0  6G18G 2G11G16G19G 6
  22981634.016    11045206.980 6   8589711.70521
  21683931.5084  -11654096.21847  -9009097.16862
  23109703.3054   -3576788.04846  -2739808.89561
  23901432.1334   -2873763.09345  -2088294.01961
  21224815.273     1424920.379 6   1111767.47622
  23235382.8914   -7121233.33846  -5111454.25361
 91  5  3 20 35 15.0000000  0  6G18G 2G11G16G19G 6
  22990801.8364   11093393.80546   8627259.72261
  21678705.0554  -11681561.83947  -9030498.91562
  23111698.0164   -3566305.83946  -2731640.95461
  23902933.125    -2865892.142 5  -2082160.83921
  21227181.758     1437363.066 6   1121463.05822
  23229015.266    -7154691.603 6  -5137525.57021
 91  5  3 20 35 30.0000000  0  6G18G 2G11G16G19G 6
  22999982.9614   11141633.36346   8664848.83861
  21673491.0554  -11708956.32847  -9051845.23762
  23113719.6724   -3555678.55246  -2723359.95861
  23904447.5474   -2857904.64445  -2075936.87261
  21229559.055     1449859.002 6   1131200.13222
  23222649.0634   -7188145.86346  -5163593.76761
 91  5  3 20 35 45.0000000  0  6G18G 2G11G16G19G 6
  23009174.4064   11189929.56646   8702482.09561
  21668292.8594  -11736275.50647  -9073132.87762
  23115772.1174   -3544902.08046  -2714962.71761
  23905991.477    -2849796.642 5  -2069618.95221
  21231947.531     1462412.323 6   1140981.92222
  23216286.9534   -7221591.84546  -5189655.53461
 91  5  3 20 36  0.0000000  0  6G18G 2G11G16G19G 6
  23018374.1564   11238280.56546   8740158.04061
  21663107.8834  -11763521.27847  -9094363.31662
  23117851.6254   -3533978.38346  -2706450.75161
  23907557.4924   -2841570.23745  -2063208.80061
  21234344.016     1475021.352 6   1150807.11922
  23209921.617    -7255031.483 6  -5215712.34521
 91  5  3 20 36 15.0000000  0  6G18G 2G11G16G19G 6
  23027587.3054   11286688.16946   8777878.09961
  21657934.9384  -11790691.43747  -9115534.82962
  23119958.7194   -3522905.47646  -2697822.52461
  23909147.1804   -2833223.52945  -2056704.90761
  21236756.961     1487688.151 6   1160677.33122
  23203558.9614   -7288462.64646  -5241762.54861
 91  5  3 20 36 30.0000000  0  6G18G 2G11G16G19G 6
  23036808.7274   11335151.23446   8815641.36761
  21652781.3914  -11817786.70747  -9136647.99562
  23122092.500    -3511684.259 6  -2689078.72721
  23910765.7194   -2824757.67645  -2050108.17461
  21239181.227     1500411.997 6   1170591.99722
  23197199.453    -7321886.198 6  -5267806.83321
 91  5  3 20 36 45.0000000  0  6G18G 2G11G16G19G 6
  23046039.609    11383668.624 6   8853446.96921
  21647640.2584  -11844807.86447  -9157703.40762
  23124255.9304   -3500315.77346  -2680220.18161
  23912392.7664   -2816173.53345  -2043419.23861
  21241609.758     1513191.930 6   1180550.37222
  23190839.5704   -7355302.88946  -5293845.76961
 91  5  3 20 37  0.0000000  0  6G18G 2G11G16G19G 6
  23055285.195    11432241.646 6   8891295.91121
  21642512.7114  -11871753.15547  -9178699.70062
  23126447.3674   -3488798.37046  -2671245.58861
  23914043.422    -2807469.501 5  -2036636.90621
  21244052.984     1526029.753 6   1190553.84722
  23184482.617    -7388711.077 6  -5319878.07621
 91  5  3 20 37 15.0000000  0  6G18G 2G11G16G19G 6
  23064538.883    11480871.471 6   8929189.12221
  21637399.5474  -11898621.13747  -9199635.75462
  23128668.258    -3477130.429 6  -2662153.69921
  23915729.813    -2798644.372 5  -2029760.22821
  21246508.461     1538927.259 6   1200603.83022
  23178124.102    -7422109.112 6  -5345902.46921
 91  5  3 20 37 30.0000000  0  6G18G 2G11G16G19G 6
  23073801.727    11529552.182 6   8967121.98121
  21632300.9534  -11925417.74847  -9220516.19762
  23130913.8204   -3465318.02646  -2652949.23861
  23917424.6254   -2789704.16445  -2022793.84461
  21248972.688     1551878.627 6   1210695.78922
  23171771.961    -7455502.853 6  -5371923.52521
 91  5  3 20 37 45.0000000  0  6G18G 2G11G16G19G 6
  23083076.8284   11578285.32646   9005095.70561
  21627216.000   -11952141.203 7  -9241339.62522
  23133192.3054   -3453359.42346  -2643630.85761
  23919157.281    -2780647.189 5  -2015736.50021
  21251446.148     1564885.713 6   1220831.15722
  23165416.500    -7488890.454 6  -5397939.80221
 91  5  3 20 38  0.0000000  0  6G18G 2G11G16G19G 6
  23092357.867    11627071.107 6   9043110.42521
  21622142.8984  -11978791.08147  -9262105.72962
  23135493.0084   -3441254.50846  -2634198.46761
  23920898.594    -2771473.455 5  -2008588.15821
  21253933.820     1577948.892 6   1231010.24222
  23159065.5554   -7522271.61246  -5423951.05061
 91  5  3 20 38 15.0000000  0  6G18G 2G11G16G19G 6
  23101654.852    11675911.106 6   9081167.40621
  21617086.930   -12005365.144 7  -9282812.75122
  23137827.4534   -3429001.28746  -2624650.51161
  23922662.336    -2762180.609 5  -2001346.99921
  21256430.102     1591070.292 6   1241234.69122
  23152714.664    -7555644.221 6  -5449955.62221
 91  5  3 20 38 30.0000000  0  6G18G 2G11G16G19G 6
  23110958.633    11724803.249 6   9119265.01021
  21612044.3054  -12031865.11247  -9303462.04062
  23140184.2814   -3416601.48746  -2614988.34461
  23924455.867    -2752771.277 5  -1994015.09121
  21258937.703     1604248.381 6   1251503.31522
  23146363.859    -7589009.742 6  -5475954.70121
 91  5  3 20 38 45.0000000  0  6G18G 2G11G16G19G 6
  23120271.4614   11773744.08846   9157400.56161
  21607014.7504  -12058294.39947  -9324056.25662
  23142573.5314   -3404058.57846  -2605214.66061
  23926272.8594   -2743248.61945  -1986594.88761
  21261455.813     1617479.825 6   1261813.51022
  23140017.586    -7622371.714 6  -5501950.98821
 91  5  3 20 39  0.0000000  0  6G18G 2G11G16G19G 6
  23129594.5704   11822735.13446   9195575.24361
  21602000.2274  -12084651.26947  -9344594.03862
  23144984.3444   -3391370.95246  -2595328.20761
  23928101.227    -2733611.252 5  -1979085.28921
  21263986.086     1630766.306 6   1272166.59722
  23133668.094    -7655728.312 6  -5527943.08921
 91  5  3 20 39 15.0000000  0  6G18G 2G11G16G19G 6
  23138925.883    11871776.311 6   9233788.97821
  21596997.2274  -12110935.42347  -9365075.16262
  23147429.0234   -3378538.62246  -2585329.00061
  23929955.2194   -2723858.75145  -1971485.96361
  21266522.648     1644108.138 6   1282562.81322
  23127322.2664   -7689079.35446  -5553930.86161
 91  5  3 20 39 30.0000000  0  6G18G 2G11G16G19G 6
  23148267.961    11920868.194 6   9272042.22021
  21592009.6484  -12137146.25147  -9385499.15462
  23149900.0554   -3365560.97046  -2575216.55761
  23931839.4304   -2713990.98745  -1963796.82861
  21269071.320     1657506.095 6   1293002.76122
  23120977.336    -7722424.166 6  -5579913.78521
 91  5  3 20 39 45.0000000  0  6G18G 2G11G16G19G 6
  23157619.813    11970006.123 6   9310331.35921
  21587035.7504  -12163288.06947  -9405869.36462
  23152393.4534   -3352442.32546  -2564994.24461
  23933738.2734   -2704012.43945  -1956021.35661
  21271632.711     1670955.898 6   1303483.11022
  23114631.680    -7755766.916 6  -5605895.09221
 91  5  3 20 40  0.0000000  0  6G18G 2G11G16G19G 6
  23166979.844    12019194.028 6   9348659.41821
  21582073.9844  -12189356.71247  -9426182.55962
  23154917.1884   -3339178.60346  -2554658.87861
  23935653.688    -2693918.989 5  -1948156.37721
  21274202.000     1684461.931 6   1314007.27722
  23108288.617    -7789103.418 6  -5631871.53921
 91  5  3 20 40 15.0000000  0  6G18G 2G11G16G19G 6
  23176348.992    12068433.289 6   9387027.51321
  21577127.4924  -12215350.38847  -9446437.33962
  23157470.8134   -3325768.13446  -2544209.16261
  23937600.8204   -2683709.22445  -1940200.74361
  21276783.828     1698026.060 6   1324576.70822
  23101947.891    -7822431.695 6  -5657841.58021
 91  5  3 20 40 30.0000000  0  6G18G 2G11G16G19G 6
  23185728.6804   12117714.57146   9425428.33961
  21572193.8134  -12241278.30847  -9466640.87562
  23160049.0634   -3312220.23346
  23939564.359    -2673392.636 5  -1932161.90121
  21279376.195     1711638.968 6
  23095605.633    -7855761.080 6  -5683812.48521
 91  5  3 20 40 45.0000000  0  6G18G 2G11G16G19G 6
  23195113.727    12167042.599 6   9463865.59621
  21567273.1484  -12267135.22247  -9486789.08862
  23162652.6484   -3298529.83746
  23941549.781    -2662963.788 5  -1924035.57421
  21281975.383     1725306.002 6
  23089262.4064   -7889086.32846  -5709780.16661
 91  5  3 20 41  0.0000000  0  6G18G 2G11G16G19G 6
  23204510.5394   12216416.58946   9502338.65661
  21562367.6484  -12292921.64447  -9506882.36962
  23165285.844    -3284697.727 6  -2512206.27221
  23943554.1884   -2652423.87945  -1915822.72361
  21284585.469     1739026.661 6   1356525.18122
  23082920.867    -7922408.007 6  -5735745.06021
 91  5  3 20 41 15.0000000  0  6G18G 2G11G16G19G 6
  23213914.375    12265838.317 6   9540848.92221
  21557473.8364  -12318635.57047  -9526919.15862
  23167943.7424   -3270722.01846  -2501316.11761
  23945579.0394   -2641771.05445  -1907521.83461
  21287208.086     1752802.924 6   1367259.91322
  23076581.3984   -7955724.10746  -5761705.62061
 91  5  3 20 41 30.0000000  0  6G18G 2G11G16G19G 6
  23223327.336    12315307.383 6   9579396.07421
  21552593.7274  -12344277.11747  -9546899.55262
  23170632.0234   -3256603.02046  -2490314.30861
  23947629.227    -2631005.777 5  -1899133.35521
  21289840.352     1766634.662 6   1378037.87622
  23070242.070    -7989034.770 6  -5787661.92321
 91  5  3 20 41 45.0000000  0  6G18G 2G11G16G19G 6
  23232751.2734   12364821.01346   9617977.93661
  21547728.2504  -12369848.72247  -9566825.44362
  23173345.7114   -3242343.19146  -2479202.75161
  23949701.352    -2620130.513 5  -1890659.17321
  21292481.023     1780519.544 6   1388857.24722
  23063902.906    -8022342.405 6  -5813615.88621
 91  5  3 20 42  0.0000000  0  6G18G 2G11G16G19G 6
  23242181.992    12414382.288 6   9656596.93921
  21542876.1414  -12395347.14247  -9586694.31162
  23176087.3674   -3227939.47746  -2467979.08561
  23951787.703    -2609142.187 5  -1882096.88721
  21295134.906     1794460.917 7   1399720.63522
  23057567.523    -8055643.551 6  -5839564.79221
 91  5  3 20 42 15.0000000  0  6G18G 2G11G16G19G 6
  23251621.6564   12463986.70146   9695249.55461
  21538037.1094  -12420776.47547  -9606509.34262
  23178853.8284   -3213396.07446  -2456646.57261
  23953900.4694   -2598045.18145  -1873449.90061
  21297798.242     1808454.822 6   1410624.95622
  23051231.609    -8088942.438 6  -5865511.91421
 91  5  3 20 42 30.0000000  0  6G18G 2G11G16G19G 6
  23261070.203    12513635.878 6   9733937.04921
  21533210.2584  -12446135.04247  -9626269.23662
  23181650.7114   -3198711.37546  -2445203.95561
  23956030.1414   -2586838.15045  -1864717.21261
  21300470.672     1822503.071 7   1421571.62522
  23044894.875    -8122237.229 6  -5891455.87121
 91  5  3 20 42 45.0000000  0  6G18G 2G11G16G19G 6
  23270525.7194   12563329.78046   9772659.39061
  21528397.281   -12471422.478 7  -9645973.70522
  23184468.5474   -3183885.20846  -2433651.09861
  23958188.7734   -2575520.71245  -1855898.48161
  21303155.328     1836605.870 7   1432560.79822
  23038559.875    -8155527.584 6  -5917396.35821
 91  5  3 20 43  0.0000000  0  6G18G 2G11G16G19G 6
  23279993.789    12613069.359 6   9811417.33421
  21523600.6884  -12496637.73047  -9665621.92562
  23187320.4144   -3168916.60446  -2421987.26161
  23960362.6414   -2564092.15245  -1846993.14261
  21305849.523     1850764.371 6   1443593.37822
  23032227.1564   -8188812.38246  -5943332.52461
 91  5  3 20 43 15.0000000  0  6G18G 2G11G16G19G 6
  23289465.766    12662853.386 6   9850209.90521
  21518815.227   -12521781.482 7  -9685214.43222
  23190193.4144   -3153806.51146  -2410213.16861
  23962555.0314   -2552553.24645  -1838001.84961
  21308556.188     1864977.912 7   1454668.84122
  23025891.992    -8222092.408 6  -5969264.95921
 91  5  3 20 43 30.0000000  0  6G18G 2G11G16G19G 6
  23298947.898    12712680.997 6   9889036.43821
  21514044.3054  -12546854.31747  -9704751.67762
  23193097.0234   -3138555.86346  -2398329.55161
  23964772.2814   -2540905.18045  -1828925.46561
  21311269.836     1879245.901 7   1465786.73622
  23019561.633    -8255368.164 6  -5995194.07821
 91  5  3 20 43 45.0000000  0  6G18G 2G11G16G19G 6
  23308437.1174   12762553.81046   9927898.19461
  21509287.0634  -12571854.45147  -9724232.27562
  23196026.7894   -3123162.84446  -2386334.99661
  23967011.5634   -2529146.06645  -1819762.54161
  21313993.922     1893570.321 6   1476948.60022
  23013229.109    -8288637.913 6  -6021118.51221
 91  5  3 20 44  0.0000000  0  6G18G 2G11G16G19G 6
  23317936.6724   12812469.42946   9966793.29661
  21504543.5784  -12596784.16747  -9743657.99862
  23198978.3134   -3107629.76446  -2374231.30061
  23969271.8754   -2517278.69845  -1810515.31561
  21316732.789     1907948.868 6   1488152.63922
  23006900.0084   -8321903.65946  -6047039.83061
 91  5  3 20 44 15.0000000  0  6G18G 2G11G16G19G 6
  23327443.6334   12862429.83346  10005723.31561
  21499813.000   -12621641.054 7  -9763026.98422
  23201962.4924   -3091954.42446  -2362016.75661
  23971548.828    -2505300.707 5  -1801181.86521
  21319479.555     1922384.138 6   1499400.88222
  23000569.953    -8355162.992 6  -6072956.15021
 91  5  3 20 44 30.0000000  0  6G18G 2G11G16G19G 6
  23336959.0704   12912428.46646  10044683.10061
  21495095.742   -12646431.120 7  -9782343.88222
  23204973.2274   -3076143.02646  -2349696.19261
  23973849.086    -2493218.468 5  -1791767.17621
  21322233.891     1936870.041 7   1510688.57622
  22994242.0004   -8388422.03346  -6098872.24261
 91  5  3 20 44 45.0000000  0  6G18G 2G11G16G19G 6
  23346482.008    12962468.780 6  10083675.36621
  21490391.680   -12671150.962 7  -9801606.07222
  23208008.1174   -3060192.35246  -2337267.09861
  23976167.0554   -2481028.33245  -1782268.39861
  21325002.070     1951410.113 6   1522018.48122
  22987915.3594   -8421677.26446  -6124785.35661
 91  5  3 20 45  0.0000000  0  6G18G 2G11G16G19G 6
  23356010.5004   13012550.34646  10122699.78461
  21485700.9614  -12695800.45847  -9820813.44162
  23211071.1414   -3044102.37846  -2324729.46361
  23978510.6334   -2468730.59545  -1772685.80961
  21327781.086     1966004.534 6   1533390.73222
  22981586.281    -8454928.552 6  -6150695.40621
 91  5  3 20 45 15.0000000  0  6G18G 2G11G16G19G 6
  23365551.2034   13062672.21346  10161755.58661
  21481023.5864  -12720380.64447  -9839966.80762
  23214157.7194   -3027874.20246  -2312084.14261
  23980868.1414   -2456326.54945  -1763020.35861
  21330566.313     1980652.491 6   1544804.70522
  22975258.109    -8488176.718 6  -6176603.02721
 91  5  3 20 45 30.0000000  0  6G18G 2G11G16G19G 6
  23375095.758    13112831.921 5  10200840.89421
  21476357.9064  -12744893.78647  -9859067.92762
  23217272.7584   -3011509.98646  -2299332.80661
  23983248.070    -2443818.714 5  -1753274.05421
  21333363.180     1995351.782 6   1556258.67422
  22968932.305    -8521424.061 6  -6202509.99421
 91  5  3 20 45 45.0000000  0  6G18G 2G11G16G19G 6
  23384647.477    13163030.745 5  10239956.66521
  21471706.3984  -12769338.22747  -9878115.51462
  23220409.977    -2995008.525 6  -2286474.53321
  23985648.1254   -2431206.01545  -1743446.02261
  21336172.141     2010103.990 6   1567753.88122
  22962604.0944   -8554668.87946  -6228415.01161
 91  5  3 20 46  0.0000000  0  6G18G 2G11G16G19G 6
  23394208.2114   13213268.70646  10279102.94661
  21467069.2734  -12793713.48747  -9897109.19562
  23223578.7274   -2978369.50346  -2273509.07161
  23988069.445    -2418487.767 5  -1733535.79321
  21338990.680     2024909.642 6   1579290.72922
  22956278.102    -8587910.744 6  -6254317.71721
 91  5  3 20 46 15.0000000  0  6G18G 2G11G16G19G 6
  23403773.648    13263544.745 5  10318278.89121
  21462443.625   -12818020.342 7  -9916049.57322
  23226772.3594   -2961593.86146  -2260437.15261
  23990511.586    -2405665.025 5  -1723544.06721
  21341814.633     2039767.993 6   1590868.64222
  22949954.422    -8621150.391 6  -6280218.68321
 91  5  3 20 46 30.0000000  0  6G18G 2G11G16G19G 6
  23413350.352    13313859.892 6  10357485.30621
  21457831.1094  -12842257.52547  -9934935.65962
  23229989.7034   -2944680.38346  -2247257.82661
  23992968.3754   -2392736.73145  -1713470.14061
  21344655.2034    2054680.44846   1602488.71062
  22943628.789    -8654386.467 6  -6306116.87921
 91  5  3 20 46 45.0000000  0  6G18G 2G11G16G19G 6
  23422931.7814   13364215.33146  10396723.11361
  21453231.3834  -12866423.77747  -9953766.47863
  23233233.8834   -2927627.99346  -2233970.25861
  23995449.172    -2379701.886 5  -1703313.14921
  21347503.086     2069648.374 6   1614152.00122
  22937307.477    -8687617.724 6  -6332011.31121
 91  5  3 20 47  0.0000000  0  6G18G 2G11G16G19G 6
  23432523.2814   13414610.13346  10435991.60861
  21448646.6334  -12890519.69247  -9972542.48462
  23236507.3674   -2910437.42746  -2220575.02461
  23997948.8754   -2366561.50745  -1693073.96361
  21350360.0554    2084671.19146   1625858.06762
  22930982.977    -8720844.558 6  -6357902.30621
 91  5  3 20 47 15.0000000  0  6G18G 2G11G16G19G 6
  23442122.625    13465046.561 6  10475292.52321
  21444075.5234  -12914542.69047  -9991261.67563
  23239803.8834   -2893106.27346  -2207070.23461
  24000473.5234   -2353313.21045  -1682750.64861
  21353231.016     2099751.475 6   1637608.91622
  22924663.180    -8754064.432 6  -6383787.87521
 91  5  3 20 47 30.0000000  0  6G18G 2G11G16G19G 6
  23451726.898    13515522.684 6  10514624.38021
  21439517.2584  -12938494.67047 -10009925.52663
  23243128.4064   -2875636.51546  -2193457.44661
  24003015.906    -2339958.966 5  -1672344.81121
  21356110.359     2114887.547 6   1649403.23322
  22918341.234    -8787279.223 6  -6409669.48721
 91  5  3 20 47 45.0000000  0  6G18G 2G11G16G19G 6
  23461338.320    13566041.628 5  10553989.59521
  21434973.5864  -12962371.95747 -10028531.17363
  23246479.0394   -2858024.80746  -2179734.04561
  24005577.6564   -2326495.55045  -1661853.88361
  21359002.602     2130083.023 6   1661243.83722
  22912024.211    -8820485.200 6  -6435544.22421
 91  5  3 20 48  0.0000000  0  6G18G 2G11G16G19G 6
  23470961.250    13616599.133 5  10593384.85821
  21430442.2344  -12986178.33647 -10047081.56863
  23249858.9924   -2840275.20946  -2165903.20161
  24008156.9534   -2312927.17844  -1651281.15261
  21361904.375     2145334.212 6   1673127.85522
  22905704.930    -8853686.137 6  -6461415.03321
 91  5  3 20 48 15.0000000  0  6G18G 2G11G16G19G 6
  23480586.8984   13667196.67245  10632811.31161
  21425926.5864  -13009912.21647 -10065575.47062
  23253259.7814   -2822386.15546  -2151963.68461
  24010758.5164   -2299252.28545  -1640625.45661
  21364816.1564    2160642.72346   1685056.54062
  22899388.438    -8886880.384 6  -6487280.63221
 91  5  3 20 48 30.0000000  0  6G18G 2G11G16G19G 6
  23490225.719    13717834.022 5  10672268.79921
  21421423.7584  -13033573.69847 -10084012.95863
  23256692.2344   -2804357.93546  -2137915.73361
  24013383.2424   -2285470.89345  -1629886.76861
  21367741.492     2176008.534 6   1697029.87122
  22893072.0394   -8920067.94546  -6513141.02361
 91  5  3 20 48 45.0000000  0  6G18G 2G11G16G19G 6
  23499868.0944   13768509.83345  10711756.24161
  21416936.3754  -13057163.90447 -10102394.90763
  23260147.8754   -2786191.67146  -2123760.21261
  24016023.039    -2271584.419 5  -1619066.21621
  21370677.5554    2191430.58546   1709047.03062
  22886757.773    -8953249.862 6  -6538997.01121
 91  5  3 20 49  0.0000000  0  6G18G 2G11G16G19G 6
  23509520.461    13819223.973 5  10751273.55221
  21412459.3284  -13080682.49647 -10120721.04863
  23263631.5784   -2767887.28846  -2109497.06861
  24018687.156    -2257592.959 5  -1608163.82921
  21373623.711     2206909.155 6   1721108.22222
  22880446.6414   -8986425.70446  -6564848.28061
 91  5  3 20 49 15.0000000  0  6G18G 2G11G16G19G 6
  23519176.234    13869979.325 5  10790822.97521
  21407998.4534  -13104126.35647 -10138988.96363
  23267143.961    -2749441.825 6  -2095123.99721
  24021371.094    -2243493.789 5  -1597177.51221
  21376577.1094    2222447.48646   1733215.98062
  22874133.297    -9019592.398 6  -6590692.40621
 91  5  3 20 49 30.0000000  0  6G18G 2G11G16G19G 6
  23528842.563    13920774.753 5  10830403.63321
  21403551.8204  -13127496.44347 -10157199.38963
  23270680.3284   -2730856.55846  -2080641.97461
  24024071.688    -2229287.905 4  -1586108.08621
  21379544.859     2238044.759 6   1745369.67322
  22867824.2034   -9052750.80546  -6616530.09161
 91  5  3 20 49 45.0000000  0  6G18G 2G11G16G19G 6
  23538517.2424   13971609.17545  10870014.65861
  21399117.8204  -13150793.70347 -10175353.06863
  23274244.1094   -2712132.48946  -2066051.80561
  24026801.2664   -2214976.32545  -1574956.23161
  21382523.7734    2253700.04946   1757568.57562
  22861514.484    -9085901.753 6  -6642361.94621
 91  5  3 20 50  0.0000000  0  6G18G 2G11G16G19G 6
  23548197.922    14022483.859 5  10909657.06521
  21394698.1564  -13174016.42447 -10193448.66562
  23277833.047    -2693268.083 6  -2051352.28221
  24029545.1724   -2200557.69745  -1563721.00861
  21385514.9924    2269415.15046   1769814.08262
  22855207.9224   -9119043.56146  -6668186.69061
 91  5  3 20 50 15.0000000  0  6G18G 2G11G16G19G 6
  23557887.711    14073398.972 5  10949330.96121
  21390294.6804  -13197164.09947 -10211485.78463
  23281448.5004   -2674263.02346  -2036543.15161
  24032304.8364   -2186032.06045  -1552402.37661
  21388517.0784    2285190.69346   1782106.68062
  22848903.3984   -9152175.64446  -6694003.85461
 91  5  3 20 50 30.0000000  0  6G18G 2G11G16G19G 6
  23567584.023    14124352.196 5  10989034.55821
  21385902.3134  -13220238.71247 -10229465.97163
  23285091.4774   -2655119.44346  -2021626.08861
  24035088.109    -2171401.511 5  -1541002.01121
  21391530.8284    2301024.56646   1794444.73362
  22842600.078    -9185299.974 6  -6719814.97721
 91  5  3 20 50 45.0000000  0  6G18G 2G11G16G19G 6
  23577287.4694   14175344.71745  11028768.78861
  21381526.141   -13243238.992 7 -10247388.24223
  23288759.648    -2635836.182 6  -2006600.18521
  24037896.5004   -2156665.08245  -1529519.12861
  21394556.8134    2316918.46846   1806829.56162
  22836299.297    -9218415.082 6  -6745618.90521
 91  5  3 20 51  0.0000000  0  6G18G 2G11G16G19G 6
  23586998.9774   14226376.31145  11068533.45461
  21377163.5084  -13266164.72147 -10265252.41863
  23292457.180    -2616413.188 6  -1991465.39621
  24040721.555    -2141822.449 5  -1517953.49821
  21397592.0084    2332872.49546   1819261.24062
  22829998.3914   -9251520.75346  -6771415.49561
 91  5  3 20 51 15.0000000  0  6G18G 2G11G16G19G 6
  23596715.9924   14277447.11945  11108328.67261
  21372815.7114  -13289015.70447 -10283058.34663
  23296180.016    -2596850.409 6  -1976221.68221
  24043563.2894   -2126873.84345  -1506305.30761
  21400638.7734    2348886.91846   1831739.98462
  22823701.391    -9284616.730 6  -6797204.52921
 91  5  3 20 51 30.0000000  0  6G18G 2G11G16G19G 6
  23606443.039    14328558.450 5  11148155.46421
  21368481.7114  -13311790.48947 -10300804.90363
  23299927.508    -2577146.519 6  -1960868.01521
  24046426.539    -2111818.110 5  -1494573.62621
  21403699.5234    2364963.23346   1844266.95062
  22817405.4614   -9317701.44046  -6822984.77961
 91  5  3 20 51 45.0000000  0  6G18G 2G11G16G19G 6
  23616180.0864   14379711.57245  11188014.83261
  21364162.1024  -13334487.24547 -10318490.65563
  23303706.531    -2557300.060 6  -1945403.26221
  24049316.109    -2096653.656 5  -1482757.20021
  21406769.5634    2381103.41846   1856843.68562
  22811111.9774   -9350773.08446  -6848754.85961
 91  5  3 20 52  0.0000000  0  6G18G 2G11G16G19G 6
  23625917.539    14430904.435 5  11227905.15821
  21359858.4924  -13357107.90047 -10336117.10663
  23307509.9924   -2537313.14546  -1929829.05361
  24052218.242    -2081382.647 5  -1470857.78521
  21409853.1414    2397305.53246   1869468.67862
  22804819.547    -9383833.492 6  -6874516.17221
 91  5  3 20 52 15.0000000  0  6G18G 2G11G16G19G 6
  23635668.086    14482140.381 5  11267829.06321
  21355568.7584  -13379648.89247 -10353681.48163
  23311339.773    -2517182.258 6  -1914142.66621
  24055148.3444   -2066001.64745  -1458872.66161
  21412947.4924    2413573.15346   1882144.71362
  22798530.7664   -9416879.05446  -6900265.91861
 91  5  3 20 52 30.0000000  0  6G18G 2G11G16G19G 6
  23645427.5234   14533417.30645  11307784.88561
  21351293.2814  -13402111.78847 -10371185.00963
  23315197.1094   -2496909.30246  -1898345.57361
  24058096.406    -2050512.483 5  -1446803.22821
  21416058.1954    2429904.79146   1894870.63062
  22792246.1884   -9449911.24346  -6926005.25061
 91  5  3 20 52 45.0000000  0  6G18G 2G11G16G19G 6
  23655192.414    14584732.509 5  11347770.55021
  21347032.648   -13424499.144 7 -10388629.67623
  23319083.805    -2476497.082 6  -1882439.96721
  24061063.6094   -2034918.13245  -1434651.84161
  21419174.4144    2446297.97746   1907644.51062
  22785961.9614   -9482932.61046  -6951736.14561
 91  5  3 20 53  0.0000000  0  6G18G 2G11G16G19G 6
  23664965.039    14636085.005 5  11387785.23721
  21342787.4224  -13446811.69547 -10406016.04963
  23322993.992    -2455946.198 6  -1866426.31121
  24064048.594    -2019219.304 5  -1422419.03921
  21422309.3674    2462752.25046   1920465.98762
  22779679.8914   -9515943.63646  -6977458.98761
 91  5  3 20 53 15.0000000  0  6G18G 2G11G16G19G 6
  23674745.820    14687477.558 5  11427831.17021
  21338555.9384  -13469046.61647 -10423341.93363
  23326931.375    -2435254.011 6  -1850302.55521
  24067058.3134   -2003413.42445  -1410102.82761
  21425450.8284    2479270.34646   1933337.19762
  22773402.4774   -9548941.39746  -7003171.48861
 91  5  3 20 53 30.0000000  0  6G18G 2G11G16G19G 6
  23684533.6644   14738909.97245  11467908.15361
  21334339.6254  -13491203.81447 -10440607.25363
  23330895.672    -2414420.844 6  -1834068.92921
  24070084.4534   -1987501.09845  -1397703.67061
  21428604.2664    2495852.23846   1946258.12362
  22767124.9304   -9581925.90246  -7028873.65861
 91  5  3 20 53 45.0000000  0  6G18G 2G11G16G19G 6
  23694327.6094   14790383.04845  11508016.80061
  21330138.1414  -13513282.13347 -10457811.10763
  23334886.289    -2393445.615 6  -1817724.61821
  24073133.734    -1971481.159 5  -1385220.66521
  21431772.8364    2512499.39846   1959229.89862
  22760850.7584   -9614895.78146  -7054564.43761
 91  5  3 20 54  0.0000000  0  6G18G 2G11G16G19G 6
  23704128.523    14841897.099 5  11548157.40821
  21325951.7814  -13535280.91847 -10474952.98663
  23338904.4844   -2372327.92046  -1801269.29561
  24076203.070    -1955353.091 5  -1372653.38021
  21434952.2664    2529212.48346   1972253.04862
  22754579.0704   -9647850.40946  -7080243.32261
 91  5  3 20 54 15.0000000  0  6G18G 2G11G16G19G 6
  23713941.117    14893451.697 5  11588329.59121
  21321781.8524  -13557200.42847 -10492033.09962
  23342951.039    -2351068.205 6  -1784703.30921
  24079292.5634   -1939117.58945  -1360002.38861
  21438146.5394    2545991.28046   1985327.39862
  22748310.5704   -9680790.04946  -7105910.54061
 91  5  3 20 54 30.0000000  0  6G18G 2G11G16G19G 6
  23723758.7424   14945044.65045  11628531.64861
  21317624.6954  -13579042.42547 -10509052.80363
  23347021.547    -2329668.574 6  -1768028.29321
  24082402.844    -1922776.600 5  -1347269.19221
  21441352.1024    2562834.08846   1998451.63362
  22742043.938    -9713716.449 6  -7131567.43821
 91  5  3 20 54 45.0000000  0  6G18G 2G11G16G19G 6
  23733584.492    14996679.226 5  11668766.16521
  21313483.7734  -13600803.52347 -10526009.47463
  23351120.5634   -2308125.54046  -1751241.53961
  24085531.359    -1906326.615 5  -1334451.09021
  21444571.2894    2579744.42746   2011628.48662
  22735782.6804   -9746625.86846  -7157211.10061
 91  5  3 20 55  0.0000000  0  6G18G 2G11G16G19G 6
  23743418.258    15048353.991 5  11709031.97821
  21309358.0394  -13622484.95247 -10542904.06362
  23355250.250    -2286440.496 6  -1734344.12521
  24088677.7814   -1889769.57445  -1321549.57461
  21447801.1724    2596721.11546   2024857.04062
  22729523.9304   -9779519.51646  -7182842.48161
 91  5  3 20 55 15.0000000  0  6G18G 2G11G16G19G 6
  23753257.6254   15100070.85245  11749330.58361
  21305248.000   -13644084.491 7 -10559734.84822
  23359401.625    -2264611.550 6  -1717334.57021
  24091856.0084   -1873103.58545  -1308563.13861
  21451043.6174    2613766.44846   2038139.08862
  22723268.320    -9812395.193 6  -7208459.85121
 91  5  3 20 55 30.0000000  0  6G18G 2G11G16G19G 6
  23763109.938    15151828.227 5  11789660.78221
  21301152.8834  -13665603.80147 -10576503.10863
  23363583.344    -2242640.380 6  -1700214.20721
  24095045.938    -1856330.317 5  -1295493.13021
  21454301.9924    2630879.06246   2051473.55662
  22717014.5944   -9845254.34946  -7234064.34561
 91  5  3 20 55 45.0000000  0  6G18G 2G11G16G19G 6
  23772966.5864   15203628.33445  11830024.25661
  21297073.0394  -13687039.87247 -10593206.51562
  23367793.766    -2220524.210 6  -1682980.85621
  24098259.2274   -1839447.00945  -1282337.34961
  21457570.2894    2648062.01246   2064862.83362
  22710766.5554   -9878093.83646  -7259653.51961
 91  5  3 20 56  0.0000000  0  6G18G 2G11G16G19G 6
  23782832.6724   15255466.06945  11870417.05261
  21293008.3364  -13708397.51647 -10609848.80962
  23372025.4774   -2198268.14246  -1665638.49861
  24101493.1174   -1822458.75845  -1269099.81561
  21460854.0634    2665310.37746   2078303.08962
  22704518.8284   -9910918.59246  -7285231.20961
 91  5  3 20 56 15.0000000  0  6G18G 2G11G16G19G 6
  23792702.5084   15307340.74445  11910838.64561
  21288959.703   -13729677.398 7 -10626430.50622
  23376289.852    -2175872.959 6  -1648187.72821
  24104742.1024   -1805366.62445  -1255781.33561
  21464147.4694    2682623.53546   2091793.82862
  22698275.1564   -9943729.08746  -7310797.79061
 91  5  3 20 56 30.0000000  0  6G18G 2G11G16G19G 6
  23802581.984    15359258.850 5  11951294.06021
  21284927.5944  -13750872.75747 -10642946.34462
  23380577.320    -2153332.159 6  -1630623.49821
  24108018.125    -1788163.816 5  -1242376.61521
  21467456.9384    2700008.48646   2105340.51062
  22692034.969    -9976518.503 6  -7336347.94021
 91  5  3 20 56 45.0000000  0  6G18G 2G11G16G19G 6
  23812470.570    15411216.810 5  11991780.53121
  21280908.6564  -13771986.93147 -10659398.91663
  23384894.9454   -2130649.28946  -1612948.56361
  24111312.961    -1770853.994 5  -1228888.51621
  21470777.1954    2717461.99046   2118940.61062
  22685799.3524  -10009290.08646  -7361884.20161
 91  5  3 20 57  0.0000000  0  6G18G 2G11G16G19G 6
  23822364.922    15463218.986 5  12032301.46421
  21276907.6954  -13793015.18547 -10675784.54162
  23389241.125    -2107819.780 6  -1595159.35221
  24114628.3674   -1753433.05945
  21474110.3444    2734988.60046
  22679567.023   -10042039.096 6  -7387402.87221
 91  5  3 20 57 15.0000000  0  6G18G 2G11G16G19G 6
  23832269.711    15515258.742 5  12072851.67921
  21272920.1724  -13813963.80047 -10692108.10763
  23393610.0784   -2084850.20446  -1577261.01861
  24117962.0554   -1735907.10945
  21477460.3054    2752582.08446
  22673339.219   -10074771.683 6  -7412908.74021
 91  5  3 20 57 30.0000000  0  6G18G 2G11G16G19G 6
  23842179.445    15567336.623 5  12113431.62121
  21268949.7194  -13834832.15447 -10708369.13263
  23398008.805    -2061740.133 6  -1559253.19221
  24121318.633    -1718276.002 5
  21480822.8204    2770243.14646
  22667112.8524  -10107487.06846  -7438401.20961
 91  5  3 20 57 45.0000000  0  6G18G 2G11G16G19G 6
  23852097.7194   15619453.23045  12154041.70361
  21264993.0784  -13855619.41347 -10724566.97163
  23402432.8984   -2038488.81046  -1541135.30361
  24124695.9384   -1700539.13745
  21484195.1254    2787972.80246
  22660890.703   -10140184.369 6  -7463879.57921
 91  5  3 20 58  0.0000000  0  6G18G 2G11G16G19G 6
  23862021.5164   15671607.24445  12194680.95061
  21261052.7974  -13876326.47747 -10740702.31563
  23406885.2664   -2015097.48346  -1522908.33561
  24128086.4924   -1682697.73445
  21487580.4844    2805770.22646
  22654672.203   -10172864.472 6  -7489344.55021
 91  5  3 20 58 15.0000000  0  6G18G 2G11G16G19G 6
  23871956.422    15723800.218 5  12235350.55321
  21257128.508   -13896951.693 7 -10756773.88623
  23411362.656    -1991564.606 6  -1504571.05821
  24131503.0474   -1664750.33245  -1146210.75161
  21490983.2504    2823637.25246   2201674.40662
  22648457.352   -10205525.479 6  -7514794.64421
 91  5  3 20 58 30.0000000  0  6G18G 2G11G16G19G 6
  23881894.6884   15776028.84045  12276047.94161
  21253217.8444  -13917498.01447 -10772783.98063
  23415865.2504   -1967893.33546  -1486125.93961
  24134937.547    -1646700.096 5  -1132145.71421
  21494397.1174    2841570.87846   2215648.63162
  22642245.203   -10238170.423 6  -7540232.21421
 91  5  3 20 58 45.0000000  0  6G18G 2G11G16G19G 6
  23891840.9224   15828299.93045  12316778.39961
  21249325.4064  -13937958.29847 -10788727.03263
  23420399.414    -1944076.908 6  -1467567.71721
  24138390.914    -1628540.001 5  -1117995.06221
  21497822.7194    2859578.29046   2229680.34962
  22636036.5004  -10270791.99746  -7565651.58261
 91  5  3 20 59  0.0000000  0  6G18G 2G11G16G19G 6
  23901794.5864   15880612.12445  12357540.89461
  21245447.1564  -13958333.96247 -10804604.14163
  23424957.9064   -1920116.74546  -1448897.48761
  24141869.0164   -1610271.75545  -1103760.13161
  21501263.9844    2877658.34546   2243768.67762
  22629834.0084  -10303391.50146  -7591053.75461
 91  5  3 20 59 15.0000000  0  6G18G 2G11G16G19G 6
  23911759.5164   15932963.36645  12398333.79661
  21241585.453   -13978626.805 7 -10820416.72723
  23429547.6564   -1896014.81246  -1430116.79661
  24145365.6484   -1591897.70845  -1089442.75561
  21504716.3364    2895809.23346   2257912.19662
  22623634.172   -10335970.514 6  -7616439.95121
 91  5  3 20 59 30.0000000  0  6G18G 2G11G16G19G 6
  23921727.3754   15985353.18945  12439156.78761
  21237739.992   -13998836.961 7 -10836164.87523
  23434159.6724   -1871771.34146  -1411225.81061
  24148884.289    -1573417.973 5  -1075043.02221
  21508183.1804    2914030.99146   2272110.94062
  22617438.016   -10368529.081 6  -7641810.22221
 91  5  3 20 59 45.0000000  0  6G18G 2G11G16G19G 6
  23931702.5234   16037779.23345  12480007.98661
  21233908.539   -14018966.478 7 -10851850.19323
  23438798.844    -1847388.652 6  -1392226.33921
  24152421.328    -1554835.081 5  -1060562.92521
  21511663.0944    2932321.61346   2286363.34162
  22611245.609   -10401069.253 6  -7667166.16321
 91  5  3 21  0  0.0000000  0  6G18G 2G11G16G19G 6
  23941685.6564   16090244.52945  12520889.77861
  21230094.938   -14039011.998 7 -10867470.05323
  23443465.7664   -1822863.67246  -1373116.00161
  24155976.1484   -1536145.87045  -1045999.97061
  21515159.2734    2950684.32046   2300671.91462
  22605057.2424  -10433587.57246  -7692505.07061
 91  5  3 21  0 15.0000000  0  6G18G 2G11G16G19G 6
  23951680.1724   16142751.28945  12561803.87061
  21226296.531   -14058971.073 7 -10883022.55723
  23448159.3054   -1798194.35746  -1353893.18661
  24159552.508    -1517348.141 5  -1031352.46421
  21518667.4454    2969121.63446   2315038.62662
  22598874.203   -10466081.694 6  -7717825.12221
 91  5  3 21  0 30.0000000  0  6G18G 2G11G16G19G 6
  23961679.523    16195298.514 5  12602749.49821
  21222514.641   -14078844.513 7 -10898508.33123
  23452881.9924   -1773381.49346  -1334558.51661
  24163150.547    -1498442.771 5  -1016621.09221
  21522187.586     2987632.849 6   2329462.92422
  22592695.3754  -10498552.14346  -7743126.73061
 91  5  3 21  0 45.0000000  0  6G18G 2G11G16G19G 6
  23971684.344    16247880.661 5  12643722.33521
  21218748.719   -14098637.428 7 -10913931.36323
  23457629.3594   -1748430.51046  -1315116.22161
  24166767.8204   -1479435.36045  -1001810.18461
  21525724.3594    3006212.86146   2343940.83262
  22586521.273   -10531003.896 6  -7768413.77021
 91  5  3 21  1  0.0000000  0  6G18G 2G11G16G19G 6
  23981699.7274   16300505.14745  12684728.15361
  21214999.148   -14118342.126 7 -10929285.65223
  23462404.2734   -1723333.91046  -1295560.46361
  24170405.4534   -1460318.24745   -986913.79461
  21529275.4844    3024869.56246   2358478.49162
  22580349.1484  -10563429.24846  -7793680.23661
 91  5  3 21  1 15.0000000  0  6G18G 2G11G16G19G 6
  23991722.2194   16353170.24445  12725765.60561
  21211265.336   -14137960.207 7 -10944572.44723
  23467205.7584   -1698093.30846  -1275892.49861
  24174065.266    -1441093.590 5   -971933.59921
  21532841.508     3043601.663 6   2373074.90322
  22574184.922   -10595829.461 6  -7818927.11521
 91  5  3 21  1 30.0000000  0  6G18G 2G11G16G19G 6
  24001749.6564   16405876.42945  12766835.07761
  21207549.875   -14157490.838 7 -10959791.10423
  23472038.2894   -1672708.18946  -1256111.91761
  24177742.953    -1421760.973 5   -956869.31221
  21536421.7504    3062409.88346   2387730.62862
  22568023.5554  -10628203.79246  -7844153.83261
 91  5  3 21  1 45.0000000  0  6G18G 2G11G16G19G 6
  24011789.898    16458623.589 5  12807936.49921
  21203848.945   -14176934.205 7 -10974941.76123
  23476898.9064   -1647178.93846  -1236219.03761
  24181443.781    -1402320.635 5   -941721.07321
  21540014.2894    3081294.11946   2402445.58662
  22561866.7664  -10660552.22346  -7869360.36961
 91  5  3 21  2  0.0000000  0  6G18G 2G11G16G19G 6
  24021834.328    16511405.506 5  12849064.98421
  21200165.094   -14196296.096 7 -10990028.92723
  23481782.906    -1621511.621 6  -1216218.55721
  24185162.414    -1382778.465 5   -926493.47021
  21543620.9454    3100248.70746   2417215.36562
  22555716.9224  -10692880.50846  -7894551.19461
 91  5  3 21  2 15.0000000  0  6G18G 2G11G16G19G 6
  24031886.344    16564229.803 5  12890226.49221
  21196496.828   -14215568.699 7 -11005046.52423
  23486691.6024   -1595698.60046  -1196104.55261
  24188903.797    -1363127.211 5   -911180.89421
  21547241.8204    3119281.46446   2432046.05662
  22549570.3524  -10725180.83546  -7919720.24261
 91  5  3 21  2 30.0000000  0  6G18G 2G11G16G19G 6
  24041947.227    16617098.144 5  12931422.33921
  21192847.453   -14234749.740 7 -11019992.77223
  23491634.5084   -1569737.92046  -1175875.48661
  24192661.820    -1343364.676 5   -895781.53621
  21550879.9844    3138394.68746   2446939.44462
  22543428.7114  -10757450.69346  -7944865.54461
 91  5  3 21  2 45.0000000  0  6G18G 2G11G16G19G 6
  24052015.0784   16670006.16245  12972649.07761
  21189214.266   -14253843.760 7 -11034871.21123
  23496601.5394   -1543634.23746  -1155534.98061
  24196443.469    -1323495.513 5   -880299.18321
  21554529.8754    3157584.18146   2461892.26562
  22537293.1954  -10789694.49046  -7969990.53961
 91  5  3 21  3  0.0000000  0  6G18G 2G11G16G19G 6
  24062091.664    16722957.534 5  13013909.61421
  21185596.391   -14272846.605 7 -11049678.60423
  23501596.9774   -1517383.70146  -1135080.05361
  24200243.094    -1303516.137 5   -864730.90021
  21558197.7584    3176853.80846   2476907.52762
  22531161.523   -10821908.102 6  -7995092.00921
 91  5  3 21  3 15.0000000  0  6G18G 2G11G16G19G 6
  24072173.945    16775947.742 5  13055200.41421
  21181997.781   -14291762.659 7 -11064418.37023
  23506618.6884   -1490990.75846  -1114514.15961
  24204066.453    -1283430.930 5   -849080.16421
  21561878.4144    3196199.33646   2491981.93062
  22525038.2194  -10854095.60746  -8020173.13961
 91  5  3 21  3 30.0000000  0  6G18G 2G11G16G19G 6
  24082269.523    16828984.044 5  13096527.10921
  21178415.836   -14310584.456 7 -11079084.68523
  23511669.7664   -1464448.19246  -1093831.67661
  24207909.313    -1263232.942 5   -833341.56321
  21565576.3594    3215628.46246   2507121.47362
  22518918.711   -10886249.453 6  -8045228.03621
 91  5  3 21  3 45.0000000  0  6G18G 2G11G16G19G 6
  24092367.523    16882066.659 5  13137889.91421
  21174852.844   -14329311.356 7 -11093677.05723
  23516749.4304   -1437755.66746  -1073032.34561
  24211773.125    -1242921.828 5   -817514.80721
  21569289.2034    3235141.78246   2522326.62762
  22512806.875   -10918369.045 6  -8070256.24421
 91  5  3 21  4  0.0000000  0  6G18G 2G11G16G19G 6
  24102480.039    16935197.984 5  13179290.64521
  21171307.977   -14347940.905 7 -11108193.57523
  23521857.6414   -1410910.93746  -1052114.40961
  24215660.2814   -1222495.39645   -801598.17761
  21573019.2974    3254742.06146   2537599.53762
  22506700.430   -10950451.735 6  -8095255.69921
 91  5  3 21  4 15.0000000  0  6G18G 2G11G16G19G 6
  24112599.5394   16988377.87845  13220729.24461
  21167780.703   -14366472.871 7 -11122634.04623
  23526995.4304   -1383913.92746  -1031077.81661
  24219573.3834   -1201953.54645   -785591.63561
  21576764.8284    3274429.49946   2552940.36162
  22500603.445   -10982497.233 6  -8120226.17021
 91  5  3 21  4 30.0000000  0  6G18G 2G11G16G19G 6
  24122727.594    17041601.670 5  13262202.04221
  21164272.195   -14384911.780 7 -11137002.01123
  23532160.3524   -1356769.37246  -1009926.24361
  24223501.422    -1181301.012 5   -769498.81821
  21580527.9774    3294199.70946   2568345.68862
  22494510.4384  -11014509.83046  -8145171.01861
 91  5  3 21  4 45.0000000  0  6G18G 2G11G16G19G 6
  24132869.977    17094874.732 5  13303713.23921
  21160782.625   -14403251.678 7 -11151292.82323
  23537354.5634   -1329471.49046   -988655.20061
  24227454.1724   -1160532.21345   -753315.43761
  21584305.5784    3314058.59546   2583820.11062
  22488426.3594  -11046483.43846  -8170085.47261
 91  5  3 21  5  0.0000000  0  6G18G 2G11G16G19G 6
  24143014.438    17148198.786 5  13345264.15421
  21157311.617   -14421490.808 7 -11165505.11523
  23542579.9614   -1302018.89746   -967263.60461
  24231430.7424   -1139645.64044   -737040.27361
  21588101.0164    3334007.94246   2599365.01962
  22482349.5554  -11078416.28146  -8194968.16461
 91  5  3 21  5 15.0000000  0  6G18G 2G11G16G19G 6
  24153169.680    17201577.497 5  13386857.65521
  21153860.125   -14439625.060 7 -11179635.68223
  23547833.5394   -1274407.66846   -945748.38661
  24235428.258    -1118637.410 4   -720670.26621
  21591917.1414    3354051.89946   2614983.65462
  22476282.6254  -11110304.15246  -8219815.81761
 91  5  3 21  5 30.0000000  0  6G18G 2G11G16G19G 6
  24163338.102    17255011.540 5  13428494.29821
  21150429.422   -14457653.547 7 -11193683.83623
  23553120.1334   -1246637.20346   -924109.09861
  24239449.984    -1097506.892 4   -704205.05021
  21595749.8594    3374191.44046   2630676.76362
  22470222.914   -11142146.066 6  -8244627.65521
 91  5  3 21  5 45.0000000  0  6G18G 2G11G16G19G 6
  24173519.4614   17308501.16445  13470174.21361
  21147019.484   -14475575.935 7 -11207649.31023
  23558432.6644   -1218707.23846   -902345.51761
  24243492.461    -1076254.267 4   -687644.63321
  21599600.3754    3394427.15146   2646444.82162
  22464173.2034  -11173941.38646  -8269403.18661
 91  5  3 21  6  0.0000000  0  6G18G 2G11G16G19G 6
  24183708.344    17362048.384 5  13511899.04521
  21143629.234   -14493390.177 7 -11221530.51823
  23563780.141    -1190616.143 6   -880456.38321
  24247561.680    -1054877.800 4   -670987.74221
  21603468.9144    3414761.05546   2662289.38962
  22458131.602   -11205688.146 6  -8294140.87521
 91  5  3 21  6 15.0000000  0  6G18G 2G11G16G19G 6
  24193909.664    17415656.191 5  13553671.05921
  21140260.883   -14511092.810 7 -11235324.76023
  23569156.4144   -1162360.68946   -858439.18461
  24251654.7974   -1033374.04343   -654231.64761
  21607356.7974    3435196.74446   2678213.26462
  22452100.3364  -11237382.68446  -8318837.88361
 91  5  3 21  6 30.0000000  0  6G18G 2G11G16G19G 6
  24204124.633    17469325.851 5  13595491.25321
  21136914.250   -14528682.529 7 -11249031.01723
  23574563.3134   -1133939.61046   -836292.92061
  24255769.211    -1011741.979 3   -637375.58821
  21611266.4774    3455735.75446   2694217.65162
  22446079.375   -11269023.449 6  -8343492.97921
 91  5  3 21  6 45.0000000  0  6G18G 2G11G16G19G 6
  24214348.6564   17523063.23745  13637364.25161
  21133588.266   -14546153.102 7 -11262644.42923
  23580004.4224   -1105346.87146   -814012.89061
  24259911.7814    -989975.39943   -620414.70461
  21615196.5314    3476384.39246   2710307.46362
  22440069.875   -11300604.082 6  -8368101.21721
 91  5  3 21  7  0.0000000  0  6G18G 2G11G16G19G 6
  24224590.0084   17576870.60445  13679291.78061
  21130287.781   -14563501.924 7 -11276162.97323
  23585480.297    -1076580.076 6   -791597.23421
  24264077.2974    -968072.13543   -603347.29761
  21619148.0004    3497145.27046   2726484.73662
  22434071.195   -11332121.864 6  -8392660.48921
 91  5  3 21  7 15.0000000  0  6G18G 2G11G16G19G 6
  24234841.2894   17630748.48445  13721274.22861
  21127010.680   -14580728.117 7 -11289585.96123
  23590988.148    -1047638.733 6   -769045.56521
  24268275.9304    -946031.81343   -586173.09561
  21623120.3674    3518019.17046   2742750.07062
  22428085.477   -11363575.933 6  -8417170.11021
 91  5  3 21  7 30.0000000  0  6G18G 2G11G16G19G 6
  24245107.7584   17684697.19445  13763311.87461
  21123754.805   -14597831.242 7 -11302913.05123
  23596526.3204   -1018522.59546   -746357.69761
  24272491.922     -923854.304 2   -568892.03321
  21627112.7424    3539006.61846   2759103.89262
  22422112.828   -11394965.661 6  -8441629.59221
 91  5  3 21  7 45.0000000  0  6G18G 2G11G16G19G 6
  24255388.469    17738723.678 5  13805410.12421
  21120525.258   -14614804.276 7 -11316138.77523
  23602101.4144    -989224.86246   -723528.32061
  24276740.906     -901532.963 2   -551498.86321
  21631130.5784    3560114.85246   2775551.82762
  22416152.602   -11426283.938 6  -8466033.41021
 91  5  3 21  8  0.0000000  0  6G18G 2G11G16G19G 6
  24265683.3524   17792826.93645  13847568.21361
  21117320.180   -14631647.542 7 -11329263.38123
  23607713.6884    -959746.10646   -700557.90061
  24281016.742     -879068.242 3   -533994.01221
  21635170.3134    3581343.40046   2792093.52262
  22410206.773   -11457531.038 6  -8490381.75021
 91  5  3 21  8 15.0000000  0  6G18G 2G11G16G19G 6
  24275995.789    17847010.707 5  13889789.01721
  21114140.711   -14648357.352 7 -11342283.99123
  23613356.219     -930082.808 6   -677443.66721
  24285317.7114    -856456.58643   -516374.63161
  21639233.3754    3602696.07146   2808731.93062
  22404274.3984  -11488702.98346  -8514671.54161
 91  5  3 21  8 30.0000000  0  5G18G 2G11G19G 6
  24286323.031    17901279.860 5  13932076.34821
  21110986.734   -14664928.348 7 -11355196.43723
  23619036.555     -900229.805 6   -654181.61921
  21643321.1094    3624178.57846   2825471.50562
  22398356.766   -11519794.352 6  -8538898.54321
 91  5  3 21  8 45.0000000  0  5G18G 2G11G19G 6
  24296667.398    17955635.510 5  13974431.08421
  21107859.930   -14681359.528 7 -11367999.93623
  23624755.1954    -870186.53846   -630771.30861
  21647433.7194    3645791.78546   2842312.93262
  22392457.5004  -11550804.03846  -8563061.89461
 91  5  3 21  9  0.0000000  0  5G18G 2G11G19G 6
  24307030.6954   18010081.44545  14016856.17361
  21104760.719   -14697646.594 7 -11380691.13723
  23630508.734     -839948.835 6   -607209.49121
  21651573.5084    3667540.09246   2859259.62462
  22386573.7974  -11581727.48146  -8587158.04561
 91  5  3 21  9 15.0000000  0  5G18G 2G11G19G 6
  24317404.719    18064617.924 5  14059351.82121
  21101688.914   -14713789.399 7 -11393269.92823
  23636299.8054    -809516.81246   -583496.26361
  21655737.5784    3689423.70846   2876311.75662
  22380703.2974  -11612564.49746  -8611186.85461
 91  5  3 21  9 30.0000000  0  5G18G 2G11G19G 6
  24327801.0314   18119247.85745  14101920.29261
  21098644.984   -14729784.735 7 -11405733.81023
  23642127.281     -778887.442 6   -559629.26421
  21659925.906     3711446.051 6   2893471.98022
  22374855.2114  -11643311.67346  -8635145.64961
 91  5  3 21  9 45.0000000  0  5G18G 2G11G19G 6
  24338216.875    18173976.024 5  14144565.30321
  21095630.258   -14745627.320 7 -11418078.66623
  23647996.188     -748055.689 6   -535604.55421
  21664145.0634    3733612.57346   2910744.55462
  22369021.2664  -11673963.68346  -8659030.30061
 91  5  3 21 10  0.0000000  0  5G18G 2G11G19G 6
  24348649.5864   18228800.33145  14187285.24261
  21092643.398   -14761319.121 7 -11430306.02523
  23653901.1884    -717023.64246   -511423.77561
  21668393.2734    3755921.25846   2928127.90862
  22363205.2664  -11704522.22246  -8682842.11561
 91  5  3 21 10 15.0000000  0  5G18G 2G11G19G 6
  24359100.273    18283724.143 5  14230082.69121
  21089687.734   -14776856.262 7 -11442412.86923
  23659845.1954    -685787.89346   -487084.26661
  21672664.4844    3778376.02346   2945625.09062
  22357407.3674  -11734983.44346  -8706578.09561
 91  5  3 21 10 30.0000000  0  5G18G 2G11G19G 6
  24369572.4064   18338751.36445  14272960.74761
  21086760.820   -14792234.881 7 -11454396.20023
  23665827.6094    -654344.66846   -462583.08261
  21676965.375     3800980.875 6   2963239.21322
  22351630.8054  -11765343.25046  -8730235.05161
 91  5  3 21 10 45.0000000  0  5G18G 2G11G19G 6
  24380064.313    18393879.650 5  14315917.51821
  21083864.289   -14807457.114 7 -11466257.65723
  23671850.4454    -622696.20546   -437921.98161
  21681295.0634    3823733.90146   2980968.80962
  22345873.398   -11795603.500 6  -8753814.42621
 91  5  3 21 11  0.0000000  0  5G18G 2G11G19G 6
  24390575.3524   18449110.88945  14358954.52661
  21080997.930   -14822520.942 7 -11477995.68623
  23677913.1954    -590840.79646   -413099.62661
  21685656.852     3846637.016 6   2998815.34722
  22340134.4064  -11825762.16946  -8777314.65661
 91  5  3 21 11 15.0000000  0  5G18G 2G11G19G 6
  24401104.398    18504445.361 5  14402071.99021
  21078161.781   -14837425.517 7 -11489609.62523
  23684014.5944    -558778.00546   -388115.66361
  21690039.555     3869691.036 6   3016779.47922
  22334415.5864  -11855818.42246  -8800735.07761
 91  5  3 21 11 30.0000000  0  5G18G 2G11G19G 6
  24411654.125    18559886.068 5  14445272.22321
  21075356.016   -14852167.687 7 -11501097.01423
  23690156.234     -526504.818 6   -362967.76721
  21694459.375     3892899.330 6   3034863.82122
  22328715.7894  -11885768.83146  -8824073.02561
 91  5  3 21 11 45.0000000  0  5G18G 2G11G19G 6
  24422222.727    18615428.552 5  14488551.74721
  21072580.477   -14866751.727 7 -11512461.18223
  23696332.9064    -494025.88946   -337659.54161
  21698901.9924    3916257.61546   3053065.04262
  22323035.2894  -11915617.60946  -8847331.77761
 91  5  3 21 12  0.0000000  0  5G18G 2G11G19G 6
  24432811.680    18671074.957 5  14531912.26521
  21069835.930   -14881175.348 7 -11523700.35623
  23702556.672     -461338.946 6   -312189.24721
  21703377.789     3939768.436 6   3071385.11522
  22317374.7734  -11945362.17646  -8870509.32361
 91  5  3 21 12 15.0000000  0  5G18G 2G11G19G 6
  24443422.5474   18726823.10045  14575352.06061
  21067121.734   -14895440.196 7 -11534815.79923
  23708815.8754    -428446.02946   -286558.43861
  21707878.5704    3963430.13146   3089822.76162
  22311734.3754  -11975004.17646  -8893606.95161
 91  5  3 21 12 30.0000000  0  5G18G 2G11G19G 6
  24454050.9534   18782670.14545  14618868.91461
  21064436.813   -14909548.911 7 -11545809.58923
  23715112.063     -395350.065 6   -260769.42221
  21712412.1414    3987240.02546   3108375.88662
  22306111.4534  -12004546.10246  -8916626.59561
 91  5  3 21 12 45.0000000  0  5G18G 2G11G19G 6
  24464696.2894   18838618.54245  14662464.73861
  21061782.094   -14923499.028 7 -11556679.79423
  23721451.1414    -362048.73146   -234820.36261
  21716969.313     4011200.764 6   3127046.55022
  22300511.5314  -12033985.27646  -8939566.17661
 91  5  3 21 13  0.0000000  0  4G 2G11G19G 6
  21059156.930   -14937292.673 7 -11567428.06923
  23727824.6954    -328544.46346   -208713.18361
  21721555.898     4035310.274 6   3145833.13622
  22294926.4694  -12063323.65346  -8962427.22061
 91  5  3 21 13 15.0000000  0  4G 2G11G19G 6
  21056560.680   -14950931.223 7 -11578055.49223
  23734239.1804    -294838.77346   -182449.04961
  21726173.2734    4059567.33746   3164734.69962
  22289364.5164  -12092562.46546  -8985210.67361
 91  5  3 21 13 30.0000000  0  4G 2G11G19G 6
  21053995.141   -14964419.416 7 -11588565.75723
  23740691.891     -260936.532 6   -156031.76321
  21730815.000     4083967.214 6   3183747.54222
  22283818.0864  -12121706.19446  -9007920.03761
 91  5  3 21 13 45.0000000  0  4G 2G11G19G 6
  21051456.586   -14977759.786 7 -11598960.83223
  23747179.5784    -226840.67946   -129463.59961
  21735485.445     4108507.438 6   3202869.75422
  22278289.3674  -12150757.31346  -9030557.23661
 91  5  3 21 14  0.0000000  0  4G 2G11G19G 6
  21048945.078   -14990960.019 7 -11609246.71123
  23753700.3284    -192559.16846   -102750.77561
  21740184.1094    4133180.36246   3222095.37062
  22272777.3204  -12179723.46446  -9053128.23061
 91  5  3 21 14 15.0000000  0  4G 2G11G19G 6
  21046459.656   -15004019.314 7 -11619422.76523
  23760260.7274    -158091.31946    -75892.75061
  21744902.6094    4157987.04846   3241425.21462
  22267282.1724  -12208603.51446  -9075632.13161
 91  5  3 21 14 30.0000000  0  4G 2G11G19G 6
  21044000.602   -15016939.035 7 -11629490.06223
  23766856.7114    -123439.14146    -48891.09161
  21749646.9304    4182926.02446   3260858.14061
  22261802.7814  -12237399.00146  -9098070.14061
 91  5  3 21 14 45.0000000  0  4G 2G11G19G 6
  21041566.898   -15029728.920 7 -11639456.18823
  23773482.1564     -88612.44346    -21753.43661
  21754416.273     4207987.753 6   3280386.71422
  22256336.9694  -12266119.32446  -9120449.57461
 91  5  3 21 15  0.0000000  0  4G 2G11G19G 6
  21039156.930   -15042393.933 7 -11649325.01123
  23780143.2974     -53616.12046      5516.38661
  21759207.8674    4233167.53946   3300007.28862
  22250886.0164  -12294769.16446  -9142774.09561
 91  5  3 21 15 15.0000000  0  4G 2G11G19G 6
  21036770.156   -15054935.956 7 -11659098.00323
  23786834.555      -18452.530 6     32916.54921
  21764022.781     4258463.471 6   3319718.35622
  22245446.813   -12323350.232 6  -9165045.02321
 91  5  3 21 15 30.0000000  0  4G 2G11G19G 6
  21034405.961   -15067363.020 7 -11668781.41423
  23793555.7274      16870.00946     60440.56661
  21768857.984     4283867.532 6   3339513.69122
  22240018.9454  -12351870.58746  -9187268.64461
 91  5  3 21 15 45.0000000  0  4G 2G11G19G 6
  21032060.547   -15079680.605 7 -11678379.51823
  23800307.9384      52345.82246     88084.02561
  21773710.5474    4309374.23446   3359389.00261
  22234602.8134  -12380335.55646  -9209449.10361
 91  5  3 21 16  0.0000000  0  4G 2G11G19G 6
  21029738.094   -15091888.864 7 -11687892.43423
  23807086.4224      87974.59246    115846.66761
  21778584.555     4334983.524 6   3379344.24522
  22229195.7194  -12408744.96346  -9231586.26861
 91  5  3 21 16 15.0000000  0  4G 2G11G19G 6
  21027435.320   -15103993.666 7 -11697324.73423
  23813896.719      123750.131 6    143723.67921
  21783475.7734    4360689.59746   3399374.91162
  22223799.6414  -12437104.60246  -9253684.65261
 91  5  3 21 16 30.0000000  0  4G 2G11G19G 6
  21025149.5234  -15116002.13547 -11706681.97163
  23820728.2344     159665.03946    171709.28061
  21788385.500     4386485.416 6   3419475.50322
  22218411.0944  -12465421.35946  -9275749.62361
 91  5  3 21 16 45.0000000  0  4G 2G11G19G 6
  21022884.430   -15127911.192 7 -11715961.73823
  23827591.570      195722.215 6    199805.74021
  21793311.531     4412374.083 6   3439648.45122
  22213029.9224  -12493691.90646  -9297778.58761
 91  5  3 21 17  0.0000000  0  4G 2G11G19G 6
  21020634.500   -15139727.700 7 -11725169.39123
  23834478.453      231914.524 6    228007.52221
  21798252.836     4438348.992 6   3459888.59622
  22207659.2194  -12521923.14546  -9319776.92161
 91  5  3 21 17 15.0000000  0  4G 2G11G19G 6
  21018402.078   -15151456.815 7 -11734308.94823
  23841389.7504     268236.48546    256310.30261
  21803211.633     4464404.967 6   3480191.91022
  22202293.3444  -12550120.02846  -9341748.47861
 91  5  3 21 17 30.0000000  0  4G 2G11G19G 6
  21016186.703   -15163103.665 7 -11743384.40223
  23848325.0634     304682.72746    284709.94061
  21808183.852     4490536.982 6   3500554.47122
  22196932.6954  -12578287.51446  -9363697.13861
 91  5  3 21 17 45.0000000  0  4G 2G11G19G 6
  21013985.711   -15174667.847 7 -11752395.44023
  23855286.328      341253.391 6    313206.53621
  21813172.516     4516745.565 6   3520976.69822
  22191578.6564  -12606425.14346  -9385622.52261
 91  5  3 21 18  0.0000000  0  4G 2G11G19G 6
  21011799.5234  -15186154.09247 -11761345.75163
  23862269.672      377943.549 6    341796.23321
  21818174.1484    4543026.06746   3541454.97162
  22186228.9924  -12634537.31846  -9407528.07561
 91  5  3 21 18 15.0000000  0  4G 2G11G19G 6
  21009628.688   -15197565.202 7 -11770237.50723
  23869270.1414     414749.90046    370476.47161
  21823187.508     4569375.535 6   3561986.98421
  22180884.1334  -12662626.91146  -9429416.03661
 91  5  3 21 18 30.0000000  0  4G 2G11G19G 6
  21007471.4774  -15208904.62647 -11779073.41063
  23876295.8984     451668.89746    399244.47861
  21828213.5864    4595790.77246   3582570.24462
  22175541.9064  -12690697.02846  -9451288.82061
 91  5  3 21 18 45.0000000  0  4G 2G11G19G 6
  21005327.359   -15220171.112 7 -11787852.47623
  23883341.6804     488701.49346    428101.00861
  21833253.1804    4622273.08246   3603205.76961
  22170204.4924  -12718746.35146  -9473145.40061
 91  5  3 21 19  0.0000000  0  4G 2G11G19G 6
  21003197.9614  -15231362.51547 -11796573.04163
  23890412.6024     525849.53246    457047.49761
  21838304.016     4648824.671 6   3623895.27222
  22164871.6954  -12746772.47046  -9494983.90261
 91  5  3 21 19 15.0000000  0  4G 2G11G19G 6
  21001079.820   -15242487.372 7 -11805241.74823
  23897502.094      563104.295 6    486077.13421
  21843370.8914    4675437.26446   3644632.31862
  22159540.6334  -12774783.84646  -9516810.91661
 91  5  3 21 19 30.0000000  0  4G 2G11G19G 6
  20998976.484   -15253546.504 7 -11813859.24023
  23904610.3134     600464.83346    515189.20961
  21848445.453     4702110.031 6   3665416.24722
  22154213.5084  -12802780.94446  -9538626.79561
 91  5  3 21 19 45.0000000  0  4G 2G11G19G 6
  20996883.453   -15264541.792 7 -11822426.98423
  23911740.594      637929.072 6    544382.07921
  21853531.555     4728841.230 6   3686245.70121
  22148887.2734  -12830765.49846  -9560432.91061
 91  5  3 21 20  0.0000000  0  4G 2G11G19G 6
  20994803.727   -15275471.822 7 -11830943.87623
  23918890.820      675498.068 6    573656.58021
  21858631.172     4755632.254 6   3707121.77821
  22143564.4384  -12858735.87446  -9582227.97361
 91  5  3 21 20 15.0000000  0  4G 2G11G19G 6
  20992735.445   -15286338.954 7 -11839411.75823
  23926057.7894     713169.30746    603010.76461
  21863741.070     4782480.811 6   3728042.68222
  22138245.7034  -12886694.22746  -9604013.67061
 91  5  3 21 20 30.0000000  0  4G 2G11G19G 6
  20990677.8834  -15297148.20447 -11847834.53963
  23933246.5314     750937.38246    632440.39061
  21868860.422     4809382.015 6   3749004.60921
  22132926.5634  -12914645.49846  -9625793.84561
 91  5  3 21 20 45.0000000  0  4G 2G11G19G 6
  20988633.0864  -15307893.40547 -11856207.41063
  23940453.156      788808.236 6    661950.10121
  21873990.289     4836342.052 6   3770012.38321
  22127609.1804  -12942583.39146  -9647563.59862
 91  5  3 21 21  0.0000000  0  4G 2G11G19G 6
  20986599.2344  -15318582.63947 -11864536.67563
  23947676.2894     826773.34346    691533.26761
  21879128.313     4863352.942 6   3791059.78222
  22122293.5634  -12970515.86346  -9669329.12862
 91  5  3 21 21 15.0000000  0  4G 2G11G19G 6
  20984577.328   -15329210.633 7 -11872818.21723
  23954918.6644     864837.67646    721193.74561
  21884279.766     4890420.126 6   3812151.04121
  22116980.3134  -12998437.43246  -9691086.16262
 91  5  3 21 21 30.0000000  0  4G 2G11G19G 6
  20982566.0864  -15339781.22247 -11881055.02963
  23962180.789      902997.210 6    750928.39921
  21889442.078     4917539.645 6   3833283.08321
  22111668.9694  -13026351.87446  -9712837.64462
 91  5  3 21 21 45.0000000  0  4G 2G11G19G 6
  20980564.0864  -15350297.21847 -11889249.30363
  23969460.0944     941248.99746    780734.94761
  21894610.367     4944708.834 6   3854453.83321
  22106357.4924  -13054261.64546  -9734585.48462
 91  5  3 21 22  0.0000000  0  4G 2G11G19G 6
  20978574.2194  -15360756.77047 -11897399.59663
  23976755.758      979594.655 6    810614.64521
  21899789.898     4971929.844 6   3875664.95721
  22101047.4694  -13082164.66446  -9756328.06762
 91  5  3 21 22 15.0000000  0  4G 2G11G19G 6
  20976594.2344  -15371158.23547 -11905504.62363
  23984072.6724    1018035.37446    840568.41361
  21904981.664     4999204.191 6   3896917.64421
  22095740.6804  -13110059.25746  -9778064.07862
 91  5  3 21 22 30.0000000  0  4G 2G11G19G 6
  20974625.9534  -15381504.56447 -11913566.68963
  23991404.4694    1056568.13746    870593.90961
  21910183.508     5026529.056 6   3918209.68921
  22090431.5944  -13137947.98146  -9799795.52562
 91  5  3 21 22 45.0000000  0  4G 2G11G19G 6
  20972669.0234  -15391790.40847 -11921581.62763
  23998756.6254    1095197.97546    900695.03561
  21915391.438     5053909.877 6   3939545.34821
  22085127.6954  -13165825.39946  -9821518.15362
 91  5  3 21 23  0.0000000  0  4G 2G11G19G 6
  20970721.8754  -15402018.60147 -11929551.63763
  24006124.3364    1133921.78846    930869.40361
  21920611.055     5081343.968 6   3960922.50721
  22079824.7114  -13193694.08646  -9843233.98561
 91  5  3 21 23 15.0000000  0  4G 2G11G19G 6
  20968787.7974  -15412186.20747 -11937474.43963
  24013511.484     1172742.154 6    961119.00021
  21925844.219     5108834.045 6   3982343.29221
  22074523.8834  -13221551.22046  -9864940.81562
 91  5  3 21 23 30.0000000  0  4G 2G11G19G 6
  20966863.1954  -15422295.49347 -11945351.79563
  24020918.211     1211656.715 6    991441.99121
  21931088.4454    5136378.04846   4003806.09661
  22069224.9534  -13249398.63146  -9886640.06362
 91  5  3 21 23 45.0000000  0  4G 2G11G19G 6
  20964949.7894  -15432353.35447 -11953189.08163
  24028338.219     1250658.291 6   1021832.78521
  21936334.977     5163969.283 6   4025305.70421
  22063926.2194  -13277243.06247  -9908336.99362
 91  5  3 21 24  0.0000000  0  4G 2G11G19G 6
  20963046.1174  -15442355.23647 -11960982.74763
  24035780.1094    1289751.03246   1052294.62061
  21941597.813     5191612.181 6   4046845.57921
  22058627.5944  -13305079.86746  -9930027.97762
 91  5  3 21 24 15.0000000  0  4G 2G11G19G 6
  20961152.6804  -15452302.05847 -11968733.51063
  24043235.8984    1328933.85846   1082826.66361
  21946865.3204    5219305.96446   4068425.09161
  22053332.3914  -13332909.72146  -9951713.54862
 91  5  3 21 24 30.0000000  0  4G 2G11G19G 6
  20959272.1644  -15462192.59047 -11976440.41163
  24050708.7274    1368207.72045   1113429.62161
  21952147.7424    5247052.11946   4090045.41861
  22048037.0234  -13360731.21746  -9973392.59962
 91  5  3 21 24 45.0000000  0  4G 2G11G19G 6
  20957399.5634  -15472026.13947 -11984102.90563
  24058199.211     1407572.927 5   1144103.76021
  21957434.828     5274851.288 6   4111707.06121
  22042744.8834  -13388543.42246  -9995064.41862
 91  5  3 21 25  0.0000000  0  4G 2G11G19G 6
  20955541.1644  -15481799.88747 -11991718.80663
  24065709.016     1447032.066 5   1174851.09621
  21962737.6644    5302706.49946   4133412.36361
  22037456.0084  -13416343.36846 -10016726.68562
 91  5  3 21 25 15.0000000  0  4G 2G11G19G 6
  20953692.4224  -15491517.41047 -11999290.89463
  24073235.9614    1486581.24545   1205668.60561
  21968047.883     5330613.944 6   4155158.37121
  22032166.8594  -13444134.55546 -10038382.11862
 91  5  3 21 25 30.0000000  0  4G 2G11G19G 6
  20951853.3284  -15501177.66947 -12006818.36263
  24080779.0944    1526221.24545   1236556.87561
  21973367.055     5358574.898 6   4176946.07521
  22026879.8914  -13471915.76746 -10060029.78362
 91  5  3 21 25 45.0000000  0  4G 2G11G19G 6
  20950024.4304  -15510781.45847 -12014301.83063
  24088337.594     1565950.990 5   1267515.06421
  21978698.6724    5386588.55746   4198774.84261
  22021595.6414  -13499687.42646 -10081670.00562
 91  5  3 21 26  0.0000000  0  4G 2G11G19G 6
  20948209.1254  -15520324.40347 -12021737.88363
  24095914.2504    1605774.86345   1298546.62461
  21984040.664     5414659.668 6   4220648.38821
  22016313.8594  -13527444.92046 -10103299.18762
 91  5  3 21 26 15.0000000  0  4G 2G11G19G 6
  20946402.8134  -15529812.38447 -12029131.10863
  24103510.5704    1645686.34945   1329646.44461
  21989392.758     5442782.099 6   4242561.91521
  22011033.1334  -13555194.06246 -10124921.86562
 91  5  3 21 26 30.0000000  0  4G 2G11G19G 6
  20944609.3364  -15539240.04047 -12036477.32663
  24111125.6414    1685690.68946   1360818.60661
  21994757.766     5470961.497 6   4264519.83121
  22005754.2274  -13582929.32346 -10146533.72162
 91  5  3 21 26 45.0000000  0  4G 2G11G19G 6
  20942827.2894  -15548606.55547 -12043775.90663
  24118754.6884    1725788.39246   1392063.53261
  22000129.523     5499198.504 6   4286522.64621
  22000478.844   -13610649.711 6 -10168133.99622
 91  5  3 21 27  0.0000000  0  4G 2G11G19G 6
  20941057.9224  -15557911.98547 -12051026.88963
  24126404.813     1765978.947 6   1423380.79921
  22005511.945     5527493.129 6   4308570.35121
  21995207.3754  -13638355.16046 -10189722.62362
 91  5  3 21 27 15.0000000  0  4G 2G11G19G 6
  20939298.1804  -15567154.97947 -12058229.21663
  24134068.6484    1806263.81046   1454771.54861
  22010909.289     5555846.984 6   4330664.21421
  21989937.9304  -13666044.06146 -10211298.35762
 91  5  3 21 27 30.0000000  0  4G 2G11G19G 6
  20937551.6414  -15576335.41947 -12065382.80263
  24141753.109     1846642.733 6   1486235.60321
  22016314.555     5584260.242 6   4352804.35821
  21984671.805   -13693715.874 6 -10232860.78322
 91  5  3 21 27 45.0000000  0  4G 2G11G19G 6
  20935815.0474  -15585457.51147 -12072490.92363
  24149453.641     1887110.965 6   1517769.24521
  22021732.758     5612728.748 6   4374987.55621
  21979409.6024  -13721374.85647 -10254413.20462
 91  5  3 21 28  0.0000000  0  4G 2G11G19G 6
  20934091.0084  -15594516.50947 -12079549.87463
  24157172.5084    1927673.16146   1549376.11861
  22027159.6484    5641257.35946   4397217.58061
  21974149.1334  -13749015.91846 -10275951.65662
 91  5  3 21 28 15.0000000  0  4G 2G11G19G 6
  20932378.9924  -15603513.75447 -12086560.70863
  24164909.414     1968327.741 6   1581054.97521
  22032600.930     5669844.881 6   4419493.52121
  21968893.6094  -13776640.16547 -10297477.01162
 91  5  3 21 28 30.0000000  0  4G 2G11G19G 6
  20930677.7034  -15612449.52947 -12093523.63963
  24172661.8834    2009074.19446   1612805.41261
  22038052.5704    5698491.08846   4441815.18561
  21963639.8754  -13804247.68946 -10318989.33162
 91  5  3 21 28 45.0000000  0  4G 2G11G19G 6
  20928988.7814  -15621322.44047 -12100437.58963
  24180433.789     2049913.574 6   1644628.26521
  22043513.8444    5727197.43346   4464183.70661
  21958390.1954  -13831836.99147 -10340487.45862
 91  5  3 21 29  0.0000000  0  4G 2G11G19G 6
  20927314.4224  -15630131.47347 -12107301.76363
  24188223.211     2090846.703 6   1676524.16421
  22048988.8984    5755965.05846   4486599.97561
  21953144.2584  -13859406.75647 -10361970.36062
 91  5  3 21 29 15.0000000  0  4G 2G11G19G 6
  20925649.1644  -15638882.39147 -12114120.65463
  24196028.5004    2131867.29746   1708488.21761
  22054473.461     5784788.213 6   4509059.52821
  21947898.8914  -13886962.64647 -10383442.44762
 91  5  3 21 29 30.0000000  0  4G 2G11G19G 6
  20923995.8834  -15647572.47247 -12120892.13763
  24203851.109     2172977.829 6   1740522.36121
  22059969.3754    5813669.59046   4531564.44361
  21942658.7344  -13914501.79347 -10404901.49262
 91  5  3 21 29 45.0000000  0  4G 2G11G19G 6
  20922352.6174  -15656200.24247 -12127615.06963
  24211691.6094    2214179.54046   1772627.55261
  22065478.6254    5842610.69646   4554115.89261
  21937422.9694  -13942022.50447 -10426346.16762
 91  5  3 21 30  0.0000000  0  4G 2G11G19G 6
  20920722.5634  -15664769.03347 -12134292.04063
  24219550.5084    2255468.85846   1804801.00061
  22070994.047     5871608.390 6   4576711.44421
  21932188.1644  -13969527.76947 -10447778.80562
 91  5  3 21 30 15.0000000  0  4G 2G11G19G 6
  20919105.4924  -15673272.32548 -12140917.97563
  24227425.398     2296852.108 6   1837047.65321
  22076526.8754    5900669.11446   4599356.10261
  21926957.5084  -13997010.95747 -10469194.24862
 91  5  3 21 30 30.0000000  0  4G 2G11G19G 6
  20917497.1884  -15681716.90447 -12147498.15663
  24235316.297     2338322.314 6   1869362.04421
  22082067.398     5929786.321 6   4622044.77821
  21921731.8754  -14024478.51047 -10490597.50362
 91  5  3 21 30 45.0000000  0  4G 2G11G19G 6
  20915902.1804  -15690096.48447 -12154027.69263
  24243225.773     2379885.377 5   1901748.81521
  22087620.234     5958966.266 6   4644782.34021
  21916507.9774  -14051924.02547 -10511983.58562
 91  5  3 21 31  0.0000000  0  4G 2G11G19G 6
  20914320.398   -15698415.721 7 -12160510.20223
  24251152.4774    2421536.20946   1934203.97261
  22093182.781     5988204.277 6   4667565.15921
  21911288.5704  -14079352.06447 -10533356.04662
 91  5  3 21 31 15.0000000  0  4G 2G11G19G 6
  20912748.5704  -15706671.61747 -12166943.35863
  24259095.1884    2463277.78845   1966729.81061
  22098759.7274    6017503.60246   4690395.73861
  21906073.5634  -14106759.17347 -10554712.20862
 91  5  3 21 31 30.0000000  0  4G 2G11G19G 6
  20911189.4304  -15714866.76947 -12173329.18063
  24267052.7584    2505107.13945   1999324.07861
  22104344.6254    6046861.53146   4713271.98861
  21900861.3054  -14134147.96147 -10576054.08562
 91  5  3 21 31 45.0000000  0  4G 2G11G19G 6
  20909641.5784  -15722997.25247 -12179664.61063
  24275031.555     2547027.726 5   2031989.42621
  22109945.2584    6076281.96046   4736196.93261
  21895653.9534  -14161514.35147 -10597378.51462
 91  5  3 21 32  0.0000000  0  4G 2G11G19G 6
  20908105.5634  -15731069.43047 -12185954.61063
  24283027.7274    2589033.26145   2064720.96861
  22115553.7664    6105758.93946   4759165.94461
  21890448.3364  -14188864.17147 -10618690.03362
 91  5  3 21 32 15.0000000  0  4G 2G11G19G 6
  20906581.094   -15739080.631 7 -12192197.09023
  24291037.3834    2631126.18045   2097520.61861
  22121174.195     6135295.401 6   4782181.31421
  21885248.7424  -14216194.57347 -10639986.42162
 91  5  3 21 32 30.0000000  0  4G 2G11G19G 6
  20905069.586   -15747029.611 7 -12198391.08823
  24299063.500     2673307.084 5   2130388.79221
  22126805.609     6164892.400 6   4805243.85621
  21880051.5394  -14243504.31547 -10661266.71462
 91  5  3 21 32 45.0000000  0  4G 2G11G19G 6
  20903568.5314  -15754913.67447 -12204534.50363
  24307104.0784    2715578.40245   2163327.44361
  22132450.8054    6194552.62046   4828355.65561
  21874858.688   -14270790.435 7 -10682528.59422
 91  5  3 21 33  0.0000000  0  4G 2G11G19G 6
  20902079.2814  -15762733.35647 -12210627.74663
  24315166.078     2757939.323 5   2196335.90521
  22138107.6954    6224275.48046   4851516.26261
  21869671.070   -14298053.410 7 -10703772.44522
 91  5  3 21 33 15.0000000  0  4G 2G11G19G 6
  20900604.180   -15770495.217 7 -12216675.93823
  24323245.1564    2800383.13445   2229408.96761
  22143773.9924    6254054.47346   4874720.61761
  21864486.0474  -14325299.45747 -10725003.10262
 91  5  3 21 33 30.0000000  0  4G 2G11G19G 6
  20899138.227   -15778195.174 7 -12222675.89323
  24331337.1724    2842913.59046   2262549.54661
  22149451.5164    6283894.03746   4897972.16461
  21859305.117   -14352524.211 7 -10746217.16922
 91  5  3 21 33 45.0000000  0  4G 2G11G19G 6
  20897684.2424  -15785833.94147 -12228628.16863
  24339446.5234    2885529.74646   2295756.91461
  22155141.2734    6313793.47046   4921270.35861
  21854129.508   -14379728.106 7 -10767414.98622
 91  5  3 21 34  0.0000000  0  4G 2G11G19G 6
  20896242.3674  -15793411.51547 -12234532.75963
  24347570.484     2928231.269 6   2329030.78621
  22160842.1804    6343752.72346   4944615.17261
  21848956.789   -14406911.052 7 -10788596.47522
 91  5  3 21 34 15.0000000  0  4G 2G11G19G 6
  20894813.555   -15800927.073 8 -12240389.02423
  24355713.406     2971018.760 6   2362371.65221
  22166556.078     6373772.760 6   4968007.35321
  21843787.000   -14434071.898 7 -10809760.74322
 91  5  3 21 34 30.0000000  0  4G 2G11G19G 6
  20893394.8834  -15808377.08548 -12246194.21863
  24363875.2274    3013895.40746   2395781.98861
  22172278.3054    6403857.19946   4991449.71561
  21838623.359   -14461207.050 7 -10830904.99622
 91  5  3 21 34 45.0000000  0  4G 2G11G19G 6
  20891987.8674  -15815765.30848 -12251951.26563
  24372049.5554    3056857.03146   2429258.54261
  22178016.320     6434002.195 6   5014939.26721
  21833465.0084  -14488320.03847 -10852031.97462
 91  5  3 21 35  0.0000000  0  4G 2G11G19G 6
  20890594.1564  -15823091.37647 -12257659.87963
  24380240.2194    3099903.91646   2462801.53361
  22183766.2814    6464208.28146   5038476.40861
  21828311.320   -14515410.198 7 -10873141.16022
 91  5  3 21 35 15.0000000  0  4G 2G11G19G 6
  20889212.1484  -15830353.83448 -12263318.92863
  24388448.281     3143037.237 6   2496411.88121
  22189526.1804    6494476.89246   5062062.28261
  21823158.703   -14542475.880 7 -10894231.28122
 91  5  3 21 35 30.0000000  0  4G 2G11G19G 6
  20887842.5314  -15837554.42048 -12268929.76563
  24396673.1094    3186255.03446   2530088.04861
  22195296.2734    6524806.45646   5085695.64461
  21818013.0474  -14569518.51047 -10915303.42862
 91  5  3 21 35 45.0000000  0  4G 2G11G19G 6
  20886484.586   -15844692.704 7 -12274492.05323
  24404912.1024    3229557.20146   2563829.97061
  22201080.0084    6555197.33646   5109376.79161
  21812871.2584  -14596537.51847 -10936357.17462
 91  5  3 21 36  0.0000000  0  4G 2G11G19G 6
  20885137.0474  -15851771.23847 -12280007.78563
  24413171.1484    3272940.94046   2597635.43061
  22206876.9144    6585647.00146   5133103.74261
  21807733.4064  -14623535.30947 -10957394.38962
 91  5  3 21 36 15.0000000  0  4G 2G11G19G 6
  20883801.8674  -15858788.74248 -12285475.96463
  24421441.8594    3316407.22745   2631505.22961
  22212680.1564    6616156.87046   5156877.60761
  21802600.219   -14650510.383 7 -10978413.89722
 91  5  3 21 36 30.0000000  0  4G 2G11G19G 6
  20882478.2274  -15865745.52447 -12290896.82163
  24429726.148     3359955.566 5   2665438.95621
  22218500.3054    6646726.70946   5180698.20161
  21797471.2814  -14677462.82047 -10999415.76662
 91  5  3 21 36 45.0000000  0  4G 2G11G19G 6
  20881165.6724  -15872642.12547 -12296270.79263
  24438029.219     3403585.309 5   2699436.11421
  22224326.0474    6677356.16146   5204565.23861
  21792346.3524  -14704392.77147 -11020400.11662
 91  5  3 21 37  0.0000000  0  4G 2G11G19G 6
  20879864.8364  -15879478.22347 -12301597.61363
  24446348.547     3447296.590 5   2733496.79621
  22230167.0314    6708045.78446   5228479.17261
  21787226.125   -14731299.482 7 -11041366.36222
 91  5  3 21 37 15.0000000  0  4G 2G11G19G 6
  20878574.9844  -15886257.94447 -12306880.50263
  24454681.7274    3491084.75745   2767617.38661
  22236016.7814    6738791.24846   5252436.61361
  21782108.8914  -14758187.17047 -11062317.77262
 91  5  3 21 37 30.0000000  0  4G 2G11G19G 6
  20877296.3054  -15892976.50648 -12312115.73763
  24463029.328     3534954.230 5   2801801.34121
  22241879.8594    6769597.32046   5276441.28161
  21776998.0864  -14785050.86047 -11083250.48762
 91  5  3 21 37 45.0000000  0  4G 2G11G19G 6
  20876029.7974  -15899634.68948 -12317303.92363
  24471389.2504    3578904.00045   2836047.85961
  22247751.9224    6800463.37246   5300492.68961
  21771890.7814  -14811891.00347 -11104164.85462
 91  5  3 21 38  0.0000000  0  4G 2G11G19G 6
  20874773.8674  -15906231.23748 -12322444.08363
  24479771.438     3622935.061 5   2870357.72421
  22253637.8914    6831390.71846   5324591.85261
  21766788.2424  -14838706.07247 -11125059.68462
 91  5  3 21 38 15.0000000  0  4G 2G11G19G 6
  20873529.1954  -15912769.63248 -12327538.93263
  24488164.5234    3667043.56945   2904727.93161
  22259533.9774    6862375.80546   5348736.01261
  21761689.8754  -14865499.51947 -11145937.66262
 91  5  3 21 38 30.0000000  0  4G 2G11G19G 6
  20872295.7584  -15919249.75548 -12332588.37363
  24496568.977     3711229.340 5   2939158.35221
  22265440.2974    6893418.85446   5372925.33461
  21756594.8054  -14892270.90047 -11166798.45162
 91  5  3 21 38 45.0000000  0  4G 2G11G19G 6
  20871074.2894  -15925672.72848 -12337593.28163
  24504995.609     3755491.033 5   2973647.92221
  22271359.6334    6924519.10946   5397159.23261
  21751502.9924  -14919021.05447 -11187642.69962
 91  5  3 21 39  0.0000000  0  4G 2G11G19G 6
  20869862.8444  -15932039.41248 -12342554.32963
  24513433.6484    3799827.57045   3008195.82461
  22277290.7114    6955675.81146   5421437.11961
  21746418.4844  -14945750.50947 -11208470.81562
 91  5  3 21 39 15.0000000  0  4G 2G11G19G 6
  20868662.2664  -15938346.00848 -12347468.55363
  24521883.461     3844242.366 5   3042804.71921
  22283228.3984    6986892.50346   5445761.74261
  21741336.1804  -14972455.38847 -11229279.78462
 91  5  3 21 39 30.0000000  0  4G 2G11G19G 6
  20867473.5004  -15944592.61148 -12352336.03063
  24530351.7504    3888735.05345   3077474.28361
  22289180.7814    7018169.06346   5470133.01961
  21736258.3674  -14999135.60147 -11250069.52862
 91  5  3 21 39 45.0000000  0  4G 2G11G19G 6
  20866296.8134  -15950778.82548 -12357156.45063
  24538832.523     3933305.710 5   3112204.61921
  22295143.1804    7049506.09046   5494551.41861
  21731185.8674  -15025790.42547 -11270839.49462
 91  5  3 21 40  0.0000000  0  4G 2G11G19G 6
  20865129.9924  -15956906.90448 -12361931.57163
  24547330.8754    3977951.86745   3146993.78661
  22301119.563     7080901.411 6   5519015.23121
  21726118.617   -15052421.896 7 -11291591.26222
 91  5  3 21 40 15.0000000  0  4G 2G11G19G 6
  20863975.4384  -15962979.16048 -12366663.19163
  24555837.2894    4022670.88545   3181839.74861
  22307102.211     7112352.746 6   5543522.69521
  21721056.016   -15079031.968 7 -11312326.36022
 91  5  3 21 40 30.0000000  0  4G 2G11G19G 6
  20862830.8364  -15968991.96748 -12371348.48463
  24564361.484     4067466.142 5   3216745.10721
  22313099.336     7143863.847 6   5568076.72821
  21715995.0474  -15105616.83447 -11333041.81162
 91  5  3 21 40 45.0000000  0  4G 2G11G19G 6
  20861698.1804  -15974948.37948 -12375989.83763
  24572900.039     4112334.313 5   3251707.27821
  22319106.7504    7175431.67646   5592674.96561
  21710941.891   -15132179.357 7 -11353739.85222
 91  5  3 21 41  0.0000000  0  4G 2G11G19G 6
  20860574.9454  -15980849.27048 -12380587.92863
  24581452.836     4157274.240 5   3286725.37021
  22325127.0634    7207055.51346   5617316.84661
  21705890.7734  -15158720.17847 -11374420.98062
 91  5  3 21 41 15.0000000  0  4G 2G11G19G 6
  20859463.1564  -15986691.91948 -12385140.63663
  24590017.336     4202288.400 5   3321801.31821
  22331151.4774    7238738.01946   5642004.44661
  21700844.305   -15185236.378 7 -11395082.92822
 91  5  3 21 41 30.0000000  0  4G 2G11G19G 6
  20858362.4224  -15992473.88048 -12389646.05263
  24598599.0474    4247378.85345   3356936.69661
  22337194.4534    7270481.62546   5666739.65361
  21695804.6174  -15211725.25947 -11415723.58462
 91  5  3 21 41 45.0000000  0  4G 2G11G19G 6
  20857272.4614  -15998200.96047 -12394108.70163
  24607192.992     4292539.404 5   3392126.70921
  22343245.602     7302280.595 6   5691518.00021
  21690767.4144  -15238192.39547 -11436347.29562
 91  5  3 21 42  0.0000000  0  3G 2G19G 6
  20856192.6804  -16003871.51648 -12398527.30963
  22349309.7344    7334136.43846   5716340.66561
  21685736.8284  -15264635.92347 -11456952.61262
 91  5  3 21 42 15.0000000  0  3G 2G19G 6
  20855125.9304  -16009482.33348 -12402899.36863
  22355381.9064    7366052.69746   5741210.40261
  21680708.2814  -15291052.38947 -11477536.83862
 91  5  3 21 42 30.0000000  0  3G 2G19G 6
  20854068.0554  -16015037.65048 -12407228.17863
  22361465.7424    7398025.23146   5766124.00261
  21675686.4144  -15317445.81647 -11498103.11262
 91  5  3 21 42 45.0000000  0  3G 2G19G 6
  20853022.1334  -16020536.69448 -12411513.13963
  22367560.5314    7430054.74446   5791081.99461
  21670668.0314  -15343815.10847 -11518650.57862
 91  5  3 21 43  0.0000000  0  3G 2G19G 6
  20851986.4774  -16025979.75048 -12415754.47263
  22373667.6804    7462141.04446   5816084.24561
  21665655.1254  -15370160.19647 -11539179.17762
 91  5  3 21 43 15.0000000  0  3G 2G19G 6
  20850961.6884  -16031367.09148 -12419952.39463
  22379783.813     7494283.837 6   5841130.50921
  21660645.6644  -15396481.21147 -11559689.03262
 91  5  3 21 43 30.0000000  0  3G 2G19G 6
  20849946.9144  -16036697.17948 -12424105.70363
  22385909.547     7526484.772 6   5866222.07621
  21655642.5554  -15422776.41147 -11580178.76362
 91  5  3 21 43 45.0000000  0  3G 2G19G 6
  20848942.1644  -16041975.78548 -12428218.89563
  22392048.7664    7558737.96946   5891354.36861
  21650641.6804  -15449051.51847 -11600652.83962
 91  5  3 21 44  0.0000000  0  3G 2G19G 6
  20847948.6724  -16047196.44348 -12432286.93463
  22398197.6884    7591050.16146   5916532.62661
  21645647.5164  -15475299.68247 -11621105.91362
 91  5  3 21 44 15.0000000  0  3G 2G19G 6
  20846966.8834  -16052359.42347 -12436310.02963
  22404358.7584    7623421.29446   5941756.82161
  21640658.4694  -15501520.71247 -11641537.85162
 91  5  3 21 44 30.0000000  0  3G 2G19G 6
  20845994.5944  -16057466.81547 -12440289.80963
  22410529.0234    7655849.05046   5967025.13961
  21635672.5784  -15527716.63647 -11661950.22562
 91  5  3 21 44 45.0000000  0  3G 2G19G 6
  20845033.8364  -16062514.56147 -12444223.11363
  22416710.508     7688337.415 6   5992340.68221
  21630693.1954  -15553883.20247 -11682339.72162
 91  5  3 21 45  0.0000000  0  3G 2G19G 6
  20844085.4694  -16067504.12547 -12448111.07963
  22422904.4924    7720885.32346   6017702.62561
  21625718.8204  -15580021.49647 -11702707.18862
 91  5  3 21 45 15.0000000  0  3G 2G19G 6
  20843144.4924  -16072438.73847 -12451956.23063
  22429108.4144    7753489.52446   6043108.42761
  21620750.0234  -15606134.41747 -11723054.88462
 91  5  3 21 45 30.0000000  0  3G 2G19G 6
  20842216.7194  -16077312.29947 -12455753.80363
  22435327.813     7786156.092 6   6068562.81621
  21615788.5944  -15632215.69947 -11743377.92562
 91  5  3 21 45 45.0000000  0  3G 2G19G 6
  20841300.4064  -16082132.75948 -12459510.00063
  22441552.258     7818877.154 6   6094059.67621
  21610828.5704  -15658273.16947 -11763682.41162
 91  5  3 21 46  0.0000000  0  3G 2G19G 6
  20840393.5004  -16086896.55048 -12463222.04263
  22447788.875     7851656.160 6   6119601.68921
  21605874.7974  -15684302.94047 -11783965.31362
 91  5  3 21 46 15.0000000  0  3G 2G19G 6
  20839498.1334  -16091600.72148 -12466887.62863
  22454039.867     7884496.318 6   6145191.34621
  21600927.4694  -15710301.72147 -11804224.07162
 91  5  3 21 46 30.0000000  0  3G 2G19G 6
  20838614.0234  -16096246.83647 -12470507.97363
  22460301.500     7917396.059 6   6170827.43321
  21595985.9614  -15736270.95247 -11824459.79662
 91  5  3 21 46 45.0000000  0  3G 2G19G 6
  20837741.5474  -16100833.87547 -12474082.28763
  22466570.484     7950356.323 6   6196510.68021
  21591050.3134  -15762209.33247 -11844671.48562
 91  5  3 21 47  0.0000000  0  3G 2G19G 6
  20836879.4614  -16105365.17847 -12477613.17563
  22472852.609     7983373.800 6   6222238.51121
  21586119.9144  -15788120.06847 -11864861.63862
 91  5  3 21 47 15.0000000  0  3G 2G19G 6
  20836027.5864  -16109837.93147 -12481098.43363
  22479148.602     8016451.426 6   6248013.20921
  21581194.5944  -15814000.01447 -11885027.79462
 91  5  3 21 47 30.0000000  0  3G 2G19G 6
  20835187.1884  -16114257.59848 -12484542.32863
  22485456.984     8049583.900 6   6273830.63821
  21576274.3284  -15839854.28447 -11905173.95062
 91  5  3 21 47 45.0000000  0  3G 2G19G 6
  20834357.4774  -16118619.37048 -12487941.11263
  22491771.0944    8082775.90646   6299694.45261
  21571361.3754  -15865677.92247 -11925296.23162
 91  5  3 21 48  0.0000000  0  3G 2G19G 6
  20833537.2424  -16122926.40648 -12491297.23963
  22498097.789     8116024.290 6   6325602.20421
  21566451.430   -15891473.840 7 -11945396.91922
 91  5  3 21 48 15.0000000  0  3G 2G19G 6
  20832730.1174  -16127172.22948 -12494605.66963
  22504437.492     8149335.704 6   6351559.07021
  21561550.7194  -15917235.15647 -11965470.64362
 91  5  3 21 48 30.0000000  0  3G 2G19G 6
  20831932.3054  -16131361.49648 -12497870.02863
  22510789.172     8182705.349 6   6377561.31621
  21556652.891   -15942966.439 7 -11985520.96722
 91  5  3 21 48 45.0000000  0  3G 2G19G 6
  20831145.3284  -16135495.70947 -12501091.48963
  22517149.328     8216131.885 6   6403607.88321
  21551762.3284  -15968668.82347 -12005548.76862
 91  5  3 21 49  0.0000000  0  3G 2G19G 6
  20830369.7974  -16139573.51248 -12504268.99463
  22523520.406     8249616.792 6   6429699.93321
  21546875.867   -15994340.682 7 -12025552.78922
 91  5  3 21 49 15.0000000  0  3G 2G19G 6
  20829603.5474  -16143596.48447 -12507403.76663
  22529901.2424    8283158.47646   6455836.22661
  21541997.359   -16019983.400 7 -12045534.10422
 91  5  3 21 49 30.0000000  0  3G 2G19G 6
  20828850.6174  -16147560.19448 -12510492.36863
  22536295.609     8316761.423 6   6482020.25421
  21537123.492   -16045592.260 7 -12065489.03822
 91  5  3 21 49 45.0000000  0  3G 2G19G 6
  20828106.9774  -16151466.61548 -12513536.31963
  22542704.180     8350423.843 6   6508250.63121
  21532257.438   -16071168.937 7 -12085418.88722
 91  5  3 21 50  0.0000000  0  3G 2G19G 6
  20827373.9774  -16155316.37448 -12516536.12063
  22549122.766     8384144.775 6   6534526.59921
  21527396.102   -16096713.946 7 -12105324.06622
 91  5  3 21 50 15.0000000  0  3G 2G19G 6
  20826653.2114  -16159106.57748 -12519489.51963
  22555547.6024    8417927.33446   6560850.57961
  21522542.273   -16122224.106 7 -12125202.08822
 91  5  3 21 50 30.0000000  0  3G 2G19G 6
  20825943.0234  -16162840.04448 -12522398.70463
  22561988.7894    8451768.75546   6587220.43461
  21517692.648   -16147701.809 7 -12145054.82122
 91  5  3 21 50 45.0000000  0  3G 2G19G 6
  20825243.2424  -16166515.34048 -12525262.55563
  22568439.2974    8485670.64746   6613637.40561
  21512850.828   -16173145.484 7 -12164881.03122
 91  5  3 21 51  0.0000000  0  3G 2G19G 6
  20824554.039   -16170133.163 8 -12528081.63423
  22574902.117     8519632.365 6   6640101.00021
  21508015.6484  -16198555.40247 -12184680.94662
 91  5  3 21 51 15.0000000  0  3G 2G19G 6
  20823878.6804  -16173690.81048 -12530853.81563
  22581378.3364    8553656.70146   6666613.37761
  21503187.0864  -16223928.59647 -12204452.23662
 91  5  3 21 51 30.0000000  0  3G 2G19G 6
  20823211.6254  -16177189.97048 -12533580.42363
  22587866.6024    8587741.87546   6693173.16261
  21498366.7974  -16249266.64747 -12224196.14262
 91  5  3 21 51 45.0000000  0  4G15G 2G19G 6
  24325743.852      -26125.755 5
  20822556.9534  -16180628.31848 -12536259.64563
  22594360.6564    8621890.10446   6719782.08561
  21493551.578   -16274567.041 7 -12243910.70922
 91  5  3 21 52  0.0000000  0  4G15G 2G19G 6
  24320780.7664     -52167.26844
  20821914.6024  -16184007.44248 -12538892.72163
  22600871.7034    8656099.98246   6746439.04561
  21488743.4144  -16299830.97747 -12263596.86662
 91  5  3 21 52 15.0000000  0  4G15G 2G19G 6
  24315848.2734     -78125.70245        -0.08171
  20821283.414   -16187327.746 8 -12541479.95823
  22607391.4614    8690371.11146   6773143.73561
  21483942.2034  -16325058.64647 -12283254.76262
 91  5  3 21 52 30.0000000  0  4G15G 2G19G 6
  24310924.266     -103999.595 5    -20161.43221
  20820661.703   -16190588.195 8 -12544020.55623
  22613926.6254    8724704.51146   6799896.93861
  21479148.8914  -16350248.80547 -12302883.42662
 91  5  3 21 52 45.0000000  0  4G15G 2G19G 6
  24306013.305     -129787.256 4    -40255.60521
  20820052.7894  -16193787.42748 -12546513.45463
  22620472.8594    8759101.49246   6826699.69861
  21474363.8444  -16375399.84647 -12322481.61162
 91  5  3 21 53  0.0000000  0  4G15G 2G19G 6
  24301129.016     -155490.207 4    -60283.76621
  20819456.453   -16196927.447 8 -12548960.20923
  22627028.4144    8793560.01346   6853550.40861
  21469583.8364  -16400513.49047 -12342050.65462
 91  5  3 21 53 15.0000000  0  4G15G 2G19G 6
  24296246.9694    -181109.31445    -80246.57761
  20818868.953   -16200009.824 8 -12551362.04823
  22633598.430     8828078.873 6   6880448.13321
  21464811.3444  -16425590.91847 -12361591.47962
 91  5  3 21 53 30.0000000  0  4G15G 2G19G 6
  24291390.570     -206644.134 5   -100143.73321
  20818293.625   -16203034.270 8 -12553718.75023
  22640176.6174    8862658.25446   6907393.01361
  21460047.2194  -16450631.67347 -12381103.71863
 91  5  3 21 53 45.0000000  0  4G15G 2G19G 6
  24286547.7894    -232094.59945   -119975.17761
  20817728.9384  -16206001.23748 -12556030.66163
  22646770.8204    8897297.68046   6934384.68561
  21455289.7974  -16475635.84447 -12400587.45963
 91  5  3 21 54  0.0000000  0  4G15G 2G19G 6
  24281716.7344    -257459.05745   -139739.56761
  20817176.1254  -16208909.19648 -12558296.59163
  22653375.3674    8931998.68246   6961424.32561
  21450537.8834  -16500601.75147 -12420041.37862
 91  5  3 21 54 15.0000000  0  4G15G 2G19G 6
  24276909.2504    -282736.39245   -159436.08461
  20816633.3134  -16211757.50348 -12560516.04563
  22659989.4144    8966762.08146   6988512.59861
  21445795.6804  -16525528.40147 -12439464.71162
 91  5  3 21 54 30.0000000  0  5G15G 2G13G19G 6
  24272114.461     -307925.744 5   -179064.04521
  20816102.2664  -16214545.69948 -12562688.65563
  24159419.6564         -0.53554
  22666616.5084    9001588.39046   7015649.89661
  21441058.3594  -16550415.02447 -12458856.85463
 91  5  3 21 54 45.0000000  0  5G15G 2G13G19G 6
  24267342.1094    -333030.85545   -198626.35961
  20815583.1094  -16217278.07648 -12564817.77463
  24147949.5394     -60265.95244
  22673255.3284    9036473.01046   7042832.62561
  21436330.5234  -16575265.74447 -12478221.01362
 91  5  3 21 55  0.0000000  0  5G15G 2G13G19G 6
  24262582.156     -358046.485 5   -218118.97621
  20815075.0704  -16219949.80348 -12566899.63163
  24136488.1174    -120505.79744
  22679906.5634    9071421.02346   7070064.75761
  21431609.2274  -16600075.42647 -12497553.19763
 91  5  3 21 55 15.0000000  0  5G15G 2G13G19G 6
  24257834.3984    -382975.07345   -237543.75361
  20814576.4924  -16222563.67248 -12568936.40763
  24125025.8914    -180722.45244
  22686567.9144    9106429.70646   7097344.15861
  21426895.1804  -16624846.68447 -12516855.44563
 91  5  3 21 55 30.0000000  0  5G15G 2G13G19G 6
  24253109.6254    -407816.83345
  20814091.0474  -16225120.49748 -12570928.73163
  24113570.289     -240916.262 4
  22693241.9454    9141498.31946   7124670.25761
  21422187.9924  -16649579.97647
 91  5  3 21 55 45.0000000  0  5G15G 2G13G19G 6
  24248402.0394    -432567.60345
  20813615.4774  -16227616.30948 -12572873.51363
  24102123.055     -301082.600 4
  22699927.3524    9176630.78346   7152046.11161
  21417489.6094  -16674271.13947
 91  5  3 21 56  0.0000000  0  5G15G 2G13G19G 6
  24243705.1254    -457232.11545
  20813152.5004  -16230056.36048 -12574774.84663
  24090675.742     -361226.367 4
  22706621.4844    9211821.88446   7179467.65661
  21412797.6484  -16698925.02147 -12574578.72663
 91  5  3 21 56 15.0000000  0  5G15G 2G13G19G 6
  24239028.6564    -481809.43045
  20812696.8674  -16232440.08748 -12576632.29163
  24079238.094     -421346.528 4
  22713331.0164    9247072.18146   7206935.32861
  21408113.7034  -16723540.90947 -12593759.90763
 91  5  3 21 56 30.0000000  0  5G15G 2G13G19G 6
  24234367.0394    -506297.44545
  20812254.8284  -16234765.78348 -12578444.51763
  24067800.422     -481440.972 4
  22720050.4304    9282383.50346   7234450.55461
  21403436.4774  -16748116.74647 -12612909.88062
 91  5  3 21 56 45.0000000  0  5G15G 2G13G19G 6
  24229727.906     -530694.162 5
  20811824.1024  -16237031.96948 -12580210.37563
  24056369.9384    -541507.77844
  22726783.430     9317757.342 6   7262014.50021
  21398767.6804  -16772650.78547 -12632027.28563
 91  5  3 21 57  0.0000000  0  5G15G 2G13G19G 6
  24225103.2274    -555002.63245        -0.46371
  20811403.6884  -16239241.94948 -12581932.43463
  24044946.539     -601549.980 4
  22733523.6024    9353190.46546   7289624.63261
  21394105.555   -16797146.073 7 -12651114.49423
 91  5  3 21 57 15.0000000  0  5G15G 2G13G19G 6
  24220490.0084    -579222.26645    -18872.80961
  20810994.2894  -16241395.41948 -12583610.45663
  24033524.4064    -661566.66143        -0.43171
  22740280.3364    9388683.02946   7317281.08061
  21389453.6484  -16821601.96347 -12670170.99863
 91  5  3 21 57 30.0000000  0  5G15G 2G13G19G 6
  24215896.641     -603352.079 5    -37675.14521
  20810595.3834  -16243491.71548 -12585243.93063
  24022106.352     -721556.713 3    -46745.72121
  22747043.7664    9424235.75046   7344984.41161
  21384807.8524  -16846017.61847 -12689196.15763
 91  5  3 21 57 45.0000000  0  5G15G 2G13G19G 6
  24211323.5704    -627393.82445    -56408.85361
  20810206.2734  -16245533.33548 -12586834.80363
  24010695.0314    -781522.39643    -93471.95761
  22753822.6414    9459846.19346   7372732.71161
  21380168.852   -16870395.229 7 -12708191.67523
 91  5  3 21 58  0.0000000  0  5G15G 2G13G19G 6
  24206763.3364    -651346.78545    -75073.40861
  20809829.1254  -16247519.67348 -12588382.59363
  23999292.336     -841462.325 3   -140178.16421
  22760610.9454    9495514.90145   7400526.41661
  21375537.047   -16894733.927 7 -12727156.87023
 91  5  3 21 58 15.0000000  0  5G15G 2G13G19G 6
  24202223.852     -675209.325 5    -93667.50921
  20809461.3984  -16249449.59948 -12589886.43063
  23987889.797     -901374.920 4   -186863.06421
  22767406.4224    9531243.13746   7428366.50961
  21370912.945   -16919032.354 7 -12746090.68623
 91  5  3 21 58 30.0000000  0  5G15G 2G13G19G 6
  24197697.461     -698978.636 5   -112188.94621
  20809104.8444  -16251320.67648 -12591344.40863
  23976499.7894    -961257.40844   -233524.55961
  22774219.3444    9567033.31846   7456254.86261
  21366298.133   -16943287.751 7 -12764990.97423
 91  5  3 21 58 45.0000000  0  5G15G 2G13G19G 6
  24193195.6484    -722650.88745   -130634.75661
  20808760.2974  -16253129.51948 -12592753.89263
  23965103.563    -1021105.954 4   -280159.51321
  22781042.1254    9602888.81146   7484194.11461
  21361691.227   -16967496.577 7 -12783854.97223
 91  5  3 21 59  0.0000000  0  5G15G 2G13G19G 6
  24188709.9614    -746230.10245   -149008.07561
  20808429.1174  -16254880.58048 -12594118.35263
  23953723.141    -1080924.513 4   -326771.13021
  22787877.1174    9638805.33245   7512180.92461
  21357091.781   -16991662.840 7 -12802685.80723
 91  5  3 21 59 15.0000000  0  5G15G 2G13G19G 6
  24184239.4774    -769719.74445   -167311.61761
  20808105.0554  -16256577.65548 -12595440.74063
  23942342.602    -1140716.257 4   -373361.85921
  22794722.0944    9674779.17346   7540212.38961
  21352501.195   -17015789.960 7 -12821486.14023
 91  5  3 21 59 30.0000000  0  5G15G 2G13G19G 6
  24179789.234     -793116.039 5   -185542.37321
  20807792.2664  -16258217.27147 -12596718.35863
  23930971.969    -1200477.578 4   -419928.88521
  22801576.3914    9710813.42446   7568290.92961
  21347917.164   -17039874.499 7 -12840253.29323
 91  5  3 21 59 45.0000000  0  5G15G 2G13G19G 6
  24175350.125     -816419.102 5   -203700.51321
  20807490.9694  -16259800.26447 -12597951.85363
  23919605.016    -1260208.736 4   -466472.37421
  22808448.0164    9746907.48646   7596416.07861
  21343342.734   -17063916.788 7 -12858987.52423
 91  5  3 22  0  0.0000000  0  5G15G 2G13G19G 6
  24170937.2894    -839632.99845   -221789.16961
  20807199.8594  -16261330.85747 -12599144.51563
  23908244.219    -1319913.701 5   -512995.49421
  22815329.1884    9783057.18045   7624584.57661
  21338774.703   -17087920.804 7 -12877691.93423
 91  5  3 22  0 15.0000000  0  5G15G 2G13G19G 6
  24166535.1254    -862751.30245   -239803.32561
  20806920.9144  -16262802.93748 -12600291.58363
  23896887.1174   -1379585.56745   -559492.80561
  22822217.1024    9819268.72146   7652801.26161
  21334215.016   -17111880.133 7 -12896361.51623
 91  5  3 22  0 30.0000000  0  5G15G 2G13G19G 6
  24162151.438     -885776.215 5   -257744.70621
  20806649.7034  -16264218.93247 -12601394.95063
  23885537.102    -1439226.618 5   -605966.12021
  22829118.6884    9855539.36846   7681064.00861
  21329664.070   -17135797.181 7 -12914998.15623
 91  5  3 22  0 45.0000000  0  5G15G 2G13G19G 6
  24157792.3444    -908707.92045   -275613.48661
  20806391.5234  -16265579.73648 -12602455.30963
  23874196.5474   -1498837.27445   -652415.71461
  22836032.0704    9891868.37046   7709372.22361
  21325120.023   -17159672.413 7 -12933602.21023
 91  5  3 22  1  0.0000000  0  5G15G 2G13G19G 6
  24153443.094     -931543.417 5   -293407.26521
  20806144.2114  -16266882.55147 -12603470.48363
  23862857.086    -1558414.108 5   -698839.00421
  22842961.3674    9928258.56545   7737728.11861
  21320587.391   -17183502.733 7 -12952171.26923
 91  5  3 22  1 15.0000000  0  5G15G 2G13G19G 6
  24149116.2274    -954287.31345   -311129.70161
  20805904.7584  -16268132.33048 -12604444.33063
  23851524.9924   -1617961.91845   -745239.63561
  22849893.156     9964704.819 6   7766127.69521
  21316058.617   -17207292.919 7 -12970709.05623
 91  5  3 22  1 30.0000000  0  5G15G 2G13G19G 6
  24144806.6564    -976937.30445   -328778.96361
  20805678.7274  -16269327.29348 -12605375.46063
  23840199.070    -1677478.394 5   -791615.86321
  22856841.7894   10001209.27045   7794572.62061
  21311538.883   -17231040.657 7 -12989213.76723
 91  5  3 22  1 45.0000000  0  5G15G 2G13G19G 6
  24140511.578     -999494.058 5   -346355.53921
  20805459.7814  -16270468.40348 -12606264.63163
  23828879.531    -1736963.753 5   -837967.85021
  22863799.227    10037770.939 6   7823062.13721
  21307028.563   -17254746.787 7 -13007686.05323
 91  5  3 22  2  0.0000000  0  5G15G 2G13G19G 6
  24136240.070    -1021956.225 5   -363858.47321
  20805253.7734  -16271554.97748 -12607111.30563
  23817567.109    -1796416.978 5   -884294.79721
  22870768.6094   10074390.52245   7851596.77361
  21302526.453   -17278410.344 7 -13026125.16923
 91  5  3 22  2 15.0000000  0  5G15G 2G13G19G 6
  24131985.8984   -1044317.46245   -381282.70861
  20805057.9144  -16272580.94848 -12607910.75363
  23806260.813    -1855831.564 5   -930591.61121
  22877746.9224   10111074.09946   7880181.28361
  21298030.797   -17302024.873 7 -13044526.08123
 91  5  3 22  2 30.0000000  0  5G15G 2G13G19G 6
  24127749.1724   -1066584.80745   -398633.80361
  20804872.9614  -16273553.67847 -12608668.72163
  23794957.492    -1915214.585 5   -976863.84821
  22884738.4774   10147814.27745   7908809.89061
  21293545.750   -17325597.488 7 -13062894.33323
 91  5  3 22  2 45.0000000  0  5G15G 2G13G19G 6
  24123530.6954   -1088755.12045   -415909.29061
  20804698.1334  -16274470.30848 -12609382.97163
  23783665.6024   -1974562.55745  -1023108.78161
  22891739.188    10184613.878 6   7937484.80221
  21289068.297   -17349125.098 7 -13081227.51223
 91  5  3 22  3  0.0000000  0  5G15G 2G13G19G 6
  24119327.531    -1110827.229 5   -433108.25221
  20804537.3914  -16275329.96348 -12610052.82863
  23772377.445    -2033874.161 5  -1069325.37721
  22898756.328    10221473.898 6   7966206.78621
  21284599.383   -17372606.491 7 -13099524.68423
 91  5  3 22  3 15.0000000  0  5G15G 2G13G19G 6
  24115147.3834   -1132800.68545   -450230.33861
  20804384.6414  -16276132.70248 -12610678.33163
  23761098.0554   -2093149.08845  -1115513.42561
  22905780.031    10258394.325 6   7994975.84521
  21280141.242   -17396041.540 7 -13117785.73823
 91  5  3 22  3 30.0000000  0  5G15G 2G13G19G 6
  24110984.6414   -1154674.94445   -467275.13261
  20804242.1484  -16276878.53848 -12611259.49763
  23749828.320    -2152386.927 5  -1161672.50621
  22912818.984    10295375.164 6   8023791.97921
  21275689.781   -17419429.811 7 -13136010.34223
 91  5  3 22  3 45.0000000  0  5G15G 2G13G19G 6
  24106839.094    -1176452.500 5   -484244.56821
  20804108.6334  -16277570.18848 -12611798.43763
  23738561.1254   -2211590.01845  -1207804.57861
  22919865.758    10332413.499 6   8052652.91921
  21271248.375   -17442773.882 7 -13154200.50423
 91  5  3 22  4  0.0000000  0  5G15G 2G13G19G 6
  24102715.7194   -1198131.54345   -501137.24361
  20803989.6484  -16278206.42248 -12612294.19763
  23727301.383    -2270756.462 4  -1253908.03121
  22926929.422    10369510.674 5   8081559.70121
  21266814.164   -17466072.251 7 -13172355.05423
 91  5  3 22  4 15.0000000  0  5G15G 2G13G19G 6
  24098609.2664   -1219713.59645   -517954.34761
  20803878.8834  -16278788.74448 -12612747.94563
  23716049.3364   -2329887.50345  -1299983.92961
  22933996.078    10406665.115 5   8110511.10021
  21262388.586   -17489326.095 7 -13190474.90923
 91  5  3 22  4 30.0000000  0  5G15G 2G13G19G 6
  24094519.273    -1241197.242 5   -534694.73821
  20803775.7034  -16279315.88348 -12613158.69563
  23704800.2734   -2388981.44744  -1346030.92161
  22941076.570    10443878.086 5   8139508.11521
  21257972.609   -17512533.985 7 -13208558.95923
 91  5  3 22  4 45.0000000  0  5G15G 2G13G19G 6
  24090448.2734   -1262580.26945   -551356.74561
  20803689.2894  -16279786.44148 -12613525.35763
  23693568.3524   -2448036.31445  -1392047.49361
  22948169.992    10481151.111 5   8168551.92521
  21253565.297   -17535694.046 7 -13226605.73523
 91  5  3 22  5  0.0000000  0  5G15G 2G13G19G 6
  24086395.922    -1283866.379 5   -567943.24321
  20803609.6094  -16280204.73848 -12613851.29763
  23682329.508    -2507055.906 5  -1438036.54221
  22955276.352    10518479.846 5   8197639.14321
  21249166.914   -17558810.285 7 -13244618.36323
 91  5  3 22  5 15.0000000  0  5G15G 2G13G19G 6
  24082363.617    -1305050.496 5   -584450.26321
  20803541.4534  -16280565.69547 -12614132.55663
  23671114.5004   -2566034.97845  -1483994.04761
  22962389.609    10555869.310 5   8226773.68021
  21244776.578   -17581877.514 7 -13262592.80023
 91  5  3 22  5 30.0000000  0  5G15G 2G13G19G 6
  24078355.1414   -1326134.25245   -600879.06361
  20803480.5004  -16280871.29247 -12614370.68063
  23659891.922    -2624974.969 5  -1529921.08021
  22969515.805    10593317.650 5   8255954.08921
  21240396.6884  -17604897.37847 -13280530.33063
 91  5  3 22  5 45.0000000  0  5G15G 2G13G19G 6
  24074363.2584   -1347118.73445   -617230.51761
  20803435.8284  -16281123.09047 -12614566.88063
  23648686.4694   -2683876.93345  -1575818.46661
  22976651.8834   10630823.26345   8285179.13061
  21236025.078   -17627871.122 7 -13298431.92423
 91  5  3 22  6  0.0000000  0  5G15G 2G13G19G 6
  24070385.2734   -1368005.96845   -633506.19261
  20803396.3524  -16281323.54547 -12614723.07363
  23637482.320    -2742742.990 5  -1621687.92821
  22983801.602    10668383.546 5   8314446.77621
  21231661.453   -17650800.970 7 -13316299.31223
 91  5  3 22  6 15.0000000  0  5G15G 2G13G19G 6
  24066431.047    -1388794.125 5   -649704.66821
  20803367.5864  -16281471.04347
  23626290.852    -2801570.722 5  -1667527.49921
  22990958.1804   10706000.30245   8343758.41861
  21227307.063   -17673684.978 7 -13334130.98123
 91  5  3 22  6 30.0000000  0  5G15G 2G13G19G 6
  24062495.047    -1409479.507 5   -665823.05621
  20803349.0784  -16281562.26447
  23615101.0164   -2860356.58045  -1713334.43061
  22998129.422    10743676.751 5   8373116.58621
  21222961.805   -17696519.502 7 -13351924.09223
 91  5  3 22  6 45.0000000  0  5G15G 2G13G19G 6
  24058575.2504   -1430063.98945   -681862.81561
  20803341.1804  -16281599.47047
  23603922.8754   -2919102.33945  -1759110.14461
  23005308.773    10781410.937 5   8402519.73321
  21218625.219   -17719306.515 7 -13369680.18123
 91  5  3 22  7  0.0000000  0  5G15G 2G13G19G 6
  24054682.7734   -1450547.28145   -697823.71761
  20803345.1254  -16281582.94647
  23592749.3524   -2977807.96645  -1804854.55061
  23012501.695    10819202.295 5   8431967.42321
  21214298.266   -17742046.158 7 -13387399.35723
 91  5  3 22  7 15.0000000  0  5G15G 2G13G19G 6
  24050799.320    -1470927.306 5   -713704.17121
  20803360.1804  -16281510.89047
  23581589.8834   -3036471.07845  -1850565.87261
  23019703.8364   10857052.52445   8461460.99961
  21209979.953   -17764736.138 7 -13405079.83923
 91  5  3 22  7 30.0000000  0  5G15G 2G13G19G 6
  24046941.797    -1491206.249 5   -729505.85621
  20803382.8444  -16281385.55247
  23570430.4454   -3095093.74745  -1896245.69261
  23026915.711    10894959.281 5   8490998.62021
  21205672.703   -17787378.564 7 -13422723.26323
 91  5  3 22  7 45.0000000  0  5G15G 2G13G19G 6
  24043103.8834   -1511383.71145   -745228.45761
  20803416.4224  -16281207.07047
  23559285.250    -3153675.704 5  -1941893.77521
  23034140.1174   10932922.58445   8520580.29961
  21201372.0864  -17809973.20447 -13440329.44663
 91  5  3 22  8  0.0000000  0  5G15G 2G13G19G 6
  24039281.477    -1531458.074 5   -760870.72621
  20803463.2814  -16280974.18847
  23548143.0004   -3212215.02945  -1987508.63661
  23041377.977    10970943.584 5   8550206.94521
  21197081.508   -17832518.633 7 -13457897.28523
 91  5  3 22  8 15.0000000  0  5G15G 2G13G19G 6
  24035485.016    -1551429.449 5   -776432.76421
  20803515.3914  -16280687.34447 -12614227.31063
  23537013.570    -3270711.551 5  -2033090.14221
  23048623.633    11009022.051 5   8579878.36921
  21192800.2974  -17855014.84347 -13475426.77363
 91  5  3 22  8 30.0000000  0  5G15G 2G13G19G 6
  24031699.680    -1571298.985 5   -791915.42321
  20803582.1954  -16280348.13947 -12613962.99463
  23525887.695    -3329166.549 5  -2078639.27421
  23055879.8674   11047156.36945   8609593.30661
  21188529.797   -17877463.218 7 -13492918.98923
 91  5  3 22  8 45.0000000  0  5G15G 2G13G19G 6
  24027939.555    -1591063.644 5   -807316.35221
  20803657.2814  -16279953.92847 -12613655.81663
  23514776.3674   -3387577.18545  -2124153.85761
  23063146.6644   11085349.09345   8639353.75061
  21184268.055   -17899860.854 7 -13510371.66823
 91  5  3 22  9  0.0000000  0  5G15G 2G13G19G 6
  24024202.063    -1610722.268 5   -822634.68021
  20803740.6724  -16279503.72847 -12613305.01263
  23503667.4534   -3445941.96245  -2169632.68661
  23070426.1884   11123601.20745   8669160.46861
  21180014.531   -17922206.579 7 -13527783.89923
 91  5  3 22  9 15.0000000  0  5G15G 2G13G19G 6
  24020477.766    -1630277.246 5   -837872.22821
  20803838.4144  -16279000.49947 -12612912.88563
  23492568.414    -3504263.210 5  -2215077.64621
  23077716.2114   11161909.75945   8699011.17961
  21175771.102   -17944502.945 7 -13545157.66723
 91  5  3 22  9 30.0000000  0  5G15G 2G13G19G 6
  24016775.0084   -1649727.56445   -853028.22261
  20803944.9774  -16278443.43147 -12612478.80763
  23481477.844    -3562539.612 5  -2260487.63021
  23085018.5394   11200275.80145   8728906.67261
  21171537.242   -17966748.688 7 -13562491.99023
 91  5  3 22  9 45.0000000  0  5G15G 2G13G19G 6
  24013091.8134   -1669072.76345   -868102.31561
  20804060.8524  -16277832.53347 -12612002.78763
  23470398.3914   -3620770.89045  -2305862.45161
  23092328.828    11238699.162 5   8758846.84521
  21167315.164   -17988943.611 7 -13579786.71123
 91  5  3 22 10  0.0000000  0  5G15G 2G13G19G 6
  24009433.7584   -1688310.26745   -883092.48661
  20804184.5554  -16277165.53847 -12611483.05163
  23459325.867    -3678954.316 5  -2351199.98821
  23099651.2814   11277182.02745   8788833.37061
  21163102.953   -18011085.182 7 -13597039.85923
 91  5  3 22 10 15.0000000  0  5G15G 2G13G19G 6
  24005792.719    -1707439.443 5   -897998.22321
  20804322.9614  -16276442.05047 -12610919.29663
  23448263.859    -3737088.985 5  -2396499.52821
  23106986.7344   11315724.78645   8818866.57261
  21158898.422   -18033172.833 7 -13614250.99423
 91  5  3 22 10 30.0000000  0  5G15G 2G13G19G 6
  24002176.258    -1726462.274 5   -912821.13421
  20804471.6174  -16275664.40547 -12610313.33663
  23437212.0164   -3795176.96445  -2441762.67061
  23114334.7114   11354325.09445   8848944.61261
  21154704.938   -18055208.514 7 -13631421.63323
 91  5  3 22 10 45.0000000  0  5G15G 2G13G19G 6
  23998572.4694   -1745381.17245   -927563.03061
  20804629.0004  -16274835.31747 -12609667.30063
  23426161.4694   -3853220.42845  -2486991.17361
  23121688.4384   11392980.15445   8879065.32061
  21150521.117   -18077194.778 7 -13648553.76623
 91  5  3 22 11  0.0000000  0  5G15G 2G13G19G 6
  23994992.4304   -1764192.58645   -942221.19361
  20804797.3754  -16273951.59847 -12608978.68663
  23415128.7424   -3911215.62545  -2532182.03761
  23129054.2424   11431693.17245   8909231.18861
  21146347.711   -18099128.114 7 -13665644.65323
 91  5  3 22 11 15.0000000  0  5G15G 2G13G19G 6
  23991433.4924   -1782898.40745   -956797.04361
  20804976.6024  -16273015.72247 -12608249.43363
  23404099.547    -3969164.567 5  -2577336.86421
  23136432.938    11470461.586 5   8939440.22321
  21142183.742   -18121010.536 7 -13682695.86923
 91  5  3 22 11 30.0000000  0  5G15G 2G13G19G 6
  23987895.0314   -1801493.66345   -971286.75761
  20805165.5784  -16272022.94147 -12607475.83863
  23393082.3444   -4027062.35245  -2622451.78761
  23143822.9774   11509290.29445   8969696.23161
  21138030.344   -18142837.019 7 -13699703.50223
 91  5  3 22 11 45.0000000  0  5G15G 2G13G19G 6
  23984375.7344   -1819980.18445   -985691.74061
  20805363.4304  -16270975.40247 -12606659.57463
  23382074.109    -4084910.780 5  -2667528.28621
  23151219.6334   11548177.04745   8999997.47961
  21133887.039   -18164609.557 7 -13716669.09623
 91  5  3 22 12  0.0000000  0  5G15G 2G13G19G 6
  23980881.875    -1838357.742 5  -1000011.81421
  20805573.7344  -16269872.89147 -12605800.47463
  23371077.008    -4142709.028 5  -2712565.71021
  23158626.9924   11587121.96545   9030344.04661
  21129752.930   -18186327.770 7 -13733592.36023
 91  5  3 22 12 15.0000000  0  5G15G 2G13G19G 6
  23977405.859    -1856627.374 5  -1014247.79821
  20805793.9844  -16268716.89847 -12604899.70063
  23360087.305    -4200458.381 5  -2757564.97621
  23166052.0314   11626123.57845   9060734.79061
  21125630.750   -18207992.712 7 -13750474.11823
 91  5  3 22 12 30.0000000  0  5G15G 2G13G19G 6
  23973947.4534   -1874788.21645  -1028399.00761
  20806024.8054  -16267507.15847 -12603957.04663
  23349105.602    -4258157.996 5  -2802525.53421
  23173488.711    11665182.324 5   9091170.04521
  21121519.211   -18229603.697 7 -13767313.82923
 91  5  3 22 12 45.0000000  0  5G15G 2G13G19G 6
  23970509.7194   -1892840.12445  -1042465.33161
  20806265.3594  -16266243.77547 -12602972.59063
  23338134.9144   -4315807.42645  -2847446.96261
  23180927.3594   11704298.01445   9121649.67861
  21117416.383   -18251160.648 7 -13784111.43223
 91  5  3 22 13  0.0000000  0  5G15G 2G13G19G 6
  23967099.633    -1910779.288 5  -1056443.80021
  20806516.2344  -16264923.36747 -12601943.70263
  23327174.641    -4373402.531 5  -2892326.06321
  23188387.695    11743474.073 5   9152176.35821
  21113325.313   -18272659.929 7 -13800864.10023
 91  5  3 22 13 15.0000000  0  5G15G 2G13G19G 6
  23963705.188    -1928609.748 5  -1070337.56521
  20806778.0314  -16263550.12547 -12600873.64263
  23316224.953    -4430947.398 5  -2937165.99921
  23195849.414    11782706.219 5   9182746.73021
  21109243.625   -18294105.237 7 -13817574.71123
 91  5  3 22 13 30.0000000  0  5G15G 2G13G19G 6
  23960331.531    -1946327.560 5  -1084143.54821
  20807049.3524  -16262120.55747 -12599759.69363
  23305284.750    -4488437.844 5  -2981963.55621
  23203330.047    11821997.869 5   9213363.46821
  21105173.711   -18315493.064 7 -13834240.52923
 91  5  3 22 13 45.0000000  0  5G15G 2G13G19G 6
  23956985.4614   -1963932.20845  -1097861.36561
  20807333.3054  -16260634.43047 -12598601.67163
  23294356.430    -4545873.436 5  -3026718.33121
  23210814.3674   11861349.32745   9244026.81761
  21101114.563   -18336822.706 7 -13850861.00523
 91  5  3 22 14  0.0000000  0  5G15G 2G13G19G 6
  23953652.891    -1981424.986 5  -1111492.00221
  20807624.6484  -16259093.55247 -12597400.98763
  23283435.5864   -4603255.46245  -3071431.39861
  23218317.3914   11900758.83545   9274735.40761
  21097068.477   -18358095.632 7 -13867437.29523
 91  5  3 22 14 15.0000000  0  5G15G 2G13G19G 6
  23950347.9304   -1998807.38845  -1125036.63661
  20807929.6254  -16257499.48247 -12596158.85463
  23272526.398    -4660585.300 5  -3116103.80021
  23225825.8524   11940224.52845   9305487.77161
  21093030.727   -18379313.345 7 -13883970.55723
 91  5  3 22 14 30.0000000  0  5G15G 2G13G19G 6
  23947061.359    -2016076.209 5  -1138492.76221
  20808242.8984  -16255849.39447 -12594873.07163
  23261628.0554   -4717859.55145  -3160732.87361
  23233350.3914   11979749.34545   9336286.19961
  21089004.195   -18400472.529 7 -13900458.21223
 91  5  3 22 14 45.0000000  0  5G15G 2G13G19G 6
  23943799.8204   -2033229.07445  -1151858.52361
  20808568.6334  -16254141.34247 -12593542.12263
  23250738.063    -4775075.745 5  -3205316.71521
  23240880.5084   12019335.33545   9367132.29161
  21084987.313   -18421570.883 7 -13916898.46823
 91  5  3 22 15  0.0000000  0  5G15G 2G13G19G 6
  23940552.2734   -2050268.06245  -1165135.57661
  20808904.0084  -16252377.73147 -12592167.87563
  23239862.625    -4832236.026 5  -3249856.96421
  23248426.5314   12058979.95245   9398024.08361
  21080984.953   -18442610.772 7 -13933293.16823
 91  5  3 22 15 15.0000000  0  5G15G 2G13G19G 6
  23937332.3754   -2067191.62445  -1178322.67061
  20809250.5314  -16250557.07247 -12590749.17963
  23228996.2194   -4889338.53845  -3294352.23761
  23255979.4774   12098684.63445   9428962.67661
  21076993.367   -18463590.379 7 -13949640.88823
 91  5  3 22 15 30.0000000  0  5G15G 2G13G19G 6
  23934138.016    -2084000.989 5  -1191420.77921
  20809607.6334  -16248681.08947 -12589287.37263
  23218139.6174   -4946384.32745  -3338803.27961
  23263546.7894   12138447.72845   9459946.77861
  21073010.664   -18484511.016 7 -13965942.66523
 91  5  3 22 15 45.0000000  0  5G15G 2G13G19G 6
  23930960.203    -2100697.693 5  -1204431.11721
  20809975.1724  -16246751.75447 -12587783.99363
  23207296.0554   -5003374.83645  -3383211.27361
  23271122.7114   12178267.27845   9490974.87561
  21069041.047   -18505374.373 7 -13982199.80523
 91  5  3 22 16  0.0000000  0  5G15G 2G13G19G 6
  23927801.781    -2117282.435 5  -1217354.19121
  20810351.3674  -16244769.68447 -12586239.52063
  23196460.3674   -5060310.42845  -3427576.45961
  23278711.3834   12218142.52145   9522046.36361
  21065081.391   -18526180.904 7 -13998412.66823
 91  5  3 22 16 15.0000000  0  5G15G 2G13G19G 6
  23924670.2584   -2133748.06645  -1230184.46861
  20810740.1024  -16242728.37147 -12584648.88863
  23185638.8984   -5117184.24345  -3471893.49661
  23286311.2344   12258079.95845   9553166.31861
  21061133.805   -18546923.699 7 -14014575.87023
 91  5  3 22 16 30.0000000  0  5G15G 2G13G19G 6
  23921562.086    -2150093.075 5  -1242920.74521
  20811139.7034  -16240626.61447 -12583011.14963
  23174825.9534   -5173994.56245  -3516161.08261
  23293928.7894   12298080.77645   9584335.65261
  21057199.555   -18567601.118 7 -14030688.12523
 91  5  3 22 16 45.0000000  0  5G15G 2G13G19G 6
  23918470.3674   -2166324.06545  -1255568.19561
  20811550.4144  -16238471.48947 -12581331.82963
  23164025.203    -5230748.057 5  -3560384.35721
  23301548.055    12338138.056 5   9615548.98221
  21053276.938   -18588220.066 7 -14046754.82223
 91  5  3 22 17  0.0000000  0  5G15G 2G13G19G 6
  23915401.3754   -2182441.24745  -1268126.94361
  20811970.0164  -16236263.45647 -12579611.28663
  23153236.063    -5287444.870 5  -3604563.50621
  23309182.0164   12378251.14045   9646805.81061
  21049362.609   -18608780.602 7 -14062776.00623
 91  5  3 22 17 15.0000000  0  5G15G 2G13G19G 6
  23912355.0554   -2198436.95045  -1280591.03561
  20812401.9774  -16233995.04547 -12577843.68963
  23142459.227    -5344077.199 5  -3648692.39021
  23316825.453    12418427.351 5   9678111.81721
  21045463.523   -18629275.028 7 -14078745.67023
 91  5  3 22 17 30.0000000  0  5G15G 2G13G19G 6
  23909336.0704   -2214317.23745  -1292965.19261
  20812844.3834  -16231672.75747 -12576034.11363
  23131692.891    -5400650.922 5  -3692775.61721
  23324483.852    12458660.407 5   9709462.10921
  21041575.031   -18649709.818 7 -14094668.86623
 91  5  3 22 17 45.0000000  0  5G15G 2G13G19G 6
  23906335.688    -2230083.370 5  -1305250.41021
  20813295.7344  -16229297.96747 -12574183.62863
  23120941.617    -5457166.702 5  -3736813.67721
  23332146.555    12498948.681 5   9740855.43121
  21037697.563   -18670085.753 7 -14110546.19723
 91  5  3 22 18  0.0000000  0  5G15G 2G13G19G 6
  23903358.8134   -2245732.20745  -1317444.21861
  20813756.8674  -16226867.86747 -12572290.04363
  23110194.969    -5513621.732 5  -3780804.41221
  23339827.156    12539294.842 5   9772293.87221
  21033831.594   -18690399.858 7 -14126375.35423
 91  5  3 22 18 15.0000000  0  5G15G 2G13G19G 6
  23900399.2734   -2261265.39845  -1329547.92161
  20814230.5084  -16224384.41747 -12570354.88763
  23099462.578    -5570017.599 5  -3824749.03721
  23347516.836    12579697.140 5   9803776.04221
  21029977.391   -18710653.871 7 -14142157.68423
 91  5  3 22 18 30.0000000  0  5G15G 2G13G19G 6
  23897470.6484   -2276680.40845  -1341559.53761
  20814714.1174  -16221845.46547 -12568376.48563
  23088743.414    -5626351.328 5  -3868645.26721
  23355217.438    12620157.908 5   9835303.78021
  21026135.164   -18730845.203 7 -14157891.17123
 91  5  3 22 18 45.0000000  0  5G15G 2G13G19G 6
  23894558.609    -2291980.704 5  -1353481.76421
  20815207.0164  -16219254.59547 -12566357.62263
  23078035.2584   -5682626.16045  -3912495.58961
  23362925.6024   12660673.25145   9866874.05161
  21022304.266   -18750977.099 7 -14173578.34223
 91  5  3 22 19  0.0000000  0  5G15G 2G13G19G 6
  23891667.2974   -2307158.70045  -1365308.68161
  20815710.8834  -16216604.78047 -12564292.83263
  23067338.6484   -5738834.83845  -3956294.35961
  23370648.813    12701250.215 5   9898492.32921
  21018486.234   -18771042.182 7 -14189213.45623
 91  5  3 22 19 15.0000000  0  5G15G 2G13G19G 6
  23888804.563    -2322219.072 5  -1377043.96121
  20816226.9224  -16213900.84147 -12562185.86363
  23056654.1174   -5794981.58745  -4000044.86861
  23378379.586    12741883.882 5   9930154.78921
  21014678.758   -18791045.214 7 -14204800.21523
 91  5  3 22 19 30.0000000  0  5G15G 2G13G19G 6
  23885958.5704   -2337161.95045  -1388687.68361
  20816750.2814  -16211143.14747 -12560037.01563
  23045980.9384   -5851066.47745  -4043747.19661
  23386123.109    12782573.741 5   9961861.03521
  21010885.461   -18810986.145 7 -14220338.59123
 91  5  3 22 19 45.0000000  0  5G15G 2G13G19G 6
  23883140.703    -2351984.334 5  -1400237.51621
  20817285.8984  -16208328.99747 -12557844.17363
  23035325.0394   -5907086.34345  -4087398.83761
  23393878.172    12823322.578 5   9993613.23321
  21007102.719   -18830862.078 7 -14235826.30823
 91  5  3 22 20  0.0000000  0  5G15G 2G13G19G 6
  23880341.6254   -2366688.12345  -1411694.93061
  20817831.5314  -16205460.65747 -12555609.10563
  23024673.234    -5963042.930 5  -4131001.21021
  23401642.0004   12864128.26045  10025409.72961
  21003332.711   -18850674.732 7 -14251264.72423
 91  5  3 22 20 15.0000000  0  5G15G 2G13G19G 6
  23877563.219    -2381273.627 5  -1423060.17821
  20818387.9454  -16202538.89447 -12553332.40863
  23014035.703    -6018936.584 5  -4174554.49421
  23409419.273    12904989.891 5  10057249.82421
  20999574.578   -18870424.804 7 -14266654.37723
 91  5  3 22 20 30.0000000  0  5G15G 2G13G19G 6
  23874812.594    -2395740.750 5  -1434333.17321
  20818954.1954  -16199563.69847 -12551014.07763
  23003413.859    -6074766.951 5  -4218058.50121
  23417206.570    12945907.335 5  10089133.41821
  20995827.672   -18890111.923 7 -14281994.97423
 91  5  3 22 20 45.0000000  0  5G15G 2G13G19G 6
  23872082.203    -2410086.293 5  -1445511.43721
  20819530.7894  -16196532.13747 -12548651.82263
  22992800.4064   -6130530.58445  -4261510.50461
  23425000.633    12986883.543 5  10121062.79121
  20992094.313   -18909732.902 7 -14297284.03423
 91  5  3 22 21  0.0000000  0  5G15G 2G13G19G 6
  23869371.648    -2424310.616 5  -1456595.24221
  20820118.0784  -16193444.92047 -12546246.20263
  22982202.266    -6186227.980 5  -4304910.88021
  23432809.664    13027917.620 5  10153037.26121
  20988372.344   -18929288.154 7 -14312521.87223
 91  5  3 22 21 15.0000000  0  5G15G 2G13G19G 6
  23866692.383    -2438413.967 5  -1467584.78921
  20820716.8834  -16190302.56247 -12543797.61563
  22971614.953    -6241859.160 5  -4348259.65821
  23440630.289    13069009.120 5  10185056.47921
  20984663.414   -18948777.979 7 -14327708.73723
 91  5  3 22 21 30.0000000  0  5G15G 2G13G19G 6
  23864031.109    -2452397.051 5  -1478480.61821
  20821324.9144  -16187106.10747 -12541306.87563
  22961040.1334   -6297424.62245  -4391557.21961
  23448460.719    13110157.020 5  10217119.63521
  20980968.266   -18968202.970 7 -14342845.07523
 91  5  3 22 21 45.0000000  0  5G15G 2G13G19G 6
  23861393.8524   -2466256.85845  -1489280.39461
  20821943.5704  -16183853.08047 -12538772.05463
  22950480.6094   -6352921.65645  -4434801.49261
  23456302.781    13151363.645 5  10249228.55121
  20977283.180   -18987560.559 7 -14357928.89523
 91  5  3 22 22  0.0000000  0  5G15G 2G13G19G 6
  23858779.602    -2479997.925 5  -1499987.64421
  20822572.7504  -16180548.02547 -12536196.69463
  22939930.133    -6408354.445 5  -4477995.68621
  23464149.8364   13192624.48945  10281379.72961
  20973612.234   -19006854.611 7 -14372963.20423
 91  5  3 22 22 15.0000000  0  5G15G 2G13G19G 6
  23856185.844    -2493617.592 5  -1510600.30221
  20823211.2734  -16177188.92547 -12533579.22163
  22929395.797    -6463720.314 5  -4521137.74221
  23472015.898    13233941.651 5  10313574.78021
  20969953.969   -19026082.930 7 -14387946.29823
 91  5  3 22 22 30.0000000  0  5G15G 2G13G19G 6
  23853618.070    -2507112.525 5  -1521115.76121
  20823862.3594  -16173772.36647 -12530916.97163
  22918873.1644   -6519015.48045  -4564224.69061
  23479887.945    13275318.533 5  10345816.38021
  20966308.750   -19045241.905 7 -14402875.34923
 91  5  3 22 22 45.0000000  0  5G15G 2G13G19G 6
  23851075.8284   -2520485.18545  -1531535.95361
  20824522.9694  -16170301.17847 -12528212.15863
  22908363.164    -6574242.326 5  -4607258.43521
  23487775.164    13316752.317 5  10378102.29921
  20962674.2034  -19064334.18747 -14417752.44263
 91  5  3 22 23  0.0000000  0  5G15G 2G13G19G 6
  23848551.6484   -2533733.96845  -1541859.61261
  20825193.4844  -16166774.07347 -12525463.77063
  22897866.031    -6629399.271 5  -4650237.68021
  23495671.648    13358244.098 5  10410433.42421
  20959054.617   -19083357.995 7 -14432576.17023
 91  5  3 22 23 15.0000000  0  5G15G 2G13G19G 6
  23846052.211    -2546863.537 5  -1552090.37721
  20825874.0234  -16163195.98047 -12522675.65763
  22887385.0864   -6684490.75145  -4693165.93561
  23503576.281    13399788.785 5  10442805.77621
  20955446.305   -19102318.013 7 -14447350.19823
 91  5  3 22 23 30.0000000  0  5G15G 2G13G19G 6
  23843576.273    -2559871.141 5  -1562226.11521
  20826566.0234  -16159564.23148 -12519845.72963
  22876912.0004   -6739513.99345  -4736041.01061
  23511494.281    13441388.807 5  10475221.24421
  20951851.305   -19121211.335 7 -14462072.25023
 91  5  3 22 23 45.0000000  0  5G15G 2G13G19G 6
  23841127.2894   -2572759.17345  -1572268.67061
  20827267.1414  -16155881.54348 -12516976.10863
  22866455.320    -6794471.022 6  -4778864.50721
  23519418.7274   13483041.61945  10507677.83661
  20948269.383   -19140040.368 7 -14476744.21323
 91  5  3 22 24  0.0000000  0  5G15G 2G13G19G 6
  23838698.2734   -2585520.13145  -1582212.23361
  20827978.8984  -16152140.64248 -12514061.12763
  22856011.3834   -6849354.25645  -4821630.50361
  23527356.852    13524754.528 5  10540181.26721
  20944697.305   -19158797.697 7 -14491360.30023
 91  5  3 22 24 15.0000000  0  5G15G 2G13G19G 6
  23836292.4304   -2598157.59345  -1592059.53661
  20828700.2034  -16148345.80747 -12511104.11863
  22845581.922    -6904167.252 6  -4864341.75421
  23535302.328    13566523.197 5  10572728.13021
  20941142.156   -19177487.116 7 -14505923.46623
 91  5  3 22 24 30.0000000  0  5G15G 2G13G19G 6
  23833910.9534   -2610672.67445  -1601811.49661
  20829433.0474  -16144498.06647 -12508105.88663
  22835163.8674   -6958910.73946  -4906998.86161
  23543262.7274   13608346.64445  10605317.69161
  20937597.961   -19196109.274 7 -14520434.22423
 91  5  3 22 24 45.0000000  0  5G15G 2G13G19G 6
  23831551.9064   -2623065.13245  -1611467.91261
  20830175.5474  -16140597.56847 -12505066.54363
  22824758.023    -7013584.465 5  -4949601.57621
  23551232.117    13650224.511 5  10637949.64221
  20934067.320   -19214664.169 7 -14534892.57323
 91  5  3 22 25  0.0000000  0  5G15G 2G13G19G 6
  23829218.234    -2635334.031 5  -1621028.03621
  20830926.9064  -16136643.63447 -12501985.56163
  22814371.3134   -7068187.20246  -4992148.99361
  23559214.5234   13692157.41045  10670624.49261
  20930549.773   -19233150.750 7 -14549297.68623
 91  5  3 22 25 15.0000000  0  5G15G 2G13G19G 6
  23826908.539    -2647479.425 5  -1630491.93121
  20831690.1334  -16132636.65947 -12498863.24863
  22803991.836    -7122719.162 6  -5034641.27521
  23567201.227    13734145.032 5  10703341.97021
  20927044.367   -19251568.962 7 -14563649.52423
 91  5  3 22 25 30.0000000  0  5G15G 2G13G19G 6
  23824615.6954   -2659499.63645  -1639858.28661
  20832462.5164  -16128575.02047 -12495698.34063
  22793627.750    -7177178.254 6  -5077076.77521
  23575203.469    13776188.923 5  10736103.30221
  20923553.742   -19269917.293 7 -14577946.91223
 91  5  3 22 25 45.0000000  0  5G15G 2G13G19G 6
  23822355.547    -2671395.489 5  -1649127.72321
  20833246.5784  -16124459.66947 -12492491.57663
  22783278.5864   -7231565.23546  -5119456.07261
  23583215.0704   13818288.09245  10768907.70461
  20920076.063   -19288196.358 7 -14592190.32523
 91  5  3 22 26  0.0000000  0  5G15G 2G13G19G 6
  23820114.227    -2683167.370 5  -1658300.57821
  20834038.8754  -16120291.48448 -12489243.64463
  22772942.2344   -7285880.21546  -5161779.26761
  23591237.305    13860441.500 4  10801754.36621
  20916610.383   -19306406.397 7 -14606379.95223
 91  5  3 22 26 15.0000000  0  5G15G 2G13G19G 6
  23817896.094    -2694810.650 5  -1667373.21821
  20834843.2584  -16116066.10848 -12485951.14763
  22762620.7114   -7340118.44946  -5204042.66861
  23599268.4774   13902653.40645  10834646.61361
  20913157.234   -19324542.917 7 -14620512.29323
 91  5  3 22 26 30.0000000  0  5G15G 2G13G19G 6
  23815708.492    -2706329.441 5  -1676348.83721
  20835656.9064  -16111787.77548 -12482617.38663
  22752314.4694   -7394283.93146  -5246249.40361
  23607314.5944   13944919.76145  10867581.27961
  20909720.6564  -19342609.75947 -14634590.33963
 91  5  3 22 26 45.0000000  0  5G15G 2G13G19G 6
  23813538.5554   -2717724.01945  -1685227.70961
  20836482.1024  -16107457.15648 -12479242.88263
  22742018.523    -7448377.019 6  -5288399.67221
  23615364.4064   13987239.72945  10900557.72961
  20906295.203   -19360607.542 7 -14648614.57323
 91  5  3 22 27  0.0000000  0  5G15G 2G13G19G 6
  23811396.891    -2728986.992 5  -1694004.00021
  20837316.8204  -16103067.10948 -12475822.06763
  22731741.586    -7502389.690 6  -5330487.32121
  23623432.9144   14029620.48645  10933581.54661
  20902886.250   -19378528.632 7 -14662579.04123
 91  5  3 22 27 15.0000000  0  5G15G 2G13G19G 6
  23809275.609    -2740130.331 5  -1702687.08221
  20838161.6644  -16098630.02548 -12472364.60563
  22721475.0394   -7556334.19246  -5372521.85561
  23631503.984    14072049.653 5  10966643.09221
  20899485.3284  -19396385.16647 -14676493.21363
 91  5  3 22 27 30.0000000  0  5G15G 2G13G19G 6
  23807180.984    -2751149.757 5  -1711273.62021
  20839015.2194  -16094141.57348 -12468867.11663
  22711226.070    -7610206.126 6  -5414499.81821
  23639590.4144   14114530.96445  10999745.24861
  20896102.906   -19414172.528 7 -14690353.48123
 91  5  3 22 27 45.0000000  0  5G15G 2G13G19G 6
  23805105.3524   -2762045.50045  -1719763.76461
  20839878.7274  -16089602.36948 -12465330.07863
  22700986.344    -7664005.597 6  -5456421.34921
  23647681.4224   14157064.04845  11032887.76361
  20892730.438   -19431891.166 7 -14704160.20123
 91  5  3 22 28  0.0000000  0  5G15G 2G13G19G 6
  23803053.742    -2772815.504 5  -1728155.95021
  20840751.8754  -16085010.68148 -12461752.14263
  22690762.7974   -7717730.28146  -5498284.57561
  23655786.3914   14199650.60845  11066071.93961
  20889372.7274  -19449539.01747 -14717911.75963
 91  5  3 22 28 15.0000000  0  5G15G 2G13G19G 6
  23801028.797    -2783458.698 5  -1736449.30421
  20841635.9924  -16080365.51848 -12458132.54563
  22680553.039    -7771378.851 6  -5540088.51721
  23663900.547    14242291.583 5  11099298.52221
  20886028.2034  -19467114.71347 -14731607.09563
 91  5  3 22 28 30.0000000  0  5G15G 2G13G19G 6
  23799027.891    -2793975.829 5  -1744644.43421
  20842531.0164  -16075667.83648 -12454472.01563
  22670358.781    -7824951.864 6  -5581833.55721
  23672023.0004   14284986.04745  11132566.78861
  20882697.484   -19484618.815 7 -14745246.63923
 91  5  3 22 28 45.0000000  0  5G15G 2G13G19G 6
  23797054.2194   -2804365.39545  -1752740.14561
  20843435.0554  -16070916.43248 -12450769.62663
  22660179.4534   -7878447.80346  -5623518.56461
  23680161.789    14327734.952 5  11165877.47621
  20879379.969   -19502049.986 7 -14758829.35523
 91  5  3 22 29  0.0000000  0  5G15G 2G13G19G 6
  23795096.6644   -2814627.86845  -1760736.85061
  20844348.6024  -16066112.26248 -12447026.12263
  22650014.711    -7931867.120 6  -5665143.84121
  23688309.4774   14370537.26645  11199229.78061
  20876076.641   -19519408.985 7 -14772355.83223
 91  5  3 22 29 15.0000000  0  5G15G 2G13G19G 6
  23793169.750    -2824768.527 5  -1768638.62121
  20845271.9224  -16061260.63048 -12443245.63463
  22639861.750    -7985214.705 6  -5706713.26621
  23696460.3754   14413387.78745  11232619.64361
  20872785.867   -19536700.659 7 -14785829.85023
 91  5  3 22 29 30.0000000  0  5G15G 2G13G19G 6
  23791263.977    -2834789.797 5  -1776447.35521
  20846203.9844  -16056364.29548 -12439430.31363
  22629722.8674   -8038492.88646  -5748228.57561
  23704624.4064   14456283.73345  11266044.91261
  20869506.938   -19553927.373 7 -14799253.24823
 91  5  3 22 29 45.0000000  0  5G15G 2G13G19G 6
  23789377.000    -2844688.595 5  -1784160.68621
  20847143.7814  -16051420.32948 -12435577.87663
  22619596.6954   -8091698.29746  -5789687.18061
  23712798.898    14499227.854 5  11299507.69221
  20866242.359   -19571086.085 7 -14812623.65623
 91  5  3 22 30  0.0000000  0  5G15G 2G13G19G 6
  23787519.641    -2854458.898 5  -1791773.85821
  20848095.0394  -16046423.06648 -12431683.91163
  22609489.3204   -8144825.00246  -5831084.46461
  23720976.133    14542225.874 5  11333012.48321
  20862991.148   -19588170.780 7 -14825936.39123
 91  5  3 22 30 15.0000000  0  5G15G 2G13G19G 6
  23785683.797    -2864103.732 5  -1799289.27421
  20849056.6094  -16041375.61848 -12427750.84063
  22599393.852    -8197875.593 6  -5872422.44621
  23729169.258    14585274.702 5  11366556.86421
  20859753.211   -19605184.144 7 -14839193.54323
 91  5  3 22 30 30.0000000  0  5G15G 2G13G19G 6
  23783873.9924   -2873620.01145  -1806704.51061
  20850026.7034  -16036275.17748 -12423776.47263
  22589314.0164   -8250846.94146  -5913698.67861
  23737372.883    14628376.806 4  11400142.78321
  20856530.313   -19622123.202 7 -14852392.79423
 91  5  3 22 30 45.0000000  0  5G15G 2G13G19G 6
  23782083.641    -2883010.039 5  -1814021.38021
  20851006.8674  -16031124.23448 -12419762.75863
  22579247.266    -8303741.307 6  -5954914.91521
  23745583.7114   14671529.59844  11433768.18961
  20853321.063   -19638990.193 7 -14865535.89023
 91  5  3 22 31  0.0000000  0  5G15G 2G13G19G 6
  23780320.828    -2892275.324 5  -1821241.03121
  20851996.4304  -16025924.75848 -12415711.22263
  22569196.6414   -8356560.16446  -5996072.30961
  23753803.9694   14714731.18944  11467431.61061
  20850125.953   -19655786.675 7 -14878624.04423
 91  5  3 22 31 15.0000000  0  5G15G 2G13G19G 6
  23778581.156    -2901416.828 5  -1828364.24721
  20852995.0864  -16020677.89248 -12411622.75963
  22559157.4844   -8409304.08146  -6037171.32161
  23762035.2734   14757980.34744  11501132.10661
  20846941.070   -19672513.516 7 -14891657.93423
 91  5  3 22 31 30.0000000  0  5G15G 2G13G19G 6
  23776866.4384   -2910435.04745  -1835391.37161
  20854003.2664  -16015384.01248 -12407497.66463
  22549136.508    -8461973.169 6  -6078212.02321
  23770273.359    14801276.477 4  11534869.18221
  20843771.344   -19689171.108 7 -14904637.86123
 91  5  3 22 31 45.0000000  0  5G15G 2G13G19G 6
  23775172.7584   -2919328.18645  -1842321.05061
  20855018.9144  -16010041.53648 -12403334.70663
  22539128.6564   -8514565.79546  -6119193.12861
  23778522.2114   14844621.23544  11568644.16261
  20840615.7734  -19705757.48447 -14917562.29963
 91  5  3 22 32  0.0000000  0  5G15G 2G13G19G 6
  23773504.8984   -2928093.37445  -1849151.01561
  20856044.6884  -16004648.28248 -12399132.17763
  22529135.9224   -8567078.84246  -6160112.24261
  23786780.7344   14888016.84944  11602458.78261
  20837473.633   -19722269.844 7 -14930429.05823
 91  5  3 22 32 15.0000000  0  5G15G 2G13G19G 6
  23771862.4224   -2936731.05545  -1855881.63461
  20857081.0314  -15999204.71648 -12394890.45163
  22519157.750    -8619512.454 6  -6200969.46621
  23795049.1254   14931462.75644  11636312.56961
  20834343.5314  -19738708.46147 -14943238.36263
 91  5  3 22 32 30.0000000  0  5G15G 2G13G19G 6
  23770240.891    -2945241.632 5  -1862513.21921
  20858127.1644  -15993711.69548 -12390610.18363
  22509194.0784   -8671867.13246  -6241765.16861
  23803324.680    14974957.920 4  11670204.74221
  20831229.484   -19755073.814 7 -14955990.57223
 91  5  3 22 32 45.0000000  0  5G15G 2G13G19G 6
  23768647.4224   -2953626.41945  -1869046.78861
  20859181.453   -15988170.407 8 -12386292.31023
  22499245.891    -8724143.909 6  -6282500.17821
  23811611.6644   15018501.07244  11704134.32261
  20828129.6024  -19771367.08947 -14968686.62263
 91  5  3 22 33  0.0000000  0  5G15G 2G13G19G 6
  23767080.8284   -2961880.75845  -1875478.70361
  20860245.0084  -15982576.31948 -12381933.28863
  22489313.750    -8776337.978 6  -6323170.75121
  23819911.5234   15062096.44844  11738104.58561
  20825044.297   -19787583.519 7 -14981322.78923
 91  5  3 22 33 15.0000000  0  5G15G 2G13G19G 6
  23765530.9774   -2970006.48945  -1881810.39561
  20861319.1954  -15976931.64248 -12377534.84963
  22479395.9694   -8828450.91946  -6363778.08961
  23828211.1564   15105742.02244  11772113.95461
  20821972.5634  -19803724.67547 -14993900.30163
 91  5  3 22 33 30.0000000  0  5G15G 2G13G19G 6
  23764007.1254   -2978006.26845  -1888043.95261
  20862401.8284  -15971239.59248 -12373099.49363
  22469498.016    -8880485.376 6  -6404324.29121
  23836527.2894   15149434.72644  11806160.07061
  20818914.398   -19819793.537 7 -15006421.48223
 91  5  3 22 33 45.0000000  0  5G15G 2G13G19G 6
  23762507.9304   -2985878.24945  -1894177.93661
  20863495.078   -15965498.267 8 -12368625.74623
  22459608.7504   -8932439.00746  -6444807.50261
  23844850.328    15193176.275 4  11840244.23021
  20815870.3984  -19835788.08047 -15018884.75463
 91  5  3 22 34  0.0000000  0  5G15G 2G13G19G 6
  23761035.9454   -2993623.71245  -1900213.33561
  20864597.3364  -15959708.95848 -12364114.60563
  22449738.3204   -8984313.10446  -6485228.75661
  23853182.852    15236965.037 4  11874365.17721
  20812841.188   -19851709.351 7 -15031290.92923
 91  5  3 22 34 15.0000000  0  5G15G 2G13G19G 6
  23759586.5474   -3001238.26545  -1906146.70861
  20865709.1564  -15953867.51448 -12359562.84163
  22439881.766    -9036102.940 6  -6525584.33621
  23861525.9844   15280805.20544  11908526.17761
  20809825.2274  -19867552.62947 -15043636.33563
 91  5  3 22 34 30.0000000  0  5G15G 2G13G19G 6
  23758161.8594   -3008723.57245  -1911979.38161
  20866830.0474  -15947975.78048 -12354971.88763
  22430043.6804   -9087809.87546  -6565875.33261
  23869879.656    15324694.983 4  11942725.83821
  20806825.1804  -19883319.82347 -15055922.45063
 91  5  3 22 34 45.0000000  0  5G15G 2G13G19G 6
  23756762.734    -3016078.889 5  -1917710.77821
  20867962.0634  -15942033.19748 -12350341.31463
  22420219.4224   -9139432.81346  -6606100.85061
  23878238.4924   15368634.83944  11976964.51961
  20803838.8444  -19899009.84347 -15068148.43263
 91  5  3 22 35  0.0000000  0  5G15G 2G13G19G 6
  23755387.0234   -3023307.20545  -1923343.20361
  20869101.0944  -15936043.22648 -12345673.81363
  22410411.281    -9190975.208 6  -6646263.64521
  23886609.359    15412621.207 4  12011239.43921
  20800867.9694  -19914625.91547 -15080316.79163
 91  5  3 22 35 15.0000000  0  5G15G 2G13G19G 6
  23754035.6334   -3030405.46345  -1928874.28961
  20870250.8914  -15930003.24748 -12340967.34363
  22400619.0474   -9242434.03846  -6686361.31261
  23894989.711    15456656.628 5  12045552.59021
  20797910.8054  -19930164.95447 -15092425.12663
 91  5  3 22 35 30.0000000  0  5G15G 2G13G19G 6
  23752708.883    -3037371.090 5  -1934302.01621
  20871409.3054  -15923910.42148 -12336219.69663
  22390842.1484   -9293806.21746  -6726391.46061
  23903382.188    15500743.659 4  12079905.94721
  20794969.7894  -19945624.14647 -15104471.24363
 91  5  3 22 35 45.0000000  0  5G15G 2G13G19G 6
  23751412.023    -3044204.754 5  -1939626.91621
  20872579.3984  -15917765.64748 -12331431.56663
  22381084.398    -9345092.115 6  -6766354.36821
  23911778.5944   15544881.47444  12114298.90861
  20792042.5314  -19961004.12547 -15116455.63363
 91  5  3 22 36  0.0000000  0  5G15G 2G13G19G 6
  23750134.0314   -3050909.18745  -1944851.11461
  20873757.7664  -15911571.96548 -12326605.32863
  22371340.8674   -9396294.30946  -6806252.06661
  23920188.859    15589067.167 4  12148729.12921
  20789129.6804  -19976307.30447 -15128380.17563
 91  5  3 22 36 15.0000000  0  5G15G 2G13G19G 6
  23748886.977    -3057480.868 5  -1949971.87721
  20874946.2424  -15905325.87048 -12321738.24863
  22361613.8054   -9447408.98946  -6846081.56461
  23928605.523    15633303.858 4  12183199.11421
  20786233.6724  -19991529.90947 -15140241.93863
 91  5  3 22 36 30.0000000  0  5G15G 2G13G19G 6
  23747659.2034   -3063921.07445  -1954990.19061
  20876144.5084  -15899029.03848 -12316831.63263
  22351902.102    -9498437.295 6  -6885843.77221
  23937037.1644   15677589.68644  12217707.37861
  20783352.680   -20006673.701 7 -15152042.28323
 91  5  3 22 36 45.0000000  0  5G15G 2G13G19G 6
  23746458.906    -3070231.127 5  -1959907.06621
  20877352.3364  -15892682.93448 -12311886.61963
  22342207.4144   -9549380.49646  -6925539.65661
  23945468.578    15721923.427 4  12252252.97021
  20780485.633   -20021739.577 7 -15163781.91323
 91  5  3 22 37  0.0000000  0  5G15G 2G13G19G 6
  23745281.3674   -3076408.28245  -1964720.40161
  20878568.9144  -15886284.91848 -12306901.15863
  22332531.3204   -9600235.51446  -6965166.81861
  23953915.625    15766307.338 4  12286837.67221
  20777633.922   -20036724.778 7 -15175458.67723
 91  5  3 22 37 15.0000000  0  5G15G 2G13G19G 6
  23744132.6564   -3082450.67745  -1969428.73161
  20879796.1564  -15879833.53548 -12301874.10563
  22322872.0004   -9651000.52846  -7004723.86361
  23962371.805    15810743.009 4  12321462.70021
  20774798.930   -20051627.360 7 -15187071.06623
 91  5  3 22 37 30.0000000  0  5G15G 2G13G19G 6
  23743007.6644   -3088360.61245  -1974033.83361
  20881033.7814  -15873331.13848 -12296807.30263
  22313227.2974   -9701677.37746  -7044212.20061
  23970840.672    15855227.889 4  12356126.07221
  20771977.875   -20066449.464 7 -15198620.74323
 91  5  3 22 37 45.0000000  0  5G15G 2G13G19G 6
  23741910.4774   -3094134.62845  -1978533.04361
  20882281.8674  -15866774.33748 -12291698.10563
  22303600.352    -9752262.230 6  -7083628.86721
  23979313.6484   15899765.44544  12390830.47761
  20769172.422   -20081187.526 7 -15210104.92823
 91  5  3 22 38  0.0000000  0  5G15G 2G13G19G 6
  23740836.344    -3099774.159 5  -1982927.43921
  20883540.5944  -15860164.90348 -12286547.90363
  22293991.375    -9802756.623 6  -7122975.03221
  23987796.5234   15944353.68144  12425574.38361
  20766383.688   -20095842.839 7 -15221524.63723
 91  5  3 22 38 15.0000000  0  5G15G 2G13G19G 6
  23739787.656    -3105282.657 5  -1987219.73421
  20884807.2974  -15853506.30448 -12281359.38563
  22284398.6954   -9853163.86946  -7162253.28561
  23996289.781    15988988.946 4  12460354.92421
  20763610.484   -20110418.745 7 -15232882.46923
 91  5  3 22 38 30.0000000  0  5G15G 2G13G19G 6
  23738765.0394   -3110658.49345  -1991408.66261
  20886082.6094  -15846797.32848 -12276131.61063
  22274823.539    -9903482.388 6  -7201462.40521
  24004799.7114   16033672.43144  12495173.06561
  20760851.430   -20124913.807 7 -15244177.30123
 91  5  3 22 38 45.0000000  0  5G15G 2G13G19G 6
  23737764.633    -3115898.786 5  -1995491.98121
  20887370.0084  -15840035.33048 -12270862.51963
  22265265.2814   -9953708.93346  -7240599.85561
  24013306.5394   16078406.80344  12530030.84261
  20758109.766   -20139324.877 7 -15255406.68823
 91  5  3 22 39  0.0000000  0  5G15G 2G13G19G 6
  23736795.547    -3121004.029 5  -1999470.03721
  20888666.9924  -15833220.90548 -12265552.57663
  22255724.1564  -10003843.76646  -7279665.84361
  24021834.094    16123191.335 4  12564927.70521
  20755383.070   -20153652.231 7 -15266570.84523
 91  5  3 22 39 15.0000000  0  5G15G 2G13G19G 6
  23735849.8594   -3125973.10845  -2003342.01361
  20889974.6334  -15826353.16148 -12260201.08963
  22246202.789   -10053885.478 6  -7318659.26821
  24030360.797    16168027.012 4  12599864.45121
  20752673.016   -20167894.621 7 -15277668.79523
 91  5  3 22 39 30.0000000  0  5G15G 2G13G19G 6
  23734929.984    -3130808.868 5  -2007110.08121
  20891290.1414  -15819434.90448 -12254810.24463
  22236697.7504  -10103836.80446  -7357582.26161
  24038904.953    16212910.645 4  12634838.53421
  20749979.523   -20182054.966 7 -15288702.81423
 91  5  3 22 39 45.0000000  0  5G15G 2G13G19G 6
  23734036.0164   -3135509.71145  -2010773.05161
  20892617.7734  -15812464.69648 -12249378.91563
  22227209.6724  -10153695.76246  -7396433.28361
  24047454.1334   16257843.71444  12669851.14761
  20747299.680   -20196131.394 7 -15299671.44123
 91  5  3 22 40  0.0000000  0  5G15G 2G13G19G 6
  23733167.1644   -3140074.70645  -2014330.13061
  20893953.0864  -15805441.80148 -12243906.53163
  22217739.7584  -10203461.22646  -7435211.45561
  24056020.164    16302826.967 4  12704902.85021
  20744636.570   -20210122.698 7 -15310573.73823
 91  5  3 22 40 15.0000000  0  5G15G 2G13G19G 6
  23732324.797    -3144504.827 5  -2017782.14421
  20895299.7274  -15798367.41348 -12238394.02363
  22208286.9224  -10253134.09446  -7473917.46261
  24064584.7974   16347858.78745  12739992.42761
  20741991.844   -20224030.033 7 -15321410.60723
 91  5  3 22 40 30.0000000  0  5G15G 2G13G19G 6
  23731508.1884   -3148798.99145  -2021128.19761
  20896656.1254  -15791240.65148 -12232840.71163
  22198852.289   -10302713.277 6  -7512550.48221
  24073163.1414   16392940.04244  12775120.51661
  20739359.609   -20237852.256 7 -15332181.15823
 91  5  3 22 40 45.0000000  0  5G15G 2G13G19G 6
  23730716.0004   -3152960.93745  -2024371.22561
  20898020.9614  -15784065.27848 -12227249.51463
  22189434.4064  -10352202.11846  -7551113.09961
  24081749.398    16438067.219 4  12810284.38221
  20736747.055   -20251592.538 7 -15342887.85423
 91  5  3 22 41  0.0000000  0  5G15G 2G13G19G 6
  23729946.461    -3156984.518 5  -2027506.43921
  20899397.1724  -15776835.52248 -12221615.94063
  22180035.406   -10401594.501 6  -7589600.55921
  24090345.8284   16483245.84244  12845488.35261
  20734147.695   -20265245.005 7 -15353526.12723
 91  5  3 22 41 15.0000000  0  5G15G 2G13G19G 6
  23729208.0084   -3160873.77245  -2030536.98861
  20900781.7814  -15769555.58048 -12215943.26463
  22170652.8204  -10450894.00646  -7628015.63861
  24098952.023    16528471.527 4  12880728.97121
  20731565.9384  -20278813.66547 -15364099.10063
 91  5  3 22 41 30.0000000  0  5G15G 2G13G19G 6
  23728497.844    -3164627.145 5  -2033461.63621
  20902177.8834  -15762223.94948 -12210230.30763
  22161289.8054  -10500098.81646  -7666356.93561
  24107572.875    16573745.549 4  12916007.26621
  20728998.836   -20292296.623 7 -15374605.28523
 91  5  3 22 41 45.0000000  0  5G15G 2G13G19G 6
  23727810.0704   -3168242.74045  -2036278.93561
  20903582.4304  -15754839.03548 -12204475.83363
  22151946.8444  -10549207.15846  -7704623.05761
  24116194.992    16619069.584 4  12951324.54621
  20726451.5944  -20305691.96447 -15385043.19763
 91  5  3 22 42  0.0000000  0  5G15G 2G13G19G 6
  23727147.6174   -3171719.93345  -2038988.39261
  20904998.2194  -15747400.36548 -12198679.47063
  22142618.320   -10598218.077 6  -7742813.27021
  24124831.7734   16664444.07744  12986681.10161
  20723918.750   -20318998.950 7 -15395412.26823
 91  5  3 22 42 15.0000000  0  5G15G 2G13G19G 6
  23726506.1564   -3175063.02745  -2041593.36361
  20906421.8204  -15739912.22648 -12192844.55863
  22133309.9144  -10647135.44246  -7780930.59161
  24133471.5634   16709864.61544  13022073.56361
  20721403.320   -20332221.601 7 -15405715.61723
 91  5  3 22 42 30.0000000  0  5G15G 2G13G19G 6
  23725899.8754   -3178271.44745  -2044093.38461
  20907858.4924  -15732374.24748 -12186970.81263
  22124020.039   -10695958.618 6  -7818974.50121
  24142125.4454   16755331.31344  13057501.99761
  20718901.891   -20345359.339 7 -15415952.80123
 91  5  3 22 42 45.0000000  0  5G15G 2G13G19G 6
  23725315.5004   -3181342.83245  -2046486.62761
  20909302.5474  -15724784.00248 -12181056.34063
  22114747.734   -10744684.888 6  -7856942.91421
  24150784.9304   16800846.35544  13092968.07961
  20716419.813   -20358409.456 7 -15426121.71223
 91  5  3 22 43  0.0000000  0  5G15G 2G13G19G 6
  23724757.0474   -3184279.89745  -2048775.19961
  20910756.0474  -15717144.61348 -12175103.57263
  22105492.9304  -10793317.01046  -7894837.96061
  24159454.578    16846406.674 4  13128469.46121
  20713952.477   -20371374.765 7 -15436224.53823
 91  5  3 22 43 15.0000000  0  5G15G 2G13G19G 6
  23724223.2814   -3187078.11945  -2050955.59361
  20912220.0234  -15709451.58248 -12169109.01063
  22096257.500   -10841850.316 6  -7932656.01021
  24168135.3984   16892016.55843  13164009.45261
  20711500.9774  -20384250.56447 -15446257.61663
 91  5  3 22 43 30.0000000  0  5G15G 2G13G19G 6
  23723712.7344   -3189743.18345  -2053032.22961
  20913691.7504  -15701710.79748 -12163077.23363
  22087037.9614  -10890289.88146  -7970400.99861
  24176821.9694   16937670.35243  13199583.65161
  20709068.781   -20397042.449 7 -15456225.30323
 91  5  3 22 43 45.0000000  0  5G15G 2G13G19G 6
  23723233.7664   -3192270.33445  -2055001.39861
  20915175.5314  -15693917.82748 -12157004.79763
  22077840.297   -10938631.240 6  -8008069.49321
  24185519.211    16983372.386 3  13235195.44921
  20706650.3754  -20409745.54647 -15466123.81363
 91  5  3 22 44  0.0000000  0  5G15G 2G13G19G 6
  23722779.648    -3194658.611 5  -2056862.34821
  20916668.7034  -15686071.67948 -12150890.92163
  22068659.516   -10986873.083 6  -8045660.42121
  24194225.945    17029123.199 3  13270845.26221
  20704248.8834  -20422358.61847 -15475952.17263
 91  5  3 22 44 15.0000000  0  5G15G 2G13G19G 6
  23722352.055    -3196907.152 5  -2058614.43221
  20918171.5944  -15678171.55648 -12144734.98463
  22059498.375   -11035014.213 6  -8083172.87921
  24202940.664    17074923.651 3  13306533.76721
  20701868.117   -20434880.714 7 -15485709.63223
 91  5  3 22 44 30.0000000  0  5G15G 2G13G19G 6
  23721947.5314   -3199019.83745  -2060260.63061
  20919684.1254  -15670221.49348 -12138540.13963
  22050357.641   -11083058.075 6  -8120609.54521
  24211663.0944   17120769.70842  13342257.77661
  20699501.4614  -20447315.56347 -15495399.11563
 91  5  3 22 44 45.0000000  0  5G15G 2G13G19G 6
  23721572.7344   -3200993.36745  -2061798.40661
  20921208.6564  -15662218.34148 -12132303.92063
  22041231.930   -11131001.583 6  -8157968.01221
  24220394.852    17166664.126 3  13378019.47421
  20697151.7814  -20459659.74447 -15505017.95063
 91  5  3 22 45  0.0000000  0  5G15G 2G13G19G 6
  23721224.3984   -3202828.53545  -2063228.37561
  20922741.0784  -15654162.95648 -12126027.00763
  22032130.3674  -11178844.91846  -8195248.41861
  24229138.2584   17212606.11443  13413818.25061
  20694818.6094  -20471913.69647 -15514566.47563
 91  5  3 22 45 15.0000000  0  5G15G 2G13G19G 6
  23720904.8754   -3204524.52345  -2064549.89261
  20924283.2114  -15646054.89048 -12119709.04163
  22023044.320   -11226587.407 6  -8232450.24421
  24237891.820    17258596.226 3  13449654.53721
  20692505.1644  -20484076.79947 -15524044.20763
 91  5  3 22 45 30.0000000  0  5G15G 2G13G19G 6
  23720604.5314   -3206084.95645  -2065765.78761
  20925836.2974  -15637897.76148 -12113352.84563
  22013977.102   -11274232.324 6  -8269576.04521
  24246656.516    17304630.531 3  13485525.24421
  20690207.4454  -20496152.39047 -15533453.74863
 91  5  3 22 45 45.0000000  0  5G15G 2G13G19G 6
  23720334.359    -3207505.501 5  -2066872.67721
  20927397.8834  -15629687.36548 -12106955.13963
  22004928.805   -11321775.203 6  -8306622.33321
  24255424.1334   17350712.82643  13521433.34861
  20687927.1174  -20508136.16347 -15542791.74663
 91  5  3 22 46  0.0000000  0  5G15G 2G13G19G 6
  23720090.6414   -3208787.23345  -2067871.38661
  20928970.7274  -15621424.82848 -12100516.80863
  21995900.4064  -11369216.96746  -8343589.83061
  24264200.6254   17396842.05143  13557378.02061
  20685664.4064  -20520028.89747 -15552058.80463
 91  5  3 22 46 15.0000000  0  5G15G 2G13G19G 6
  23719874.7424   -3209929.41545  -2068761.37061
  20930552.6564  -15613109.51248 -12094037.34863
  21986892.617   -11416556.587 6  -8380477.74021
  24272985.539    17443018.783 3  13593359.73221
  20683418.1254  -20531829.58647 -15561254.13663
 91  5  3 22 46 30.0000000  0  5G15G 2G13G19G 6
  23719678.9924   -3210934.63345  -2069544.62161
  20932143.4064  -15604744.19848 -12087518.92963
  21977903.5784  -11463796.18446  -8417287.71161
  24281781.4774   17489240.06343  13629376.11961
  20681191.5554  -20543540.91447 -15570379.83563
 91  5  3 22 46 45.0000000  0  5G15G 2G13G19G 6
  23719514.2584   -3211802.88645  -2070221.16361
  20933744.6254  -15596328.85748 -12080961.53663
  21968932.492   -11510935.619 6  -8454019.63321
  24290588.3524   17535505.97843  13665427.32561
  20678977.7734  -20555162.39447 -15579435.52863
 91  5  3 22 47  0.0000000  0  5G15G 2G13G19G 6
  23719379.5234   -3212529.12445  -2070787.03461
  20935357.8834  -15587858.81648 -12074361.51163
  21959982.023   -11557969.968 6  -8490669.67421
  24299399.289    17581820.941 3  13701516.74021
  20676785.2424  -20566689.04847 -15588417.33263
 91  5  3 22 47 15.0000000  0  5G15G 2G13G19G 6
  23719266.828    -3213116.344 5  -2071244.58021
  20936978.6884  -15579337.35648 -12067721.42263
  21951050.625   -11604902.033 6  -8527240.00121
  24308223.2424   17628181.62343  13737641.77161
  20674610.1414  -20578123.94647 -15597327.63362
 91  5  3 22 47 30.0000000  0  5G15G 2G13G19G 6
  23719184.3364   -3213563.97145  -2071593.34561
  20938611.1254  -15570763.90548 -12061040.82163
  21942141.180   -11651731.058 6  -8563730.04821
  24317053.250    17674588.526 4  13773802.83721
  20672451.5784  -20589466.20047 -15606165.74563
 91  5  3 22 47 45.0000000  0  5G15G 2G13G19G 6
  23719124.0164   -3213873.15045  -2071834.24161
  20940251.477   -15562139.751 8 -12054320.71523
  21933249.109   -11698457.796 6  -8600140.37921
  24325896.5784   17721040.46644  13809999.00161
  20670309.9774  -20600716.73747 -15614932.39262
 91  5  3 22 48  0.0000000  0  5G15G 2G13G19G 6
  23719089.648    -3214042.664 5
  20941903.3834  -15553463.56848 -12047560.06163
  21924376.578   -11745080.502 6  -8636469.66021
  24334743.563    17767538.626 3  13846231.15021
  20668186.922   -20611874.111 7 -15623626.44423
 91  5  3 22 48 15.0000000  0  5G15G 2G13G19G 6
  23719087.1334   -3214069.30645
  20943564.305   -15544732.436 8 -12040756.59923
  21915523.492   -11791595.899 6  -8672715.31321
  24343601.3674   17814085.69944  13882501.42661
  20666081.5704  -20622935.06547 -15632245.36163
 91  5  3 22 48 30.0000000  0  5G15G 2G13G19G 6
  23719106.1804   -3213958.12145
  20945235.9614  -15535951.72248 -12033914.49563
  21906691.9144  -11838008.88946  -8708881.17761
  24352464.672    17860676.202 4  13918805.53221
  20663992.6804  -20633904.71847 -15640793.13563
 91  5  3 22 48 45.0000000  0  5G15G 2G13G19G 6
  23719151.3754   -3213705.38545
  20946916.305   -15527117.629 8 -12027030.79823
  21897881.203   -11884315.600 6  -8744964.22221
  24361343.9064   17907313.77543  13955146.34561
  20661924.7734  -20644778.87647 -15649266.50063
 91  5  3 22 49  0.0000000  0  5G15G 2G13G19G 6
  23719229.727    -3213313.529 5
  20948606.469   -15518232.326 8 -12020107.20223
  21889088.734   -11930518.159 6  -8780966.10621
  24370229.297    17953995.855 3  13991521.80021
  20659874.1094  -20655559.75547 -15657667.17863
 91  5  3 22 49 15.0000000  0  5G15G 2G13G19G 6
  23719330.6414   -3212781.96445  -2070983.81761
  20950308.3674  -15509295.29048 -12013143.28963
  21880316.391   -11976615.572 6  -8816886.05921
  24379117.211    18000723.116 3  14027932.48121
  20657839.5554  -20666246.38447 -15665994.41962
 91  5  3 22 49 30.0000000  0  5G15G 2G13G19G 6
  23719460.188    -3212111.125 5  -2070461.07021
  20952018.8594  -15500307.14748 -12006139.55163
  21871565.375   -12022608.078 6  -8852724.28121
  24388014.906    18047494.700 3  14064377.69821
  20655822.4454  -20676839.14947 -15674248.51862
 91  5  3 22 49 45.0000000  0  4G15G 2G13G 6
  23719612.8754   -3211301.33645  -2069830.04161
  20953737.164   -15491268.479 8 -11999096.45023
  21862832.766   -12068495.924 6  -8888480.93921
  20653826.3674  -20687338.47347 -15682429.80663
 91  5  3 22 50  0.0000000  0  4G15G 2G13G 6
  23719790.5084   -3210349.64245  -2069088.44161
  20955469.320   -15482176.486 8 -11992011.79223
  21854118.945   -12114276.004 6  -8924153.62121
  20651846.5704  -20697741.27347 -15690535.87762
 91  5  3 22 50 15.0000000  0  4G15G 2G13G 6
  23720000.5944   -3209258.39945  -2068238.08861
  20957209.602   -15473033.667 8 -11984887.53023
  21845427.117   -12159950.461 6  -8959744.00321
  20649883.9844  -20708049.61747 -15698568.34963
 91  5  3 22 50 30.0000000  0  4G15G 2G13G 6
  23720235.648    -3208025.990 5  -2067277.74421
  20958957.328   -15463838.463 8 -11977722.45023
  21836757.5704  -12205517.30646  -8995250.54361
  20647942.3444  -20718261.75947 -15706525.86262
 91  5  3 22 50 45.0000000  0  4G15G 2G13G 6
  23720497.5554   -3206653.02445  -2066207.87861
  20960717.859   -15454591.566 8 -11970517.08723
  21828106.250   -12250977.271 6  -9030673.78321
  20646016.2504  -20728378.15247 -15714408.76062
 91  5  3 22 51  0.0000000  0  4G15G 2G13G 6
  23720785.1644   -3205140.71645  -2065029.42461
  20962488.016   -15445294.165 8 -11963272.37323
  21819476.9694  -12296331.05846  -9066014.29561
  20644110.6954  -20738399.78247 -15722217.81563
 91  5  3 22 51 15.0000000  0  4G15G 2G13G 6
  23721100.516    -3203485.911 5  -2063739.95021
  20964266.1644  -15435943.28448 -11955985.98463
  21810866.3984  -12341574.96746  -9101269.18961
  20642221.0704  -20748323.23047 -15729950.37062
 91  5  3 22 51 30.0000000  0  4G15G 2G13G 6
  23721440.5314   -3201691.98245  -2062342.04961
  20966055.0634  -15426542.50448 -11948660.71263
  21802276.445   -12386712.376 6  -9136441.09021
  20640351.1644  -20758151.69547 -15737608.91262
 91  5  3 22 51 45.0000000  0  4G15G 2G13G 6
  23721808.977    -3199758.260 5  -2060835.22321
  20967854.227   -15417090.976 8 -11941295.89923
  21793706.4924  -12431742.31346  -9171529.25861
  20638497.5784  -20767884.20247 -15745192.67762
 91  5  3 22 52  0.0000000  0  4G15G 2G13G 6
  23722202.3914   -3197680.09045  -2059215.83761
  20969663.3594  -15407584.38448 -11933888.17763
  21785160.219   -12476660.112 6  -9206530.03621
  20636666.0864  -20777516.29747 -15752698.20162
 91  5  3 22 52 15.0000000  0  4G15G 2G13G 6
  23722623.2974   -3195460.44545  -2057486.21761
  20971482.430   -15398025.651 8 -11926439.82423
  21776634.922   -12521468.514 6  -9241445.58021
  20634849.7274  -20787050.49247 -15760127.43762
 91  5  3 22 52 30.0000000  0  4G15G 2G13G 6
  23723077.2274   -3193101.05545  -2055647.70761
  20973310.1254  -15388416.45448 -11918952.14563
  21768127.9454  -12566168.77746  -9276276.84861
  20633056.0704  -20796488.41647 -15767481.66262
 91  5  3 22 52 45.0000000  0  4G15G 2G13G 6
  23723550.6484   -3190598.24745  -2053697.43461
  20975149.9614  -15378753.25848 -11911422.39763
  21759643.258   -12610757.147 6  -9311020.94121
  20631279.0314  -20805826.15747 -15774757.82062
 91  5  3 22 53  0.0000000  0  4G15G 2G13G 6
  23724056.7194   -3187950.33445  -2051634.11161
  20976999.0554  -15369034.68848 -11903849.49863
  21751180.2274  -12655232.07946  -9345676.63161
  20629520.3054  -20815062.13847 -15781954.68262
 91  5  3 22 53 15.0000000  0  4G15G 2G13G 6
  23724585.1094   -3185158.74945  -2049458.81561
  20978859.172   -15359261.915 8 -11896234.36223
  21742737.297   -12699594.534 6  -9380244.67721
  20627782.0554  -20824197.33047 -15789073.00763
 91  5  3 22 53 30.0000000  0  4G15G 2G13G 6
  23725146.594    -3182223.024 5  -2047171.21721
  20980728.539   -15349434.773 8 -11888576.86323
  21734315.9694  -12743843.58246  -9414724.35661
  20626064.0784  -20833231.18047 -15796112.36562
 91  5  3 22 53 45.0000000  0  4G15G 2G13G 6
  23725733.023    -3179140.396 5  -2044769.14921
  20982608.8204  -15339550.59448 -11880874.91263
  21725918.273   -12787976.331 6  -9449113.40321
  20624365.3134  -20842160.69147 -15803070.41862
 91  5  3 22 54  0.0000000  0  4G15G 2G13G 6
  23726345.8444   -3175916.77145  -2042257.19761
  20984500.1564  -15329615.35248 -11873133.17663
  21717540.2734  -12831998.59346  -9483416.37761
  20622683.6334  -20850991.65047 -15809951.68462
 91  5  3 22 54 15.0000000  0  4G15G 2G13G 6
  23726987.938    -3172546.049 5  -2039630.63521
  20986403.0864  -15319622.86348 -11865346.82863
  21709185.859   -12875903.880 6  -9517628.18421
  20621022.6484  -20859717.83647 -15816751.30163
 91  5  3 22 54 30.0000000  0  4G15G 2G13G 6
  23727652.789    -3169030.957 5  -2036891.57121
  20988314.4064  -15309576.00248 -11857518.11463
  21700852.695   -12919694.792 6  -9551750.87521
  20619381.2424  -20868341.66047 -15823471.15762
 91  5  3 22 54 45.0000000  0  4G15G 2G13G 6
  23728353.188    -3165367.771 5  -2034037.12521
  20990236.6724  -15299471.06148 -11849644.14263
  21692542.6644  -12963367.34246  -9585781.34561
  20617761.1564  -20876859.14247 -15830108.15262
 91  5  3 22 55  0.0000000  0  4G15G 2G13G 6
  23729078.781    -3161561.043 5  -2031070.81221
  20992169.3984  -15289312.91148 -11841728.70863
  21684252.3284  -13006925.87046  -9619722.95361
  20616159.7974  -20885274.83547 -15836665.82862
 91  5  3 22 55 15.0000000  0  4G15G 2G13G 6
  23729830.633    -3157610.923 5  -2027992.78421
  20994112.8914  -15279101.45748 -11833771.73663
  21675985.313   -13050370.160 6  -9653575.55321
  20614578.1954  -20893588.48347 -15843143.98662
 91  5  3 22 55 30.0000000  0  4G15G 2G13G 6
  23730609.836    -3153514.345 5  -2024800.62121
  20996066.4454  -15268833.80048 -11825770.97263
  21667740.8204  -13093697.00146  -9687336.63361
  20613015.7734  -20901797.00347 -15849540.22962
 91  5  3 22 55 45.0000000  0  4G15G 2G13G 6
  23731417.070    -3149273.354 5  -2021495.93921
  20998030.2814  -15258511.95548 -11817727.98463
  21659517.9534  -13136908.02546  -9721007.46561
  20611473.2194  -20909902.19247 -15855855.95562
 91  5  3 22 56  0.0000000  0  4G15G 2G13G 6
  23732253.016    -3144887.158 5  -2018078.09721
  21000005.2504  -15248135.09648 -11809642.12563
  21651315.9694  -13180002.30846  -9754587.33961
  20609951.7274  -20917902.97647 -15862090.32363
 91  5  3 22 56 15.0000000  0  4G15G 2G13G 6
  23733110.898    -3140354.338 5  -2014546.00221
  21001991.2424  -15237701.98348 -11801512.43463
  21643139.1334  -13222978.02146  -9788074.81061
  20608448.6024  -20925797.69147 -15868242.03762
 91  5  3 22 56 30.0000000  0  4G15G 2G13G 6
  23734001.125    -3135678.604 5  -2010902.56221
  21003987.2664  -15227216.12348 -11793341.64063
  21634982.6484  -13265838.60546  -9821472.57461
  20606964.6024  -20933589.69547 -15874313.72162
 91  5  3 22 56 45.0000000  0  4G15G 2G13G 6
  23734917.7814   -3130858.53945  -2007146.65061
  21005991.9694  -15216676.21948 -11785128.73363
  21626850.0084  -13308582.56646  -9854779.45961
  20605502.1094  -20941277.48447 -15880304.19762
 91  5  3 22 57  0.0000000  0  4G15G 2G13G 6
  23735865.6954   -3125894.11345  -2003278.24061
  21008006.6334  -15206082.57848 -11776873.95363
  21618738.3914  -13351209.76546  -9887995.36761
  20604059.2114  -20948861.07447 -15886213.47863
 91  5  3 22 57 15.0000000  0  4G15G 2G13G 6
  23736834.953    -3120784.566 5  -1999296.76321
  21010034.9224  -15195434.48448 -11768576.74263
  21610647.4144  -13393719.27046  -9921119.56461
  20602636.6094  -20956339.60447 -15892040.89963
 91  5  3 22 57 30.0000000  0  4G15G 2G13G 6
  23737836.9694   -3115530.92845  -1995202.98861
  21012070.3284  -15184732.84248 -11760237.80663
  21602581.0164  -13436111.66346  -9954152.51061
  20601232.031   -20963713.478 7 -15897786.76223
 91  5  3 22 57 45.0000000  0  4G15G 2G13G 6
  23738860.617    -3110131.828 5  -1990995.86521
  21014117.8134  -15173976.78948 -11751856.47363
  21594535.8914  -13478385.51846  -9987093.08461
  20599850.4534  -20970981.68847 -15903450.29662
 91  5  3 22 58  0.0000000  0  4G15G 2G13G 6
  23739918.125    -3104589.816 5  -1986677.40121
  21016173.9144  -15163168.59648 -11743434.51363
  21586513.9224  -13520543.06646 -10019943.02461
  20598487.7344  -20978146.24347 -15909033.06062
 91  5  3 22 58 15.0000000  0  4G15G 2G13G 6
  23740999.461    -3098902.787 5  -1982245.92621
  21018241.2274  -15152306.16448 -11734970.28463
  21578513.4614  -13562582.04046 -10052700.57561
  20597142.9144  -20985204.85547 -15914533.26663
 91  5  3 22 58 30.0000000  0  4G15G 2G13G 6
  23742106.461    -3093071.610 5  -1977702.13521
  21020318.9774  -15141390.35648 -11726464.46763
  21570538.1804  -13604502.89946 -10085366.08761
  20595819.5944  -20992158.14247 -15919951.40263
 91  5  3 22 58 45.0000000  0  4G15G 2G13G 6
  23743246.578    -3087096.682 5  -1973046.33021
  21022405.0864  -15130421.68048 -11717917.44963
  21562580.7974  -13646305.94346 -10117939.79761
  20594517.7664  -20999006.30847 -15925287.62662
 91  5  3 22 59  0.0000000  0  4G15G 2G13G 6
  23744412.4694   -3080979.07345  -1968279.33261
  21024502.5164  -15119401.23748 -11709330.09963
  21554647.8284  -13687991.81846 -10150422.21261
  20593233.0394  -21005750.30547 -15930542.68262
 91  5  3 22 59 15.0000000  0  4G15G 2G13G 6
  23745603.992    -3074719.335 5  -1963401.59621
  21026609.1174  -15108329.47348 -11700702.75763
  21546737.6804  -13729560.92146 -10182813.62961
  20591971.7894  -21012390.29047 -15935716.68763
 91  5  3 22 59 30.0000000  0  4G15G 2G13G 6
  23746820.8834   -3068315.67245  -1958411.70861
  21028726.4614  -15097204.63948 -11692034.06463
  21538852.0004  -13771011.12546 -10215112.40161
  20590726.9224  -21018924.33747 -15940808.14662
 91  5  3 22 59 45.0000000  0  4G15G 2G13G 6
  23748070.344    -3061766.489 5  -1953308.43421
  21030853.3834  -15086025.07948 -11683322.72363
  21530985.7424  -13812340.53246 -10247317.04161
  20589504.1414  -21025350.47047 -15945815.51562
 91  5  3 23  0  0.0000000  0  4G15G 2G13G 6
  23749343.305    -3055071.142 5  -1948091.25821
  21032990.7894  -15074790.22248 -11674568.29363
  21523144.9144  -13853548.26546 -10279426.87561
  20588300.6334  -21031668.03647 -15950738.28662
 91  5  3 23  0 15.0000000  0  4G15G 2G13G 6
  23750645.836    -3048234.477 5  -1942763.97921
  21035139.9774  -15063505.13148 -11665774.72363
  21515325.2274  -13894639.00246 -10311445.54161
  20587118.9454  -21037881.66447 -15955580.06263
 91  5  3 23  0 30.0000000  0  4G15G 2G13G 6
  23751970.133    -3041255.874 5  -1937326.06321
  21037296.9454  -15052169.07048 -11656941.43763
  21507527.6724  -13935611.73346 -10343372.25361
  20585957.7734  -21043990.47847 -15960340.17563
 91  5  3 23  0 45.0000000  0  4G15G 2G13G 6
  23753322.9844   -3034133.50145  -1931776.14661
  21039463.5634  -15040780.25848 -11648067.04463
  21499754.7814  -13976464.70446 -10375205.65161
  20584814.7974  -21049992.46747 -15965017.04363
 91  5  3 23  1  0.0000000  0  4G15G 2G13G 6
  23754707.367    -3026869.994 5  -1926116.24321
  21041641.7114  -15029341.43748 -11639153.68163
  21492003.2274  -14017200.04746 -10406947.38861
  20583691.5234  -21055889.98447 -15969612.50862
 91  5  3 23  1 15.0000000  0  4G15G 2G13G 6
  23756118.3134   -3019465.26645  -1920346.29861
  21043826.4534  -15017852.26948 -11630201.09563
  21484272.2034  -14057817.36346 -10438597.15961
  20582589.8204  -21061682.76147 -15974126.35063
 91  5  3 23  1 30.0000000  0  4G15G 2G13G 6
  23757550.3284   -3011921.08245  -1914467.69361
  21046023.1564  -15006314.56148 -11621210.67563
  21476565.6954  -14098318.05646 -10470156.05361
  20581506.9224  -21067372.10747 -15978559.60362
 91  5  3 23  1 45.0000000  0  4G15G 2G13G 6
  23759016.016    -3004234.558 5  -1908478.17421
  21048227.2194  -14994725.39148 -11612180.16463
  21468881.969   -14138698.982 6 -10501621.62521
  20580446.1564  -21072955.01247 -15982909.91462
 91  5  3 23  2  0.0000000  0  4G15G 2G13G 6
  23760503.8834   -2996407.28445  -1902378.98061
  21050443.5474  -14983086.53448 -11603110.93363
  21461220.203   -14178961.826 6 -10532995.18321
  20579404.2034  -21078432.92047 -15987178.40963
 91  5  3 23  2 15.0000000  0  4G15G 2G13G 6
  23762022.852    -2988438.408 5  -1896169.44221
  21052666.6484  -14971397.12448 -11594002.31263
  21453580.2424  -14219105.38346 -10564275.78761
  20578381.0234  -21083804.77147 -15991364.26162
 91  5  3 23  2 30.0000000  0  4G15G 2G13G 6
  23763560.938    -2980328.173 5  -1889849.75721
  21054900.5474  -14959657.72748 -11584854.74263
  21445963.984   -14259129.837 6 -10595463.59221
  20577378.6174  -21089070.69147 -15995467.57363
 91  5  3 23  2 45.0000000  0  4G15G 2G13G 6
  23765132.836    -2972078.600 5  -1883421.50321
  21057143.0944  -14947870.03347 -11575669.53163
  21438371.055   -14299037.039 6 -10626560.02421
  20576396.7734  -21094232.42347 -15999489.69962
 91  5  3 23  3  0.0000000  0  4G15G 2G13G 6
  23766731.7504   -2963685.94345  -1876881.75161
  21059397.5234  -14936030.22448 -11566443.71563
  21430797.656   -14338822.653 6 -10657561.72021
  20575434.8984  -21099286.03547 -16003427.58063
 91  5  3 23  3 15.0000000  0  4G15G 2G13G 6
  23768355.484    -2955154.322 5  -1870233.71421
  21061657.2114  -14924142.72648 -11557180.73563
  21423249.891   -14378490.675 6 -10688471.78521
  20574493.1334  -21104235.57947 -16007284.36062
 91  5  3 23  3 30.0000000  0  4G15G 2G13G 6
  23770005.758    -2946485.238 5  -1863478.56421
  21063930.1804  -14912208.92247 -11547881.68063
  21415723.930   -14418042.112 6 -10719291.00321
  20573572.0474  -21109082.01847 -16011060.80662
 91  5  3 23  3 45.0000000  0  4G15G 2G13G 6
  23771679.7424   -2937677.63745  -1856615.46361
  21066209.1804  -14900227.72647 -11538545.69263
  21408219.1094  -14457475.81046 -10750018.48061
  20572668.6484  -21113824.10647 -16014755.93563
 91  5  3 23  4  0.0000000  0  4G15G 2G13G 6
  23773383.070    -2928730.607 5  -1849643.73321
  21068499.0394  -14888198.21147 -11529172.05263
  21400739.5234  -14496790.77846 -10780653.43861
  20571785.9144  -21118460.73047 -16018368.88562
 91  5  3 23  4 15.0000000  0  4G15G 2G13G 6
  23775115.320    -2919637.351 5  -1842558.06521
  21070798.0944  -14876113.34247 -11519755.27863
  21393281.047   -14535979.786 6 -10811190.24321
  20570925.6334  -21122984.70747 -16021894.05662
 91  5  3 23  4 30.0000000  0  4G15G 2G13G 6
  23776872.4774   -2910402.07945  -1835361.72361
  21073107.3674  -14863977.47747 -11510298.77363
  21385845.5474  -14575046.73846 -10841631.94061
  20570084.9844  -21127400.11947 -16025334.63463
 91  5  3 23  4 45.0000000  0  4G15G 2G13G 6
  23778652.445    -2901039.953 5  -1828066.55121
  21075423.5164  -14851805.75247 -11500814.31863
  21378432.3284  -14614006.42946 -10871990.06261
  20569263.4694  -21131721.98447 -16028702.31563
 91  5  3 23  5  0.0000000  0  4G15G 2G13G 6
  23780457.875    -2891541.753 5  -1820665.33721
  21077749.6884  -14839589.01847 -11491294.79663
  21371041.188   -14652849.526 6 -10902257.33221
  20568459.3674  -21135940.81147 -16031989.71063
 91  5  3 23  5 15.0000000  0  4G15G 2G13G 6
  23782291.352    -2881903.542 5  -1813155.01821
  21080083.8674  -14827323.42347 -11481737.19963
  21363672.008   -14691571.852 6 -10932430.49621
  20567676.6564  -21140052.46347 -16035193.59263
 91  5  3 23  5 30.0000000  0  4G15G 2G13G 6
  23784155.0004   -2872134.22145  -1805542.53661
  21082424.2894  -14815017.79447 -11472148.40363
  21356323.8134  -14730182.21946 -10962516.40961
  20566914.5784  -21144065.77947 -16038320.84662
 91  5  3 23  5 45.0000000  0  4G15G 2G13G 6
  23786033.6334   -2862228.58845  -1797823.85361
  21084777.0474  -14802666.78448 -11462524.25063
  21349000.906   -14768674.981 6 -10992510.69121
  20566168.0554  -21147975.04347 -16041367.02162
 91  5  3 23  6  0.0000000  0  4G15G 2G13G 6
  23787949.6884   -2852184.78445  -1789997.48361
  21087135.2734  -14790268.59348 -11452863.33163
  21341698.078   -14807048.141 6 -11022411.77421
  20565446.7274  -21151778.32547 -16044330.61562
 91  5  3 23  6 15.0000000  0  4G15G 2G13G 6
  23789881.914    -2842007.735 5  -1782067.31421
  21089502.7114  -14777828.16248 -11443169.49463
  21334416.992   -14845306.286 6 -11052223.23721
  20564741.1094  -21155480.13347 -16047215.13762
 91  5  3 23  6 30.0000000  0  4G15G 2G13G 6
  23791851.867    -2831694.339 5  -1774030.87921
  21091877.9534  -14765342.42748 -11433440.36163
  21327160.734   -14883446.102 6 -11081942.49921
  20564057.3054  -21159077.30347 -16050018.12062
 91  5  3 23  6 45.0000000  0  4G15G 2G13G 6
  23793838.531    -2821240.562 5  -1765885.06621
  21094263.2584  -14752807.17348 -11423672.63663
  21319924.773   -14921462.926 6 -11111565.92521
  20563393.2584  -21162565.46947 -16052736.16663
 91  5  3 23  7  0.0000000  0  4G15G 2G13G 6
  23795848.859    -2810652.813 5  -1757634.86521
  21096657.6954  -14740228.60348 -11413871.16563
  21312712.523   -14959363.057 6 -11141098.41921
  20562748.3284  -21165950.45847 -16055373.81662
 91  5  3 23  7 15.0000000  0  4G15G 2G13G 6
  23797893.4304   -2799932.97445  -1749281.73361
  21099057.6724  -14727608.85548 -11404037.60263
  21305522.125   -14997148.348 6 -11170541.42521
  20562124.4304  -21169234.25547 -16057932.61162
 91  5  3 23  7 30.0000000  0  4G15G 2G13G 6
  23799960.0784   -2789078.37245  -1740823.57861
  21101468.3204  -14714945.15048 -11394169.78663
  21298354.6804  -15034815.68646 -11199892.52861
  20561517.6094  -21172413.95947 -16060410.29862
 91  5  3 23  7 45.0000000  0  4G15G 2G13G 6
  23802050.734    -2778089.148 5  -1732260.53121
  21103885.5474  -14702237.64247 -11384267.84263
  21291209.250   -15072364.870 6 -11229151.55621
  20560933.5634  -21175489.37247 -16062806.71862
 91  5  3 23  8  0.0000000  0  4G15G 2G13G 6
  23804164.3204   -2766964.85545  -1723592.24361
  21106312.6954  -14689485.76848 -11374331.32463
  21284086.516   -15109795.423 6 -11258318.14721
  20560368.6024  -21178459.79547 -16065121.32762
 91  5  3 23  8 15.0000000  0  4G15G 2G13G 6
  23806307.5314   -2755710.67345  -1714822.74261
  21108746.5554  -14676694.57648 -11364364.17063
  21276985.867   -15147112.320 6 -11287396.17421
  20559821.7974  -21181330.25347 -16067358.04362
 91  5  3 23  8 30.0000000  0  4G15G 2G13G 6
  23808473.4924   -2744320.84945  -1705947.54561
  21111189.0864  -14663858.43148 -11354361.98363
  21269906.313   -15184309.291 6 -11316380.76221
  20559296.7974  -21184094.80647 -16069512.23263
 91  5  3 23  8 45.0000000  0  4G15G 2G13G 6
  23810670.547    -2732794.422 5  -1696965.91221
  21113639.7734  -14650976.19448 -11344323.88763
  21262851.5704  -15221385.08647 -11345270.91861
  20558790.7274  -21186751.96747 -16071582.73963
 91  5  3 23  9  0.0000000  0  4G15G 2G13G 6
  23812887.805    -2721132.886 5  -1687878.98621
  21116100.7504  -14638049.44248 -11334251.09763
  21255818.6174  -15258341.09846 -11374067.74161
  20558304.6564  -21189303.26747 -16073570.75862
 91  5  3 23  9 15.0000000  0  4G15G 2G13G 6
  23815130.6884   -2709339.02545  -1678688.95461
  21118569.6644  -14625081.01948 -11324145.83763
  21248808.9534  -15295180.14647 -11402773.42461
  20557838.7734  -21191751.21147 -16075478.23962
 91  5  3 23  9 30.0000000  0  4G15G 2G13G 6
  23817398.914    -2697411.304 5  -1669394.61221
  21121044.3524  -14612069.30748 -11314006.84963
  21241821.8594  -15331899.95647 -11431386.19061
  20557393.0164  -21194093.97347 -16077303.76162
 91  5  3 23  9 45.0000000  0  4G15G 2G13G 6
  23819698.9304   -2685350.98845  -1659996.95761
  21123527.6094  -14599015.45648 -11303835.02563
  21234856.4454  -15368501.92947 -11459907.14461
  20556968.3054  -21196332.63547 -16079048.16962
 91  5  3 23 10  0.0000000  0  4G15G 2G13G 6
  23822013.5864   -2673157.28245  -1650495.34561
  21126020.6094  -14585918.70047 -11293629.76963
  21227913.742   -15404984.917 7 -11488335.37521
  20556561.7504  -21198466.07847 -16080710.59062
 91  5  3 23 10 15.0000000  0  4G15G 2G13G 6
  23824366.422    -2660834.031 5  -1640892.81121
  21128520.477   -14572782.752 7 -11283393.97723
  21220993.1414  -15441352.42447 -11516673.63361
  20556174.5314  -21200497.93447 -16082293.85163
 91  5  3 23 10 30.0000000  0  4G15G 2G13G 6
  23826728.0164   -2648379.46445  -1631187.95161
  21131028.7974  -14559605.58347 -11273126.06063
  21214095.0704  -15477602.14047 -11544920.10261
  20555807.6414  -21202425.93747 -16083796.18962
 91  5  3 23 10 45.0000000  0  4G15G 2G13G 6
  23829128.2344   -2635791.26445  -1621378.95061
  21133542.7894  -14546385.18947 -11262824.46563
  21207218.7974  -15513731.73847 -11573072.96561
  20555461.3914  -21204247.74447 -16085215.77762
 91  5  3 23 11  0.0000000  0  4G15G 2G13G 6
  23831547.523    -2623071.267 5  -1611467.24921
  21136067.2504  -14533123.19747 -11252490.45563
  21200366.9144  -15549742.73647 -11601133.42161
  20555135.2424  -21205964.90247 -16086553.82062
 91  5  3 23 11 15.0000000  0  4G15G 2G13G 6
  23833991.5634   -2610222.87245  -1601455.50861
  21138600.031   -14519822.847 7 -11242126.55923
  21193536.7344  -15585638.15947 -11629103.81461
  20554825.7344  -21207580.46347 -16087812.69863
 91  5  3 23 11 30.0000000  0  4G15G 2G13G 6
  23836463.227    -2597241.537 5  -1591340.17121
  21141137.9064  -14506479.50947 -11231729.16563
  21186728.3524  -15621413.20047 -11656980.40661
  20554539.6724  -21209089.68047 -16088988.71163
 91  5  3 23 11 45.0000000  0  4G15G 2G13G 6
  23838959.828    -2584130.848 5  -1581124.04621
  21143683.3204  -14493097.05747 -11221301.28763
  21179943.4224  -15657071.43947 -11684765.97861
  20554272.1484  -21210495.93747 -16090084.49563
 91  5  3 23 12  0.0000000  0  4G15G 2G13G 6
  23841477.711    -2570888.383 5  -1570805.22121
  21146239.672   -14479672.943 7 -11210840.94823
  21173179.9064  -15692610.22047 -11712458.47161
  20554024.0864  -21211796.59947 -16091097.99863
 91  5  3 23 12 15.0000000  0  4G15G 2G13G 6
  23844023.0394   -2557514.86945
  21148800.7894  -14466207.57147
  21166440.1804  -15728029.61147 -11740057.93761
  20553797.6884  -21212992.03447 -16092029.50662
 91  5  3 23 12 30.0000000  0  4G15G 2G13G 6
  23846590.992    -2544009.545 5
  21151371.6024  -14452700.10047
  21159722.1644  -15763328.78247 -11767563.72061
  20553589.5704  -21214081.10847 -16092878.13163
 91  5  3 23 12 45.0000000  0  4G15G 2G13G 6
  23849188.7194   -2530376.84745  -1539237.74661
  21153948.6954  -14439155.01347 -11179268.56563
  21153027.6724  -15798512.09547 -11794979.23061
  20553403.0474  -21215068.14047 -16093647.24962
 91  5  3 23 13  0.0000000  0  4G15G 2G13G 6
  23851809.8674   -2516615.31145  -1528514.48461
  21156534.2894  -14425570.69847 -11168683.39563
  21146355.1174  -15833577.52047 -11822302.87261
  20553232.5704  -21215951.31347 -16094335.43763
 91  5  3 23 13 15.0000000  0  4G15G 2G13G 6
  23854453.3754   -2502723.48245  -1517689.67061
  21159126.3284  -14411945.68547 -11158066.50963
  21139705.1334  -15868523.43847 -11849533.39061
  20553085.1644  -21216729.05447 -16094941.46962
 91  5  3 23 13 30.0000000  0  4G15G 2G13G 6
  23857115.7344   -2488700.06045  -1506762.34161
  21161728.2734  -14398278.56147 -11147416.81463
  21133078.1884  -15903348.22747 -11876669.52861
  20552959.2194  -21217399.63547 -16095464.00062
 91  5  3 23 13 45.0000000  0  4G15G 2G13G 6
  23859805.789    -2474550.040 5  -1495736.33621
  21164336.4924  -14384574.24547 -11136738.13763
  21126471.680   -15938056.635 7 -11903714.97621
  20552850.5634  -21217967.83047 -16095906.75062
 91  5  3 23 14  0.0000000  0  4G15G 2G13G 6
  23862531.227    -2460273.646 5  -1484611.86121
  21166950.0084  -14370833.10147 -11126030.76163
  21119890.1484  -15972648.72547 -11930669.79161
  20552759.7194  -21218433.73647 -16096269.79162
 91  5  3 23 14 15.0000000  0  4G15G 2G13G 6
  23865264.7894   -2445871.18845  -1473389.15661
  21169573.6884  -14357055.41447 -11115294.91163
  21113329.8984  -16007124.54447 -11957533.99861
  20552691.9064  -21218797.48747 -16096553.23362
 91  5  3 23 14 30.0000000  0  4G15G 2G13G 6
  23868033.852    -2431336.578 5  -1462063.47121
  21172201.4844  -14343234.68247 -11104525.52163
  21106792.7974  -16041477.36047 -11984302.37261
  20552644.3594  -21219052.46247 -16096751.91562
 91  5  3 23 14 45.0000000  0  4G15G 2G13G 6
  23870819.859    -2416677.797 5  -1450641.03921
  21174838.8444  -14329378.88547 -11093728.80463
  21100277.0004  -16075715.27547 -12010981.20061
  20552613.2974  -21219206.33947
 91  5  3 23 15  0.0000000  0  4G15G 2G13G 6
  23873641.1024   -2401891.45545  -1439119.21561
  21177482.6174  -14315484.51047 -11082902.02963
  21093785.1484  -16109834.66047 -12037567.67561
  20552604.7894  -21219255.56347
 91  5  3 23 15 15.0000000  0  4G15G 2G13G 6
  23876472.5634   -2386977.14845  -1427497.67461
  21180134.8284  -14301551.08847 -11072044.82863
  21087314.6884  -16143834.64147 -12064061.10961
  20552615.9694  -21219199.45647
 91  5  3 23 15 30.0000000  0  4G15G 2G13G 6
  23879338.344    -2371935.677 5  -1415777.04021
  21182793.4614  -14287579.46747 -11061157.85863
  21080866.7974  -16177716.14547 -12090462.22061
  20552644.773   -21219038.697 7
 91  5  3 23 15 45.0000000  0  4G15G 2G13G 6
  23882224.664    -2356770.392 5  -1403959.92621
  21185457.5234  -14273572.99947 -11050243.73663
  21074441.1334  -16211482.07047 -12116773.26861
  20552697.4144  -21218776.32447
 91  5  3 23 16  0.0000000  0  4G15G 2G13G 6
  23885133.9304   -2341478.54645  -1392044.19461
  21188130.5704  -14259528.46447 -11039299.94963
  21068039.2424  -16245129.07947 -12142991.65361
  20552764.7424  -21218409.03847 -16096250.55062
 91  5  3 23 16 15.0000000  0  4G15G 2G13G 6
  23888069.7584   -2326061.00945  -1380030.53961
  21190810.8524  -14245446.88447 -11028327.29763
  21061657.789   -16278657.963 7 -12169118.00221
  20552857.1884  -21217937.59547 -16095883.19262
 91  5  3 23 16 30.0000000  0  4G15G 2G13G 6
  23891023.0394   -2310516.09845  -1367917.61461
  21193497.9534  -14231326.52847 -11017324.43163
  21055299.8984  -16312066.70547 -12195150.72761
  20552966.3524  -21217360.16047 -16095433.24462
 91  5  3 23 16 45.0000000  0  4G15G 2G13G 6
  23894004.836    -2294844.874 5  -1355706.27221
  21196192.2814  -14217168.27647 -11006292.03463
  21048965.3834  -16345355.90447 -12221090.30461
  20553094.5784  -21216677.31847 -16094901.15962
 91  5  3 23 17  0.0000000  0  4G15G 2G13G 6
  23897008.4224   -2279045.71345  -1343395.23061
  21198893.9844  -14202970.45747 -10995228.80163
  21042654.0314  -16378524.04047 -12246935.54661
  20553246.0234  -21215887.52047 -16094285.73262
 91  5  3 23 17 15.0000000  0  4G15G 2G13G 6
  23900044.5864   -2263120.93045  -1330986.30761
  21201602.0084  -14188735.19347 -10984136.39663
  21036365.3674  -16411572.76847 -12272687.74561
  20553415.6884  -21214992.42247 -16093588.25562
 91  5  3 23 17 30.0000000  0  4G15G 2G13G 6
  23903101.9614   -2247070.30745  -1318479.32761
  21204319.8204  -14174462.36147 -10973014.71263
  21030099.4304  -16444501.87447 -12298346.72861
  20553605.8204  -21213991.70347 -16092808.47262
 91  5  3 23 17 45.0000000  0  4G15G 2G13G 6
  23906177.992    -2230894.642 5  -1305874.91621
  21207041.7584  -14160152.34247 -10961864.05363
  21023854.656   -16477311.880 7 -12323912.91421
  20553816.9064  -21212885.85747 -16091946.76962
 91  5  3 23 18  0.0000000  0  4G15G 2G13G 6
  23909274.6644   -2214592.58445  -1293172.00561
  21209772.8524  -14145803.65147 -10950683.25863
  21017633.1954  -16510000.88747 -12349384.80861
  20554048.5634  -21211673.12847 -16091001.78362
 91  5  3 23 18 15.0000000  0  4G15G 2G13G 6
  23912405.2344   -2198163.21745  -1280369.90661
  21212511.2274  -14131415.45547 -10939471.68763
  21011437.3134  -16542568.12447 -12374761.81661
  20554298.1564  -21210352.31747 -16089972.57962
 91  5  3 23 18 30.0000000  0  4G15G 2G13G 6
  23915558.2974   -2181610.14545  -1267471.41561
  21215254.7664  -14116991.24347 -10928232.05063
  21005262.6564  -16575016.85847 -12400046.48561
  20554570.5634  -21208926.91147 -16088861.87362
 91  5  3 23 18 45.0000000  0  4G15G 2G13G 6
  23918727.6724   -2164931.00145  -1254474.67561
  21218008.6564  -14102528.61447 -10916962.47663
  20999109.805   -16607344.496 7 -12425236.79721
  20554862.6024  -21207394.31847 -16087667.64362
 91  5  3 23 19  0.0000000  0  4G15G 2G13G 6
  23921928.8204   -2148128.43845  -1241381.75761
  21220766.7034  -14088030.05447 -10905664.90663
  20992981.953   -16639553.412 7 -12450334.59721
  20555174.0704  -21205756.90147 -16086391.73262
 91  5  3 23 19 15.0000000  0  4G15G 2G13G 6
  23925146.2194   -2131199.57845  -1228190.44061
  21223533.2664  -14073492.69847 -10894337.10263
  20986874.9614  -16671640.42347 -12475337.40861
  20555506.8594  -21204011.78147 -16085031.89562
 91  5  3 23 19 30.0000000  0  4G15G 2G13G 6
  23928393.3054   -2114149.12545  -1214904.36761
  21226306.0234  -14058921.18947 -10882982.68863
  20980791.555   -16703610.079 7 -12500248.77221
  20555857.6484  -21202163.09047 -16083591.35462
 91  5  3 23 19 45.0000000  0  4G15G 2G13G 6
  23931667.6094   -2096972.34845  -1201519.87561
  21229086.2504  -14044310.40147 -10871597.66363
  20974731.516   -16735457.066 7 -12525064.55121
  20556230.0234  -21200205.70247 -16082066.11362
 91  5  3 23 20  0.0000000  0  4G15G 2G13G 6
  23934951.609    -2079671.293 5  -1188038.53121
  21231873.6564  -14029662.28447 -10860183.55563
  20968694.594   -16767183.302 7 -12549786.23521
  20556622.5554  -21198141.40347 -16080457.56662
 91  5  3 23 20 15.0000000  0  4G15G 2G13G 6
  23938265.039    -2062247.417 5  -1174461.47621
  21234667.7344  -14014978.29747 -10848741.49363
  20962678.969   -16798790.047 7 -12574414.81621
  20557035.8914  -21195971.48647 -16078766.71962
 91  5  3 23 20 30.0000000  0  4G15G 2G13G 6
  23941609.5084   -2044698.26545  -1160786.80561
  21237468.6564  -14000255.74447 -10837269.38263
  20956687.375   -16830274.243 7 -12598947.90521
  20557468.5234  -21193693.11747 -16076991.36662
 91  5  3 23 20 45.0000000  0  4G15G 2G13G 6
  23944971.4454   -2027025.25045  -1147015.63261
  21240278.0704  -13985496.08547 -10825768.35563
  20950719.859   -16861637.233 7 -12623386.54221
  20557923.9694  -21191307.45747 -16075132.40462
 91  5  3 23 21  0.0000000  0  4G15G 2G13G 6
  23948357.414    -2009230.572 5  -1133149.64321
  21243093.4774  -13970701.20847 -10814239.89063
  20944774.6174  -16892881.05447 -12647732.32561
  20558397.8914  -21188816.41747 -16073191.32962
 91  5  3 23 21 15.0000000  0  4G15G 2G13G 6
  23951767.6174   -1991311.17445  -1119186.47061
  21245916.1024  -13955868.19047 -10802681.70263
  20938851.805   -16924002.233 7 -12671982.54221
  20558891.7974  -21186216.70347 -16071165.57462
 91  5  3 23 21 30.0000000  0  4G15G 2G13G 6
  23955202.0234   -1973267.89145  -1105126.76861
  21248746.2814  -13940997.44047 -10791094.11463
  20932952.492   -16955001.147 7 -12696137.49221
  20559406.4454  -21183508.79147 -16069055.50962
 91  5  3 23 21 45.0000000  0  4G15G 2G13G 6
  23958657.8524   -1955095.99745  -1090966.85661
  21251584.3134  -13926084.07847 -10779473.32163
  20927078.945   -16985873.171 7 -12720193.55821
  20559944.5704  -21180687.70147 -16066857.25162
 91  5  3 23 22  0.0000000  0  4G15G 2G13G 6
  23962140.531    -1936799.715 5  -1076709.99721
  21254429.3594  -13911132.20947 -10767822.52863
  20921226.445   -17016621.861 7 -12744153.52721
  20560501.1884  -21177757.13947 -16064573.69462
 91  5  3 23 22 15.0000000  0  4G15G 2G13G 6
  23965645.789    -1918377.976 5  -1062355.41121
  21257282.406   -13896140.709 7 -10756140.84923
  20915399.578   -17047246.071 7 -12768016.49721
  20561080.8364  -21174715.99247 -16062203.96362
 91  5  3 23 22 30.0000000  0  4G15G 2G13G 6
  23969175.6094   -1899833.65445  -1047905.29161
  21260142.234   -13881112.453 7 -10744430.53223
  20909595.836   -17077748.664 7 -12791784.69821
  20561679.8674  -21171566.98247 -16059750.18362
 91  5  3 23 22 45.0000000  0  4G15G 2G13G 6
  23972728.477    -1881165.619 5  -1033358.76621
  21263008.984   -13866046.227 7 -10732690.63223
  20903814.938   -17108128.082 7 -12815456.92321
  20562299.5084  -21168308.66047 -16057211.22562
 91  5  3 23 23  0.0000000  0  4G15G 2G13G 6
  23976305.3054   -1862371.08945  -1018713.67761
  21265883.266   -13850939.115 7 -10720918.87223
  20898058.133   -17138381.245 7 -12839030.75921
  20562941.0944  -21164937.85247 -16054584.61762
 91  5  3 23 23 15.0000000  0  4G15G 2G13G 6
  23979906.0004   -1843454.74145  -1003973.66161
  21268766.258   -13835795.469 7 -10709118.64123
  20892322.414   -17168512.513 7 -12862509.61921
  20563603.1174  -21161458.93347 -16051873.76962
 91  5  3 23 23 30.0000000  0  4G15G 2G13G 6
  23983525.5004   -1824414.26745   -989136.94861
  21271654.594   -13820612.997 7 -10697288.15923
  20886615.055   -17198519.487 7 -12885891.62621
  20564286.5084  -21157869.54947 -16049076.84462
 91  5  3 23 23 45.0000000  0  4G15G 2G13G 6
  23987174.656    -1805250.044 5   -974203.77521
  21274551.359   -13805391.885 7 -10685427.56623
  20880926.523   -17228402.249 7 -12909176.84021
  20564990.4844  -21154169.54947 -16046193.72162
 91  5  3 23 24  0.0000000  0  4G15G 2G13G 6
  23990842.1484   -1785963.17645   -959175.04061
  21277456.289   -13790133.086 7 -10673537.60423
  20875261.164   -17258161.654 7 -12932365.93921
  20565715.6094  -21150359.84347 -16043225.12062
 91  5  3 23 24 15.0000000  0  4G15G 2G13G 6
  23994535.414    -1766550.393 5   -944048.18921
  21280368.398   -13774833.212 7 -10661615.63923
  20869625.148   -17287793.972 7 -12955456.00921
  20566461.4304  -21146436.82247 -16040168.21662
 91  5  3 23 24 30.0000000  0  4G15G 2G13G 6
  23998257.9694   -1747013.83045   -928824.90261
  21283284.906   -13759494.161 7 -10649663.14723
  20864008.914   -17317301.141 7 -12978448.55321
  20567229.3594  -21142402.40247 -16037024.51362
 91  5  3 23 24 45.0000000  0  4G15G 2G13G 6
  24002001.4224   -1727354.08545   -913505.62861
  21286210.477   -13744116.196 7 -10637680.33223
  20858417.664   -17346683.116 7 -13001343.54821
  20568019.2894  -21138256.53547 -16033793.97062
 91  5  3 23 25  0.0000000  0  4G15G 2G13G 6
  24005761.9924   -1707572.24245   -898091.20061
  21289145.227   -13728700.618 7 -10625668.20823
  20852850.109   -17375941.075 7 -13024141.90721
  20568827.3834  -21134000.38547 -16030477.48662
 91  5  3 23 25 15.0000000  0  4G15G 2G13G 6
  24009551.7114   -1687662.63445   -882577.22661
  21292088.109   -13713241.598 7 -10613622.22623
  20847307.3204  -17405068.96747 -13046838.91361
  20569660.3524  -21129627.83447 -16027070.30162
 91  5  3 23 25 30.0000000  0  4G15G 2G13G 6
  24013359.8834   -1667625.82145   -866964.12361
  21295037.875   -13697739.252 7 -10601542.49423
  20841788.891   -17434067.087 7 -13069434.80221
  20570514.0394  -21125139.20847 -16023572.67262
 91  5  3 23 25 45.0000000  0  4G15G 2G13G 6
  24017197.5314   -1647464.33445   -851253.87261
  21297995.641   -13682195.951 7 -10589430.83923
  20836295.773   -17462937.893 7 -13091931.48321
  20571389.6414  -21120536.79747 -16019986.37662
 91  5  3 23 26  0.0000000  0  4G15G 2G13G 6
  24021060.1254   -1627176.18645   -835444.95761
  21300960.797   -13666609.794 7 -10577285.79723
  20830827.172   -17491679.118 7 -13114327.19621
  20572287.3674  -21115818.40147 -16016309.70162
 91  5  3 23 26 15.0000000  0  4G15G 2G13G 6
  24024943.922    -1606763.280 5   -819538.79921
  21303936.008   -13650982.554 7 -10565108.74323
  20825381.625   -17520292.270 7 -13136623.10921
  20573208.0864  -21110985.65147 -16012543.91862
 91  5  3 23 26 30.0000000  0  4G15G 2G13G 6
  24028854.898    -1586228.153 5   -803537.41421
  21306915.930   -13635316.393 7 -10552901.35723
  20819958.938   -17548779.643 7 -13158821.00822
  20574150.3594  -21106040.60247 -16008690.63662
 91  5  3 23 26 45.0000000  0  4G15G 2G13G 6
  24032781.7504   -1565569.50245   -787439.77761
  21309903.836   -13619609.760 7 -10540662.43923
  20814564.516   -17577139.438 7 -13180919.49721
  20575110.9694  -21100981.50347 -16004748.48062
 91  5  3 23 27  0.0000000  0  4G15G 2G13G 6
  24036738.4224   -1544783.51345   -771242.90961
  21312902.734   -13603858.781 7 -10528388.96423
  20809191.672   -17605367.728 7 -13202915.51922
  20576095.6644  -21095804.39447 -16000714.37062
 91  5  3 23 27 15.0000000  0  4G15G 2G13G 6
  24040716.820    -1523872.698 5   -754948.78421
  21315907.570   -13588066.044 7 -10516082.95223
  20803845.406   -17633466.819 7 -13224810.86021
  20577103.4144  -21090511.76447 -15996590.24562
 91  5  3 23 27 30.0000000  0  4G15G 2G13G 6
  24044724.7194   -1502835.50045   -738556.15961
  21318919.922   -13572229.839 7 -10503743.05923
  20798521.227   -17661435.079 7 -13246604.25922
  20578133.3444  -21085101.72847 -15992374.63262
 91  5  3 23 27 45.0000000  0  4G15G 2G13G 6
  24048748.555    -1481672.733 5   -722065.71121
  21321942.5784  -13556350.48647 -10491369.55763
  20793224.781   -17689272.731 7 -13268295.88421
  20579184.6024  -21079574.55547 -15988067.74562
 91  5  3 23 28  0.0000000  0  4G15G 2G13G 6
  24052803.7194   -1460386.46745   -705479.02061
  21324972.336   -13540429.981 7 -10478963.97823
  20787951.469   -17716981.605 7 -13289887.16421
  20580257.8984  -21073932.07347 -15983671.01862
 91  5  3 23 28 15.0000000  0  4G15G 2G13G 6
  24056870.453    -1438975.125 5   -688794.87721
  21328009.0474  -13524466.69747 -10466525.06763
  20782703.195   -17744559.918 7 -13311376.70521
  20581354.9924  -21068172.45847 -15979182.99962
 91  5  3 23 28 30.0000000  0  4G15G 2G13G 6
  24060970.4454   -1417437.10745   -672012.01361
  21331055.836   -13508458.783 7 -10454051.38123
  20777481.797   -17772005.744 7 -13332763.01121
  20582473.7664  -21062293.60747 -15974602.07762
 91  5  3 23 28 45.0000000  0  4G15G 2G13G 6
  24065093.219    -1395777.062 5   -655134.06921
  21334108.930   -13492410.676 7 -10441546.37623
  20772281.969   -17799323.490 7 -13354049.51621
  20583614.3524  -21056300.09647 -15969931.81262
 91  5  3 23 29  0.0000000  0  4G15G 2G13G 6
  24069235.3364   -1373994.03745   -638160.30161
  21337170.828   -13476321.244 7 -10429009.16623
  20767110.352   -17826512.114 7 -13375235.40422
  20584776.0234  -21050190.72847 -15965171.26562
 91  5  3 23 29 15.0000000  0  4G15G 2G13G 6
  24073408.156    -1352083.771 5   -621087.38421
  21340241.2664  -13460186.32747 -10416436.51563
  20761960.594   -17853567.219 7 -13396317.25322
  20585963.2424  -21043961.05547 -15960316.97862
 91  5  3 23 29 30.0000000  0  4G15G 2G13G 6
  24077602.3444   -1330047.55145   -603916.33061
  21343320.5704  -13444006.58747 -10403828.93963
  20756838.3134  -17880489.22847 -13417295.38761
  20587170.0784  -21037611.62847 -15955369.37662
 91  5  3 23 29 45.0000000  0  4G15G 2G13G 6
  24081822.406    -1307887.656 5   -586648.89721
  21346407.391   -13427784.549 7 -10391188.40023
  20751738.977   -17907280.397 7 -13438171.57821
  20588400.2584  -21031144.92347 -15950330.38762
 91  5  3 23 30  0.0000000  0  4G15G 2G13G 6
  24086060.9844   -1285604.74945   -569285.59061
  21349501.4694  -13411520.44847 -10378515.08663
  20746667.289   -17933941.291 7 -13458946.24721
  20589655.2974  -21024560.99747 -15945200.06162
 91  5  3 23 30 15.0000000  0  4G15G 2G13G 6
  24090320.000    -1263196.613 5   -551824.74521
  21352606.3054  -13395211.99947 -10365807.21663
  20741618.250   -17960469.384 7 -13479617.43721
  20590928.8364  -21017857.47247 -15939976.53862
 91  5  3 23 30 30.0000000  0  4G15G 2G13G 6
  24094609.8524   -1240660.86345   -534264.43461
  21355719.1644  -13378856.57847 -10353062.74363
  20736595.477   -17986861.944 7 -13500183.01921
  20592228.5704  -21011031.51147 -15934657.60762
 91  5  3 23 30 45.0000000  0  4G15G 2G13G 6
  24098924.602    -1217996.619 5   -516604.00221
  21358840.0314  -13362453.04747 -10340280.78363
  20731599.242   -18013117.846 7 -13520642.11021
  20593551.6024  -21004081.95347 -15929242.37062
 91  5  3 23 31  0.0000000  0  4G15G 2G13G 6
  24103263.289    -1195211.942 5   -498849.72521
  21361968.7344  -13346009.47247 -10327467.61963
  20726627.383   -18039244.890 7 -13541000.79621
  20594894.8594  -20997016.86047 -15923737.10662
 91  5  3 23 31 15.0000000  0  4G15G 2G13G 6
  24107619.219    -1172305.071 5   -481000.23721
  21365106.4694  -13329523.79847 -10314621.65063
  20721680.547   -18065241.041 7 -13561257.48221
  20596262.8754  -20989834.02047 -15918140.08962
 91  5  3 23 31 30.0000000  0  4G15G 2G13G 6
  24111996.6564   -1149270.26745   -463051.06261
  21368251.695   -13312989.972 7 -10301738.16023
  20716759.914   -18091100.492 7 -13581407.64621
  20597653.2974  -20982527.28847 -15912446.53462
 91  5  3 23 31 45.0000000  0  4G15G 2G13G 6
  24116408.703    -1126114.270 5   -445007.45121
  21371406.5554  -13296414.36147 -10288822.11163
  20711862.734   -18116829.280 7 -13601456.00821
  20599066.8054  -20975102.95147 -15906661.34162
 91  5  3 23 32  0.0000000  0  4G15G 2G13G 6
  24120844.2734   -1102831.26845   -426864.86061
  21374570.719   -13279791.333 7 -10275869.11523
  20706992.758   -18142421.643 7 -13621398.05421
  20600501.1254  -20967555.24047 -15900780.01262
 91  5  3 23 32 15.0000000  0  4G15G 2G13G 6
  24125294.6954   -1079424.98445   -408626.22661
  21377741.680   -13263124.479 7 -10262881.97023
  20702147.961   -18167881.116 7 -13641236.55521
  20601959.6954  -20959887.60147 -15894805.23762
 91  5  3 23 32 30.0000000  0  4G15G 2G13G 6
  24129770.547    -1055894.909 5   -390291.13921
  21380922.6174  -13246412.91647 -10249859.98563
  20697329.297   -18193206.624 7 -13660970.66621
  20603442.9454  -20952099.03447 -15888736.23062
 91  5  3 23 32 45.0000000  0  4G15G 2G13G 6
  24134273.289    -1032238.195 5   -371857.34821
  21384111.328   -13229653.467 7 -10236800.68523
  20692535.727   -18218394.900 7 -13680597.84421
  20604950.9924  -20944186.29547 -15882570.46462
 91  5  3 23 33  0.0000000  0  3G 2G13G 6
  21387309.594   -13212847.422 7 -10223705.07923
  20687768.367   -18243447.078 7 -13700118.97021
  20606478.1024  -20936150.39047 -15876308.72762
 91  5  3 23 33 15.0000000  0  3G 2G13G 6
  21390515.5474  -13195996.33347 -10210574.36863
  20683027.125   -18268364.717 7 -13719535.26321
  20608029.7344  -20927992.95047 -15869952.28462
 91  5  3 23 33 30.0000000  0  3G 2G13G 6
  21393730.242   -13179102.652 7 -10197410.47323
  20678310.398   -18293150.419 7 -13738848.74621
  20609606.8284  -20919716.41047 -15863503.03962
 91  5  3 23 33 45.0000000  0  3G 2G13G 6
  21396956.109   -13162162.252 7 -10184210.16923
  20673620.227   -18317799.951 7 -13758056.12321
  20611201.6024  -20911316.39247 -15856957.57862
 91  5  3 23 34  0.0000000  0  3G 2G13G 6
  21400186.1724  -13145176.56147 -10170974.57963
  20668954.906   -18342314.654 7 -13777158.43621
  20612827.0314  -20902794.35147 -15850317.03062
 91  5  3 23 34 15.0000000  0  3G 2G13G 6
  21403428.578   -13128142.570 7 -10157701.34923
  20664315.195   -18366691.558 7 -13796153.37921
  20614469.6254  -20894147.23547 -15843579.02662
 91  5  3 23 34 30.0000000  0  3G 2G13G 6
  21406677.3444  -13111063.99247 -10144393.37563
  20659703.516   -18390934.140 7 -13815043.65221
  20616141.7034  -20885378.49247 -15836746.24562
 91  5  3 23 34 45.0000000  0  3G 2G13G 6
  21409938.0864  -13093939.20747 -10131049.40163
  20655114.648   -18415040.952 7 -13833828.13221
  20617831.1094  -20876486.54747 -15829817.46362
 91  5  3 23 35  0.0000000  0  3G 2G13G 6
  21413204.7814  -13076769.39247 -10117670.33463
  20650552.367   -18439012.729 7 -13852507.38721
  20619547.1024  -20867472.40547 -15822793.46562
 91  5  3 23 35 15.0000000  0  3G 2G13G 6
  21416478.2814  -13059555.88047 -10104257.21963
  20646017.734   -18462850.989 7 -13871082.61221
  20621284.8444  -20858337.31747 -15815675.21762
 91  5  3 23 35 30.0000000  0  3G 2G13G 6
  21419762.992   -13042298.126 7 -10090809.62923
  20641505.320   -18486555.249 7 -13889553.41521
  20623047.5084  -20849080.65447 -15808462.24062
 91  5  3 23 35 45.0000000  0  3G 2G13G 6
  21423055.1334  -13024993.40547 -10077325.44363
  20637021.453   -18510122.739 7 -13907917.64621
  20624833.1954  -20839699.72247 -15801152.43062
 91  5  3 23 36  0.0000000  0  3G 2G13G 6
  21426357.273   -13007642.704 7 -10063805.42823
  20632562.750   -18533554.169 7 -13926175.85421
  20626641.1884  -20830195.17647 -15793746.29862
 91  5  3 23 36 15.0000000  0  3G 2G13G 6
  21429668.430   -12990243.969 7 -10050247.98623
  20628130.133   -18556847.324 7 -13944326.31821
  20628472.9224  -20820565.00547 -15786242.27762
 91  5  3 23 36 30.0000000  0  3G 2G13G 6
  21432989.359   -12972795.778 7 -10036652.00623
  20623724.180   -18580000.835 7 -13962367.96321
  20630330.4844  -20810807.63947 -15778639.14162
 91  5  3 23 36 45.0000000  0  3G 2G13G 6
  21436317.859   -12955301.722 7 -10023020.28623
  20619344.617   -18603018.190 7 -13980303.51822
  20632209.9454  -20800926.57047 -15770939.61662
 91  5  3 23 37  0.0000000  0  3G 2G13G 6
  21439654.297   -12937765.636 7 -10009355.81523
  20614988.641   -18625903.388 7 -13998136.09121
  20634114.7894  -20790925.73847 -15763146.76962
 91  5  3 23 37 15.0000000  0  3G 2G13G 6
  21443001.2584  -12920182.82947  -9995654.93963
  20610660.289   -18648651.616 7 -14015861.93221
  20636042.5394  -20780800.25347 -15755256.78962
 91  5  3 23 37 30.0000000  0  3G 2G13G 6
  21446356.242   -12902553.999 7  -9981918.20223
  20606357.547   -18671263.674 7 -14033481.67021
  20637990.0314  -20770550.81547 -15747270.22562
 91  5  3 23 37 45.0000000  0  3G 2G13G 6
  21449719.7894  -12884883.38247  -9968148.90163
  20602079.219   -18693743.558 7 -14050998.41721
  20639962.9224  -20760181.43447 -15739190.19762
 91  5  3 23 38  0.0000000  0  3G 2G13G 6
  21453088.578   -12867171.196 7  -9954347.20823
  20597826.344   -18716091.651 7 -14068412.46522
  20641961.2274  -20749692.37047 -15731016.90862
